Date StartTime U_cm/s V_cm/s W_cm/s Ustd_cm/s Vstd_cm/s Wstd_cm/s Uvar_(cm/s)^2 Vvar_(cm/s)^2 Wvar_(cm/s)^2 KE_(m/s)^2 TurbulentKE_(m/s)^2 HorizWindSpeed_cm/s FrictionSpeec_cm/s DragCoef SpeedOfSound_m/s SonicTemperature_C Pressure_mb 
03/26/2014  00:00:00     -483.457      -55.759      -17.851      195.881      176.475       90.411    38369.477    31143.561     8174.236       15.741        3.884      486.662      104.704        0.046      335.708        6.519      851.254
03/26/2014  00:01:00     -406.648        5.532      -21.226      191.031      138.915       78.178    36493.031    19297.383     6111.795       11.386        3.095      406.685       86.344        0.045      335.693        6.494      851.253
03/26/2014  00:02:00     -596.588     -121.331      -28.529      205.747      177.467      100.201    42331.980    31494.408    10040.220       22.764        4.193      608.801      106.811        0.031      335.720        6.537      851.220
03/26/2014  00:03:00     -475.093       -7.036      -29.352      239.412      151.775       97.235    57317.900    23035.575     9454.739       15.820        4.490      475.145      111.517        0.055      335.708        6.518      851.180
03/26/2014  00:04:00     -473.414     -133.950      -36.904      157.560      124.991       72.324    24825.294    15622.868     5230.778       14.454        2.284      491.999       70.682        0.021      335.702        6.508      851.182
03/26/2014  00:05:00     -556.857      -69.835      -17.045      265.919      173.820      100.742    70713.130    30213.548    10148.881       21.314        5.554      561.219      126.214        0.051      335.709        6.520      851.162
03/26/2014  00:06:00     -411.769      -58.024      -19.390      196.078      162.892       84.945    38446.526    26533.711     7215.604       12.273        3.610      415.837       90.022        0.047      335.699        6.504      851.167
03/26/2014  00:07:00     -416.021      -36.865      -27.601      199.305      139.973       81.524    39722.293    19592.524     6646.239       12.056        3.298      417.651       91.902        0.048      335.680        6.471      851.151
03/26/2014  00:08:00     -413.837      -26.724      -15.684      205.265      167.631       89.218    42133.651    28100.115     7959.768       12.519        3.910      414.699      100.461        0.059      335.684        6.479      851.135
03/26/2014  00:09:00     -395.170      -84.097       -6.606      161.694      119.037       76.133    26145.008    14169.715     5796.170       10.468        2.306      404.019       82.566        0.042      335.701        6.507      851.128
03/26/2014  00:10:00     -594.280      -28.099      -31.313      223.554      160.514       92.874    49976.475    25764.877     8625.593       21.964        4.218      594.943       97.397        0.027      335.752        6.592      851.120
03/26/2014  00:11:00     -625.337      -78.233      -41.527      173.130      144.641       87.905    29973.944    20920.942     7727.364       22.875        2.931      630.212       85.178        0.018      335.770        6.622      851.124
03/26/2014  00:12:00     -588.949      -90.297      -38.559      174.984      150.644       77.251    30619.308    22693.532     5967.664       20.788        2.964      595.831       77.047        0.017      335.790        6.654      851.143
03/26/2014  00:13:00     -457.644      -21.497       -9.723      195.864      157.194       91.801    38362.561    24710.063     8427.370       14.073        3.575      458.149       94.870        0.043      335.834        6.727      851.150
03/26/2014  00:14:00     -310.523      -60.398       -0.655      205.412      148.912       93.746    42194.175    22174.819     8788.275        8.660        3.658      316.343       93.361        0.087      335.890        6.821      851.120
03/26/2014  00:15:00     -321.145      -14.999       -8.570      250.731      141.901      103.132    62865.944    20135.931    10636.139        9.852        4.682      321.495      125.521        0.152      335.935        6.897      851.137
03/26/2014  00:16:00     -425.510     -112.454      -17.543      157.740      162.130       70.630    24881.868    26286.192     4988.572       12.507        2.808      440.119       91.134        0.043      335.862        6.774      851.152
03/26/2014  00:17:00     -446.022     -163.338      -10.655      199.268      171.027       93.303    39707.889    29250.232     8705.449       15.168        3.883      474.989      103.855        0.048      335.858        6.768      851.135
03/26/2014  00:18:00     -529.881     -107.385      -39.524      171.085      169.770       79.547    29270.033    28821.721     6327.734       17.913        3.221      540.653       62.451        0.013      335.870        6.789      851.095
03/26/2014  00:19:00     -679.954      -87.255      -49.621      241.043      242.691      105.436    58101.551    58898.766    11116.676       30.024        6.406      685.529      100.304        0.021      335.874        6.796      851.116
03/26/2014  00:20:00     -560.256      -94.277      -42.694      227.711      179.207      100.214    51852.354    32114.996    10042.751       20.928        4.701      568.133      115.186        0.041      335.902        6.842      851.143
03/26/2014  00:21:00     -489.527     -117.833       -6.030      201.722      133.204       93.538    40691.840    17743.438     8749.377       16.036        3.359      503.509      104.119        0.043      335.890        6.820      851.146
03/26/2014  00:22:00     -403.134      -66.796      -16.908      242.741      160.676       97.075    58923.106    25816.866     9423.567       13.070        4.708      408.631      104.886        0.066      335.874        6.796      851.126
03/26/2014  00:23:00     -457.103     -162.311      -25.986      227.990      150.715       97.354    51979.464    22715.012     9477.855       16.005        4.209      485.065       93.695        0.037      335.889        6.820      851.128
03/26/2014  00:24:00     -469.206      -38.321       -7.260      224.503      201.437       86.668    50401.396    40576.878     7511.320       16.006        4.924      470.768      103.275        0.048      335.867        6.782      851.159
03/26/2014  00:25:00     -666.866      -36.891      -59.526      173.770      180.406       84.364    30196.018    32546.196     7117.285       25.972        3.493      667.886       70.942        0.011      335.837        6.734      851.175
03/26/2014  00:26:00     -418.873      -52.644       -7.678      237.383      139.835       83.334    56350.722    19553.816     6944.563       13.055        4.142      422.168       99.929        0.056      335.848        6.753      851.179
03/26/2014  00:27:00     -421.349      -96.487      -15.462      188.854      140.673       81.164    35665.894    19788.888     6587.600       12.455        3.102      432.255       78.341        0.033      335.824        6.711      851.186
03/26/2014  00:28:00     -404.471      -34.232      -20.292      203.942      126.489       74.220    41592.303    15999.554     5508.573       11.413        3.155      405.917       84.012        0.043      335.805        6.680      851.149
03/26/2014  00:29:00     -417.424      -71.470      -28.900      165.957      133.526       60.269    27541.734    17829.146     3632.336       11.458        2.450      423.498       65.627        0.024      335.808        6.685      851.123
03/26/2014  00:30:00     -470.949      -78.708       -7.408      237.789      143.306       88.061    56543.562    20536.700     7754.801       15.642        4.242      477.481      109.847        0.053      335.808        6.686      851.116
03/26/2014  00:31:00     -598.809     -149.191      -15.681      275.230      188.815       93.734    75751.624    35651.028     8786.133       25.061        6.009      617.114      107.314        0.030      335.810        6.690      851.111
03/26/2014  00:32:00     -379.579      -48.237      -21.188      168.272      134.583       73.747    28315.601    18112.532     5438.634        9.935        2.593      382.631       71.120        0.035      335.818        6.702      851.098
03/26/2014  00:33:00     -528.458     -122.639      -24.520      295.991      135.457       93.212    87610.682    18348.696     8688.450       20.476        5.732      542.502      123.476        0.052      335.810        6.689      851.072
03/26/2014  00:34:00     -414.119      -75.128        1.806      134.157      115.915       78.230    17998.215    13436.306     6119.903       10.734        1.878      420.879       77.012        0.033      335.788        6.652      851.053
03/26/2014  00:35:00     -281.707     -135.378        6.791      185.058      145.256       80.886    34246.640    21099.188     6542.505        7.980        3.094      312.548      106.270        0.116      335.801        6.674      851.009
03/26/2014  00:36:00     -456.333      -56.067      -10.628      208.910      180.956       90.801    43643.281    32745.118     8244.911       14.805        4.232      459.765       95.443        0.043      335.773        6.627      850.935
03/26/2014  00:37:00     -348.558     -121.412      -15.608      160.638      147.333       84.212    25804.619    21707.102     7091.693        9.553        2.730      369.098       76.097        0.043      335.764        6.611      850.887
03/26/2014  00:38:00     -413.231      -37.154      -23.635      207.181      159.901       81.201    42923.960    25568.449     6593.632       12.388        3.754      414.898       89.028        0.046      335.759        6.603      850.871
03/26/2014  00:39:00     -626.982     -105.154      -34.535      203.227      168.435       96.534    41301.029    28370.236     9318.852       24.216        3.950      635.738       96.568        0.023      335.761        6.606      850.887
03/26/2014  00:40:00     -629.913     -110.116      -64.460      145.042      181.095       92.967    21037.208    32795.432     8642.844       23.776        3.124      639.465       69.180        0.012      335.798        6.669      850.925
03/26/2014  00:41:00     -558.077     -188.076      -17.804      237.496      138.070       92.200    56404.278    19063.258     8500.765       21.554        4.198      588.916       96.417        0.027      335.816        6.698      850.901
03/26/2014  00:42:00     -530.585     -212.294       -9.732      208.316      140.982       83.833    43395.599    19875.793     7027.926       19.848        3.515      571.480       91.192        0.025      335.793        6.658      850.921
03/26/2014  00:43:00     -503.360      -42.917      -24.347      249.737      131.390       73.073    62368.345    17263.223     5339.710       17.037        4.249      505.186       99.276        0.039      335.776        6.631      850.921
03/26/2014  00:44:00     -464.331      -23.133      -11.654      275.954      169.228       99.726    76150.590    28638.177     9945.245       16.548        5.737      464.907      117.193        0.064      335.779        6.637      850.887
03/26/2014  00:45:00     -555.293      -90.279       -7.735      262.990      204.140      103.078    69163.626    41673.036    10624.979       21.899        6.073      562.584      116.440        0.043      335.769        6.621      850.883
03/26/2014  00:46:00     -367.186      -58.903       -5.484      196.611      122.331       76.629    38655.836    14964.972     5872.054        9.890        2.975      371.881       86.479        0.054      335.788        6.652      850.939
03/26/2014  00:47:00     -469.354       18.064      -21.066      140.875      109.478       66.397    19845.789    11985.455     4408.531       12.864        1.812      469.702       65.714        0.020      335.753        6.593      850.929
03/26/2014  00:48:00     -407.029      -26.185      -42.536      117.272      116.762       63.203    13752.715    13633.337     3994.679        9.977        1.569      407.871       43.959        0.012      335.758        6.602      850.887
03/26/2014  00:49:00     -691.057     -165.293      -19.319      253.368      159.370      100.329    64195.448    25398.842    10066.001       30.244        4.983      710.551      117.171        0.027      335.755        6.598      850.825
03/26/2014  00:50:00     -433.563     -136.349       -1.301      232.430      205.389      105.356    54023.863    42184.446    11099.952       15.692        5.365      454.497      116.647        0.066      335.746        6.580      850.853
03/26/2014  00:51:00     -488.311     -127.478       -2.738      246.454      182.924      109.428    60739.808    33461.217    11974.429       18.042        5.309      504.676      133.440        0.070      335.775        6.630      850.793
03/26/2014  00:52:00     -476.498     -121.740      -22.176      218.787      157.229       90.491    47867.834    24720.953     8188.550       16.155        4.039      491.804       73.470        0.022      335.764        6.611      850.789
03/26/2014  00:53:00     -496.304     -133.084      -27.150      180.956      140.110       94.991    32744.992    19630.749     9023.203       16.307        3.070      513.837      103.147        0.040      335.757        6.600      850.740
03/26/2014  00:54:00     -674.848     -180.832      -25.011      229.970      162.392       89.057    52886.228    26371.216     7931.181       28.795        4.359      698.656       95.452        0.019      335.758        6.602      850.706
03/26/2014  00:55:00     -541.201     -121.862      -36.832      181.672      159.977       80.153    33004.610    25592.546     6424.578       18.705        3.251      554.751       74.879        0.018      335.767        6.616      850.701
03/26/2014  00:56:00     -528.803      -15.313      -28.465      209.688      177.433       81.761    43968.986    31482.472     6684.919       18.139        4.107      529.025       68.639        0.017      335.786        6.648      850.656
03/26/2014  00:57:00     -614.401      -77.582      -23.209      223.741      186.682      102.363    50059.830    34850.328    10478.166       23.970        4.769      619.280      105.980        0.029      335.831        6.725      850.614
03/26/2014  00:58:00     -659.161     -127.109      -20.428      290.863      229.776      108.016    84601.220    52796.810    11667.556       30.004        7.453      671.305      133.785        0.040      335.821        6.706      850.644
03/26/2014  00:59:00     -677.434      -55.824      -31.469      238.628      202.742       95.411    56943.490    41104.355     9103.177       28.507        5.358      679.731      102.016        0.023      335.846        6.749      850.710
03/26/2014  01:00:00     -513.727      -76.487      -14.914      314.565      225.801      105.161    98951.261    50985.983    11058.861       21.546        8.050      519.389      124.842        0.058      335.854        6.762      850.775
03/26/2014  01:01:00     -387.754      -19.928      -35.492      179.958      184.569       83.237    32384.800    34065.873     6928.363       11.268        3.669      388.266       86.494        0.050      335.848        6.751      850.843
03/26/2014  01:02:00     -425.208      -84.936      -26.880      190.020      127.016       78.106    36107.544    16132.946     6100.552       12.353        2.917      433.608       65.743        0.023      335.817        6.700      850.834
03/26/2014  01:03:00     -429.441      -84.156      -29.695      168.922      158.508       81.188    28534.577    25124.898     6591.507       12.631        3.013      437.609       65.591        0.022      335.827        6.717      850.789
03/26/2014  01:04:00     -615.362     -206.843      -19.015      280.333      191.467      118.422    78586.396    36659.465    14023.720       27.552        6.463      649.196      136.857        0.044      335.865        6.780      850.734
03/26/2014  01:05:00     -534.285     -257.566      -27.581      233.732      225.115      120.704    54630.791    50676.916    14569.442       23.620        5.994      593.128      111.791        0.036      335.899        6.836      850.760
03/26/2014  01:06:00     -241.791      -34.391        4.064      187.603      122.258       88.920    35195.067    14946.966     7906.789        5.884        2.902      244.225       82.600        0.114      335.941        6.908      850.837
03/26/2014  01:07:00     -379.724      -19.899        0.097      249.094      155.082      101.591    62047.681    24050.395    10320.694       12.048        4.821      380.245      107.485        0.080      335.901        6.840      850.879
03/26/2014  01:08:00     -225.172     -103.455        3.629      135.368      151.716       70.609    18324.528    23017.852     4985.693        5.386        2.316      247.801       80.362        0.105      335.855        6.764      850.821
03/26/2014  01:09:00     -391.500     -203.454      -25.279      193.725      166.426       79.608    37529.196    27697.680     6337.440       13.342        3.578      441.210       62.466        0.020      335.811        6.691      850.774
03/26/2014  01:10:00     -638.573      -64.448       -7.348      334.249      196.995      126.010   111722.295    38806.963    15878.432       28.916        8.320      641.817      146.601        0.052      335.763        6.610      850.796
03/26/2014  01:11:00     -528.570      -26.496      -23.265      263.721      174.946      106.701    69548.799    30606.164    11385.110       19.606        5.577      529.234      126.563        0.057      335.748        6.584      850.895
03/26/2014  01:12:00     -616.160      -90.650      -38.568      239.378      182.955       92.803    57302.062    33472.668     8612.423       24.435        4.969      622.792       99.784        0.026      335.735        6.563      850.940
03/26/2014  01:13:00     -348.725      -30.351       -5.036      161.706      139.822       80.202    26148.690    19550.178     6432.440        8.733        2.607      350.043       77.635        0.049      335.730        6.556      850.976
03/26/2014  01:14:00     -333.093      -82.737       -3.871      189.290      123.605       77.368    35830.550    15278.287     5985.761        8.744        2.855      343.215       85.939        0.063      335.733        6.560      850.968
03/26/2014  01:15:00     -400.355      -92.738      -19.881      181.897      175.444       85.255    33086.469    30780.714     7268.439       12.019        3.557      410.955       82.384        0.040      335.735        6.564      851.004
03/26/2014  01:16:00     -257.964      -24.068        9.489      140.015      100.072       65.778    19604.230    10014.379     4326.706        5.057        1.697      259.084       82.963        0.103      335.702        6.507      851.040
03/26/2014  01:17:00     -393.673      -70.278      -26.971      180.219      124.562       78.445    32478.898    15515.654     6153.552       10.739        2.707      399.897       80.748        0.041      335.657        6.431      850.970
03/26/2014  01:18:00     -440.921      -45.965      -11.251      251.059      159.291       94.286    63030.557    25373.514     8889.879       14.695        4.865      443.310      107.305        0.059      335.671        6.456      850.880
03/26/2014  01:19:00     -592.558      -92.503      -27.411      239.254      147.893      107.348    57242.678    21872.214    11523.674       22.552        4.532      599.734      129.149        0.046      335.654        6.428      850.852
03/26/2014  01:20:00     -367.030      -39.036      -21.567      175.685      112.730       72.456    30865.194    12708.097     5249.841        9.275        2.441      369.100       67.648        0.034      335.669        6.453      850.908
03/26/2014  01:21:00     -508.642      -33.933      -32.619      132.559      150.301       65.761    17571.867    22590.374     4324.507       15.270        2.224      509.773       63.218        0.015      335.665        6.447      850.868
03/26/2014  01:22:00     -511.578      -76.288      -11.545      243.982      172.275       91.723    59527.095    29678.647     8413.130       18.262        4.881      517.235      105.831        0.042      335.639        6.404      850.903
03/26/2014  01:23:00     -443.759      -22.264      -28.961      161.792      130.592       85.920    26176.492    17054.351     7382.316       12.442        2.531      444.317       84.532        0.036      335.602        6.342      851.003
03/26/2014  01:24:00     -318.102       -8.958        3.912      147.192      113.715       73.823    21665.497    12931.019     5449.781        7.066        2.002      318.228       79.403        0.062      335.593        6.326      851.000
03/26/2014  01:25:00     -406.800      -95.337      -15.037      152.251      164.899       83.792    23180.262    27191.753     7021.026       11.609        2.870      417.822       81.381        0.038      335.636        6.398      850.929
03/26/2014  01:26:00     -573.908      -96.070      -23.731      258.268      146.069       92.024    66702.274    21336.050     8468.457       21.782        4.825      581.894      115.819        0.040      335.704        6.511      850.868
03/26/2014  01:27:00     -426.357     -151.189       -4.346      181.250      144.685       85.669    32851.559    20933.649     7339.238       13.288        3.056      452.370       92.376        0.042      335.808        6.686      850.894
03/26/2014  01:28:00     -395.105     -104.385       -7.651      168.704      139.806       71.699    28461.194    19545.717     5140.771       11.009        2.657      408.661       69.960        0.029      335.856        6.764      850.928
03/26/2014  01:29:00     -744.498      -63.281      -64.258      248.167      188.453      102.435    61586.822    35514.534    10493.024       33.498        5.380      747.183      113.811        0.023      335.810        6.688      850.938
03/26/2014  01:30:00     -581.087     -119.613      -22.415      189.394      166.193       84.653    35869.955    27620.142     7166.109       21.155        3.533      593.270       92.523        0.024      335.749        6.587      850.889
03/26/2014  01:31:00     -651.765      -20.860      -75.655      240.157      208.139       87.523    57675.207    43322.048     7660.237       26.979        5.433      652.099      104.209        0.026      335.719        6.536      850.810
03/26/2014  01:32:00     -513.746     -163.278      -27.807      199.910      177.589       89.422    39964.094    31538.025     7996.228       18.542        3.975      539.068       76.068        0.020      335.739        6.570      850.737
03/26/2014  01:33:00     -499.850     -115.986      -24.832      172.236      159.277       71.167    29665.393    25369.035     5064.754       16.200        3.005      513.131       75.069        0.021      335.722        6.543      850.778
03/26/2014  01:34:00     -385.910     -166.960      -29.595      197.600      168.885       88.187    39045.936    28522.139     7776.869       12.650        3.767      420.478       83.447        0.039      335.742        6.575      850.814
03/26/2014  01:35:00     -440.855     -125.352      -15.706      153.505      138.953       74.637    23563.736    19307.984     5570.737       12.937        2.422      458.330       69.672        0.023      335.707        6.517      850.798
03/26/2014  01:36:00     -525.452       -8.779      -29.199      195.643      174.937       88.778    38276.091    30603.087     7881.617       17.688        3.838      525.525       86.819        0.027      335.691        6.489      850.791
03/26/2014  01:37:00     -645.434      -77.861      -54.470      192.899      173.055       94.938    37209.933    29947.909     9013.205       25.088        3.809      650.113       98.783        0.023      335.681        6.473      850.762
03/26/2014  01:38:00     -395.993     -137.253       -2.880      266.957      189.157       94.403    71266.276    35780.390     8911.971       14.578        5.798      419.105      115.090        0.075      335.684        6.479      850.764
03/26/2014  01:39:00     -520.205     -202.254      -12.228      231.000      167.974       92.921    53360.843    28215.286     8634.254       20.092        4.511      558.140      102.585        0.034      335.662        6.441      850.747
03/26/2014  01:40:00     -511.293      -39.430      -33.130      217.908      178.641       94.196    47484.059    31912.458     8872.808       17.615        4.413      512.811       95.677        0.035      335.638        6.402      850.767
03/26/2014  01:41:00     -564.858      -86.056      -27.818      199.041      147.676       89.975    39617.480    21808.235     8095.483       19.837        3.476      571.376       86.664        0.023      335.628        6.386      850.813
03/26/2014  01:42:00     -391.209      -91.451      -18.071      223.468      148.107       88.476    49938.096    21935.740     7828.050       12.070        3.985      401.756      107.859        0.072      335.630        6.389      850.799
03/26/2014  01:43:00     -398.384     -104.106       -9.773      207.074      177.523       88.347    42879.697    31514.530     7805.184       12.591        4.110      411.762       98.524        0.057      335.605        6.346      850.791
03/26/2014  01:44:00     -488.262     -162.211      -28.858      190.193      196.641       81.518    36173.413    38667.858     6645.131       17.350        4.074      514.502       88.354        0.029      335.557        6.267      850.761
03/26/2014  01:45:00     -486.367      -90.592      -19.446      238.411      161.804      104.290    56839.616    26180.474    10876.451       16.950        4.695      494.732      107.161        0.047      335.527        6.217      850.757
03/26/2014  01:46:00     -517.911      -71.984      -45.028      242.661      139.586       89.535    58884.250    19484.197     8016.601       18.090        4.319      522.889      103.628        0.039      335.515        6.195      850.835
03/26/2014  01:47:00     -379.461      -80.394      -40.518      279.051      138.612       93.182    77869.502    19213.316     8682.911       12.891        5.288      387.884      136.297        0.123      335.512        6.192      850.799
03/26/2014  01:48:00     -421.171      -56.639      -28.119      184.512      163.509       69.901    34044.618    26735.034     4886.181       12.351        3.283      424.962       71.215        0.028      335.457        6.099      850.736
03/26/2014  01:49:00     -389.004      -24.074      -24.406      157.818      149.870       71.181    24906.493    22461.087     5066.771       10.246        2.622      389.748       74.984        0.037      335.431        6.056      850.715
03/26/2014  01:50:00     -299.909      -15.118       -7.773      160.741      127.407       60.620    25837.649    16232.488     3674.782        6.798        2.287      300.290       61.876        0.042      335.411        6.023      850.694
03/26/2014  01:51:00     -497.248      -67.817      -11.447      244.884      208.440       81.849    59968.050    43447.061     6699.205       18.103        5.506      501.851       82.998        0.027      335.396        6.000      850.608
03/26/2014  01:52:00     -698.265      -67.733      -27.887      282.679      229.413      114.815    79907.431    52630.267    13182.378       31.930        7.286      701.542      144.654        0.043      335.429        6.054      850.649
03/26/2014  01:53:00     -477.035     -204.892      -27.002      189.415      179.446       92.276    35878.204    32200.822     8514.811       17.342        3.830      519.176       92.699        0.032      335.417        6.033      850.678
03/26/2014  01:54:00     -340.521     -118.514       -8.561      239.711      202.487       89.923    57461.342    41001.157     8086.090       11.829        5.327      360.556      112.884        0.098      335.433        6.060      850.660
03/26/2014  01:55:00     -400.818      -66.210        9.998      242.733      170.921      103.015    58919.476    29214.154    10612.129       13.192        4.937      406.250      121.497        0.089      335.418        6.034      850.615
03/26/2014  01:56:00     -464.882     -111.782      -23.168      209.633      160.917       88.531    43945.946    25894.436     7837.819       15.340        3.884      478.132      108.384        0.051      335.405        6.013      850.618
03/26/2014  01:57:00     -524.534     -164.090      -24.328      235.674      190.773      102.796    55542.073    36394.428    10567.038       20.256        5.125      549.601      119.094        0.047      335.420        6.039      850.606
03/26/2014  01:58:00     -682.411     -190.331      -21.294      255.654      130.226       91.938    65358.715    16958.846     8452.626       29.655        4.539      708.457      115.422        0.027      335.615        6.363      850.624
03/26/2014  01:59:00     -490.546      -83.233      -16.188      228.646      182.587       88.878    52278.929    33338.114     7899.287       17.065        4.676      497.557       81.669        0.027      335.533        6.227      850.643
03/26/2014  02:00:00     -655.451     -145.075      -22.313      277.573      192.452      111.291    77046.514    37037.679    12385.731       28.879        6.323      671.314      126.228        0.035      335.476        6.132      850.646
03/26/2014  02:01:00     -659.880     -265.990      -19.023      205.287      183.236       98.711    42142.667    33575.565     9743.953       29.599        4.273      711.472      103.067        0.021      335.512        6.190      850.668
03/26/2014  02:02:00     -485.938      -76.491      -14.875      210.262      161.186       82.848    44210.079    25980.839     6863.849       15.962        3.853      491.921       87.988        0.032      335.495        6.165      850.735
03/26/2014  02:03:00     -401.684      -84.389      -20.719      223.973      146.995       81.389    50163.707    21607.436     6624.230       12.363        3.920      410.453       93.050        0.051      335.471        6.124      850.744
03/26/2014  02:04:00     -294.844      -25.196      -16.388      192.705      133.997       74.102    37135.155    17955.141     5491.166        7.420        3.029      295.919       89.694        0.092      335.465        6.114      850.730
03/26/2014  02:05:00     -401.761     -162.932      -25.025      179.462      161.250       75.810    32206.563    26001.711     5747.108       12.626        3.198      433.542       71.235        0.027      335.454        6.095      850.721
03/26/2014  02:06:00     -331.739     -193.975      -20.326      168.712      102.218       79.971    28463.730    10448.499     6395.301        9.669        2.265      384.288       81.515        0.045      335.441        6.071      850.737
03/26/2014  02:07:00     -269.092     -110.004      -15.553      151.311      119.050       72.961    22895.150    14173.008     5323.263        6.356        2.120      290.709       72.090        0.061      335.442        6.076      850.739
03/26/2014  02:08:00     -259.274     -105.258       -7.191      160.117      126.867       71.981    25637.503    16095.353     5181.253        6.262        2.346      279.825       83.815        0.090      335.475        6.130      850.712
03/26/2014  02:09:00     -441.303     -116.730      -21.576      182.371      143.189       77.378    33259.153    20503.036     5987.389       13.428        2.987      456.480       59.097        0.017      335.453        6.094      850.699
03/26/2014  02:10:00     -374.370      -59.844      -24.954      124.512      116.734       58.303    15503.188    13626.884     3399.209        8.844        1.626      379.123       57.792        0.023      335.446        6.081      850.654
03/26/2014  02:11:00     -442.142     -114.951      -10.996      225.457      179.402       90.085    50830.715    32185.203     8115.242       14.996        4.557      456.841      103.235        0.051      335.439        6.070      850.587
03/26/2014  02:12:00     -466.132      -17.178      -26.839      161.872      165.647       79.988    26202.470    27438.897     6398.004       13.916        3.002      466.449       77.469        0.028      335.452        6.092      850.551
03/26/2014  02:13:00     -425.614        2.317      -39.958      143.625      143.434       71.790    20628.170    20573.208     5153.829       11.454        2.318      425.621       66.043        0.024      335.463        6.112      850.597
03/26/2014  02:14:00     -438.855      -54.862      -29.712      205.571      177.379       74.052    42259.241    31463.345     5483.646       13.783        3.960      442.271       84.520        0.037      335.436        6.064      850.582
03/26/2014  02:15:00     -418.453      -57.277        2.134      239.955      211.752      101.825    57578.197    44838.816    10368.420       14.556        5.639      422.354      113.153        0.072      335.411        6.024      850.541
03/26/2014  02:16:00     -448.416     -123.533      -11.032      244.837      146.218       92.915    59945.176    21379.646     8633.137       15.319        4.498      465.121      111.188        0.057      335.396        5.997      850.546
03/26/2014  02:17:00     -433.835     -173.639      -17.942      193.116      153.843       81.048    37293.736    23667.722     6568.782       14.309        3.377      467.293       78.919        0.029      335.396        5.997      850.512
03/26/2014  02:18:00     -496.172     -121.081      -39.278      184.509      143.470       69.836    34043.656    20583.629     4877.079       16.094        2.975      510.732       75.436        0.022      335.413        6.028      850.568
03/26/2014  02:19:00     -442.125      -84.743      -19.529      162.468      149.517       77.700    26395.843    22355.350     6037.261       12.890        2.739      450.173       84.598        0.035      335.417        6.033      850.607
03/26/2014  02:20:00     -465.242      -55.952      -24.273      167.261      124.133       74.071    27976.398    15408.915     5486.476       13.451        2.444      468.595       76.344        0.027      335.404        6.012      850.612
03/26/2014  02:21:00     -267.023     -104.284       17.248      206.421      162.989       97.542    42609.608    26565.395     9514.427        8.057        3.934      286.665      117.468        0.168      335.427        6.051      850.582
03/26/2014  02:22:00     -345.399     -144.587        9.090      241.169      188.803      106.983    58162.584    35646.593    11445.387       12.275        5.263      374.441      115.403        0.095      335.425        6.048      850.543
03/26/2014  02:23:00     -371.457     -135.819       -9.444      258.760      167.568      113.184    66956.488    28079.104    12810.508       13.216        5.392      395.509      119.882        0.092      335.439        6.070      850.510
03/26/2014  02:24:00     -389.422      -43.177      -32.376      148.478      121.133       71.545    22045.743    14673.292     5118.702        9.819        2.092      391.808       60.722        0.024      335.433        6.061      850.532
03/26/2014  02:25:00     -403.343      -92.489      -22.460      198.346      175.137       93.135    39341.028    30673.102     8674.217       12.520        3.934      413.811       85.221        0.042      335.420        6.040      850.499
03/26/2014  02:26:00     -483.681     -112.504      -29.427      258.695      152.271      102.969    66922.917    23186.312    10602.620       17.407        5.036      496.592      129.820        0.068      335.446        6.083      850.473
03/26/2014  02:27:00     -434.806     -105.177       -6.142      201.080      128.279       80.881    40433.243    16455.543     6541.680       13.178        3.172      447.346       85.662        0.037      335.441        6.073      850.468
03/26/2014  02:28:00     -430.012      -63.606      -12.554      189.011      176.755       86.795    35725.166    31242.429     7533.454       13.179        3.725      434.690      101.049        0.054      335.454        6.096      850.490
03/26/2014  02:29:00     -437.657     -125.339      -23.087      197.304      143.641       78.885    38928.681    20632.862     6222.893       13.677        3.289      455.251       95.165        0.044      335.451        6.092      850.519
03/26/2014  02:30:00     -248.398      -67.742       -3.614      134.857      130.050       78.287    18186.537    16912.939     6128.910        5.376        2.061      257.469       56.145        0.048      335.472        6.126      850.537
03/26/2014  02:31:00     -203.480      -26.448       14.230      146.237      117.289       64.916    21385.369    13756.776     4214.038        4.082        1.968      205.192       66.532        0.105      335.500        6.174      850.548
03/26/2014  02:32:00     -244.409      -47.935      -15.762      196.697       97.723       63.038    38689.703     9549.845     3973.835        5.724        2.611      249.065       79.356        0.102      335.510        6.189      850.525
03/26/2014  02:33:00     -353.390     -175.899      -14.868      176.481      178.174       97.749    31145.500    31745.974     9554.955       11.423        3.622      394.747       94.672        0.058      335.529        6.219      850.522
03/26/2014  02:34:00     -446.589     -121.348      -18.314      185.317      171.426       88.971    34342.422    29386.912     7915.868       14.306        3.582      462.782       84.731        0.034      335.530        6.221      850.518
03/26/2014  02:35:00     -590.815       12.689      -49.103      272.297      169.628       95.036    74145.415    28773.503     9031.832       23.177        5.598      590.951      128.835        0.048      335.561        6.272      850.516
03/26/2014  02:36:00     -495.086      -19.970      -36.249      197.268      154.680       91.046    38914.709    23925.765     8289.307       15.896        3.556      495.489       99.905        0.041      335.585        6.313      850.511
03/26/2014  02:37:00     -308.580      -13.285        9.061      220.335      118.164       83.948    48547.665    13962.622     7047.195        8.251        3.478      308.866       87.662        0.081      335.551        6.258      850.478
03/26/2014  02:38:00     -441.215      -47.080      -11.856      205.783      154.136       89.591    42346.812    23757.805     8026.517       13.556        3.707      443.720       98.890        0.050      335.572        6.291      850.466
03/26/2014  02:39:00     -441.439      -73.109      -13.536      182.077      169.436       75.173    33151.873    28708.445     5650.952       13.394        3.376      447.451       88.193        0.039      335.596        6.332      850.479
03/26/2014  02:40:00     -262.967      -49.828      -10.153      132.381      117.179       64.884    17524.601    13730.917     4209.877        5.359        1.773      267.647       73.559        0.076      335.607        6.351      850.450
03/26/2014  02:41:00     -351.182     -103.225       -1.619      134.661      136.744       64.073    18133.603    18698.875     4105.413        8.745        2.047      366.038       60.062        0.027      335.570        6.289      850.436
03/26/2014  02:42:00     -304.077     -106.339       -3.028      258.410      134.464       94.552    66775.834    18080.454     8940.137        9.877        4.690      322.135      125.433        0.152      335.588        6.319      850.408
03/26/2014  02:43:00     -264.604      -51.430       -4.717      162.800      149.355       66.051    26503.684    22306.917     4362.706        6.292        2.659      269.556       79.876        0.088      335.593        6.328      850.378
03/26/2014  02:44:00     -671.827       12.787      -46.102      137.150      148.444       85.448    18810.087    22035.601     7301.342       25.088        2.407      671.949       74.217        0.012      335.609        6.353      850.362
03/26/2014  02:45:00     -384.385      -74.317      -23.465      223.555      176.719       89.990    49977.018    31229.709     8098.219       12.155        4.465      391.504       95.401        0.059      335.576        6.298      850.348
03/26/2014  02:46:00     -427.456      -89.791      -25.394      306.275      149.929       85.873    93804.098    22478.636     7374.254       15.752        6.183      436.785      113.849        0.068      335.561        6.274      850.371
03/26/2014  02:47:00     -550.392      -95.490      -30.937      202.355      164.975      104.363    40947.644    27216.894    10891.599       19.602        3.953      558.614      115.753        0.043      335.597        6.333      850.356
03/26/2014  02:48:00     -364.889      -68.312       -3.404      215.569      149.581       90.220    46470.031    22374.621     8139.635       10.739        3.849      371.229      106.398        0.082      335.600        6.339      850.349
03/26/2014  02:49:00     -224.206     -132.786        7.852      170.239      144.856       91.037    28981.368    20983.164     8287.763        6.310        2.913      260.577       97.062        0.139      335.594        6.329      850.333
03/26/2014  02:50:00     -231.053      -59.669       -2.217      136.856      141.269       76.244    18729.678    19956.818     5813.096        5.072        2.225      238.633       77.729        0.106      335.602        6.343      850.300
03/26/2014  02:51:00     -258.278     -151.229      -14.649      146.896      130.748       69.370    21578.382    17094.925     4812.228        6.663        2.174      299.296       65.925        0.049      335.595        6.331      850.282
03/26/2014  02:52:00     -361.818     -211.392      -15.207      198.434      154.519       85.138    39375.967    23876.045     7248.556       12.315        3.525      419.045       83.770        0.040      335.580        6.305      850.225
03/26/2014  02:53:00     -388.855     -144.562       -7.403      217.467      175.114       93.194    47292.113    30664.998     8685.056       12.938        4.332      414.856       98.846        0.057      335.559        6.270      850.186
03/26/2014  02:54:00     -354.601     -132.691        0.194      206.698      182.283      100.530    42724.169    33227.199    10106.190       11.469        4.303      378.614      115.124        0.092      335.612        6.360      850.199
03/26/2014  02:55:00     -263.829     -163.045       -7.670      182.308      147.566       91.182    33236.218    21775.854     8314.069        7.977        3.166      310.144       98.928        0.102      335.631        6.392      850.221
03/26/2014  02:56:00     -316.567     -168.497      -29.435      178.719      131.646       73.130    31940.503    17330.564     5348.064        9.203        2.731      358.617       78.061        0.047      335.615        6.364      850.179
03/26/2014  02:57:00     -430.706     -180.424       -9.541      209.712      183.413      105.717    43978.928    33640.294    11176.162       15.346        4.440      466.970      106.787        0.052      335.616        6.365      850.128
03/26/2014  02:58:00     -563.187        1.473      -26.831      190.401      182.082      102.787    36252.726    33153.976    10565.117       19.892        3.999      563.189      100.346        0.032      335.642        6.410      850.148
03/26/2014  02:59:00     -203.419      -72.713       11.218      139.818      130.129       71.937    19549.205    16933.621     5174.958        4.422        2.083      216.024       70.000        0.105      335.666        6.449      850.162
03/26/2014  03:00:00     -241.318     -154.150       12.014      220.687      138.572       94.623    48702.819    19202.193     8953.571        7.948        3.843      286.351      114.458        0.160      335.671        6.457      850.218
03/26/2014  03:01:00     -299.805     -195.721       -1.937      230.332      161.671       88.848    53053.035    26137.648     7893.892       10.762        4.354      358.036      106.474        0.088      335.647        6.417      850.178
03/26/2014  03:02:00     -368.251     -131.107       -8.847      206.086      154.153       96.908    42471.284    23763.045     9391.175       11.424        3.781      390.894      107.439        0.076      335.660        6.439      850.109
03/26/2014  03:03:00     -422.047     -195.451      -23.654      226.357      170.960       92.726    51237.402    29227.425     8598.144       15.296        4.453      465.107       99.237        0.046      335.710        6.521      850.062
03/26/2014  03:04:00     -500.590     -200.961      -20.278      250.067      193.593      118.520    62533.294    37478.334    14047.059       20.270        5.703      539.422      134.891        0.063      335.802        6.675      850.054
03/26/2014  03:05:00     -471.087      -52.822       -2.598      242.420      136.309       96.498    58767.589    18580.262     9311.882       15.567        4.333      474.039      105.788        0.050      335.842        6.741      850.128
03/26/2014  03:06:00     -584.697      -91.885      -36.725      198.992      170.450       87.655    39597.939    29053.115     7683.321       21.398        3.817      591.873       97.906        0.027      335.752        6.593      850.099
03/26/2014  03:07:00     -311.364     -172.161        0.035      195.483      142.787      103.085    38213.501    20388.068    10626.478        9.789        3.461      355.791       97.323        0.075      335.707        6.518      850.091
03/26/2014  03:08:00     -435.113     -233.055        1.034      208.672      194.257       91.435    43543.827    37735.796     8360.361       16.662        4.482      493.596       92.757        0.035      335.662        6.442      850.073
03/26/2014  03:09:00     -500.220     -374.932        9.574      323.053      237.598      135.797   104363.414    56452.681    18440.797       28.504        8.963      625.135      157.801        0.064      335.664        6.445      850.063
03/26/2014  03:10:00     -440.392     -270.637      -17.039      208.972      190.639      110.299    43669.415    36343.077    12165.876       17.981        4.609      516.904      117.216        0.051      335.638        6.402      850.020
03/26/2014  03:11:00     -560.834     -152.121      -39.815      233.545      169.829      112.335    54543.353    28841.795    12619.184       21.761        4.800      581.098      101.566        0.031      335.648        6.418      850.022
03/26/2014  03:12:00     -394.029     -243.187        1.162      250.822      270.778      119.572    62911.471    73320.520    14297.487       18.243        7.526      463.032      131.762        0.081      335.661        6.441      850.076
03/26/2014  03:13:00     -430.882     -315.906       15.901      264.004      149.685       82.469    69698.013    22405.590     6801.073       19.229        4.945      534.281      109.401        0.042      335.720        6.538      850.076
03/26/2014  03:14:00     -430.575     -367.224       -3.647      205.962      192.235      106.533    42420.415    36954.176    11349.328       20.547        4.536      565.904      112.795        0.040      335.652        6.424      849.978
03/26/2014  03:15:00     -356.298     -280.015       -0.572      230.672      170.434      103.169    53209.772    29047.687    10643.757       14.911        4.645      453.163      103.494        0.052      335.632        6.392      849.974
03/26/2014  03:16:00     -509.675     -297.591      -12.365      290.057      216.389      137.215    84132.793    46824.373    18828.060       24.910        7.489      590.194      165.382        0.079      335.608        6.352      849.915
03/26/2014  03:17:00     -411.969     -261.809       -1.402      222.128      162.093       88.123    49340.860    26274.035     7765.630       16.081        4.169      488.121       90.523        0.034      335.626        6.383      849.942
03/26/2014  03:18:00     -537.008     -144.781      -29.123      267.294      225.185       98.005    71445.868    50708.453     9604.904       22.095        6.588      556.182      113.659        0.042      335.604        6.344      849.871
03/26/2014  03:19:00     -497.261     -327.281      -12.426      271.103      239.318      134.624    73496.958    57272.876    18123.571       25.168        7.445      595.299      146.540        0.061      335.598        6.334      849.810
03/26/2014  03:20:00     -422.869     -229.661       18.242      293.473      247.775      125.907    86126.488    61392.474    15852.643       19.760        8.169      481.209      154.898        0.104      335.596        6.332      849.866
03/26/2014  03:21:00     -281.129     -331.934        2.271      180.628      156.050      104.106    32626.544    24351.537    10838.082       12.850        3.391      434.987       98.664        0.051      335.600        6.337      849.824
03/26/2014  03:22:00     -259.116     -178.989       14.485      177.620      113.565       77.878    31548.923    12896.960     6064.918        7.494        2.526      314.926       90.345        0.082      335.584        6.312      849.736
03/26/2014  03:23:00     -418.218     -297.451       -8.340      257.780      181.621      103.446    66450.782    32986.027    10701.002       18.677        5.507      513.209      113.314        0.049      335.664        6.444      849.672
03/26/2014  03:24:00     -412.709     -367.676      -19.519      228.254      210.607      114.192    52100.107    44355.370    13039.784       20.767        5.475      552.734       97.111        0.031      335.835        6.730      849.676
03/26/2014  03:25:00     -217.424     -206.743       42.540      236.473      200.785      129.678    55919.299    40314.750    16816.453       10.242        5.653      300.026      137.977        0.211      335.692        6.492      849.664
03/26/2014  03:26:00     -430.370     -272.591       -5.999      252.245      180.639      104.531    63627.482    32630.563    10926.794       18.335        5.359      509.435      118.262        0.054      335.601        6.339      849.716
03/26/2014  03:27:00     -348.918     -227.029        0.044      159.493      163.970       81.557    25438.071    26886.258     6651.541       11.612        2.949      416.276       83.127        0.040      335.567        6.284      849.760
03/26/2014  03:28:00     -321.921     -182.926       -3.049      195.451      144.464       86.431    38201.193    20869.895     7470.362       10.181        3.327      370.264       97.986        0.070      335.588        6.319      849.770
03/26/2014  03:29:00     -365.055     -234.388       -1.224      214.981      163.138      105.008    46216.764    26614.077    11026.585       13.601        4.193      433.824      103.932        0.057      335.611        6.358      849.802
03/26/2014  03:30:00     -368.713     -228.567      -12.361      189.784      255.525       95.584    36017.851    65292.933     9136.319       14.937        5.522      433.811       94.785        0.048      335.598        6.334      849.808
03/26/2014  03:31:00     -385.463      -73.495      -31.623      184.760      156.174       86.788    34136.182    24390.324     7532.133       11.051        3.303      392.407       88.777        0.051      335.547        6.249      849.818
03/26/2014  03:32:00     -360.306     -203.330       -6.151      201.314      169.262       97.055    40527.371    28649.634     9419.703       12.488        3.930      413.719      103.992        0.063      335.575        6.296      849.831
03/26/2014  03:33:00     -321.894     -176.852       -0.387      199.283      158.851       76.136    39713.775    25233.602     5796.738       10.280        3.537      367.277       91.879        0.063      335.550        6.257      849.823
03/26/2014  03:34:00     -316.914     -126.155        5.513      264.028      213.258      106.122    69710.645    45478.943    11261.978       12.139        6.323      341.101      132.117        0.150      335.557        6.268      849.836
03/26/2014  03:35:00     -291.005      -88.170        7.950      247.925      177.078       90.809    61466.798    31356.454     8246.195        9.678        5.053      304.069      111.892        0.135      335.538        6.236      849.832
03/26/2014  03:36:00     -381.843     -149.889       -6.844      241.846      181.960      105.022    58489.729    33109.586    11029.560       13.545        5.131      410.208      125.368        0.093      335.580        6.306      849.811
03/26/2014  03:37:00     -339.592     -175.101       -0.499      237.808      183.757      100.119    56552.562    33766.498    10023.879       12.314        5.017      382.077      108.270        0.080      335.646        6.415      849.847
03/26/2014  03:38:00     -492.876     -187.514       -4.972      246.654      183.688      103.907    60838.304    33741.268    10796.569       19.172        5.269      527.341      117.560        0.050      335.666        6.449      849.813
03/26/2014  03:39:00     -511.087     -167.703      -21.496      189.101      222.756       97.758    35759.106    49620.331     9556.675       19.235        4.747      537.898       95.999        0.032      335.848        6.752      849.813
03/26/2014  03:40:00     -419.099     -102.302      -11.445      188.681      129.773       83.142    35600.593    16841.114     6912.617       12.279        2.968      431.404       77.883        0.033      335.851        6.756      849.752
03/26/2014  03:41:00     -448.779     -118.675      -16.167      228.326      178.935       86.980    52132.949    32017.660     7565.513       15.371        4.586      464.205       99.808        0.046      335.781        6.641      849.800
03/26/2014  03:42:00     -239.317     -142.028       11.085      192.271      116.226       72.582    36967.984    13508.592     5268.197        6.665        2.787      278.289       78.622        0.080      335.848        6.751      849.837
03/26/2014  03:43:00     -303.437     -264.932       -8.583      196.782      148.818       94.412    38722.996    22146.831     8913.595       11.605        3.489      402.819       96.671        0.058      335.785        6.646      849.826
03/26/2014  03:44:00     -253.022     -205.928        6.544      204.452      133.407       84.738    41800.520    17797.414     7180.542        8.661        3.339      326.231       98.700        0.092      335.673        6.460      849.810
03/26/2014  03:45:00     -290.368      -59.243        9.357      176.655      111.447       66.285    31207.019    12420.431     4393.696        6.796        2.401      296.350       82.634        0.078      335.620        6.373      849.796
03/26/2014  03:46:00     -323.190      -72.528        2.093      168.404      157.065       75.563    28359.788    24669.270     5709.832        8.422        2.937      331.229       74.256        0.050      335.579        6.303      849.805
03/26/2014  03:47:00     -439.976     -217.979      -12.415      275.692      179.053       86.368    76006.112    32060.088     7459.406       17.836        5.776      491.013       90.344        0.034      335.624        6.379      849.793
03/26/2014  03:48:00     -282.874     -149.018      -16.487      194.100      149.231       77.605    37674.710    22269.978     6022.573        8.422        3.298      319.725       92.010        0.083      335.653        6.426      849.824
03/26/2014  03:49:00     -203.249      -92.439        1.394       88.378       75.600       49.420     7810.674     5715.400     2442.294        3.291        0.798      223.283       36.912        0.027      335.667        6.449      849.814
03/26/2014  03:50:00     -171.834     -113.660        4.069      127.492      130.968       66.992    16254.241    17152.601     4487.869        4.017        1.895      206.023       66.923        0.106      335.751        6.589      849.797
03/26/2014  03:51:00     -118.331      -91.381        1.242      123.355       96.999       41.398    15216.542     9408.877     1713.762        2.434        1.317      149.508       52.864        0.125      335.768        6.620      849.775
03/26/2014  03:52:00     -166.980      -85.186       24.925      143.282      133.432       83.137    20529.740    17804.091     6911.778        4.049        2.262      187.454       72.389        0.149      335.701        6.507      849.799
03/26/2014  03:53:00     -195.247     -120.229       11.799      181.392      139.609       86.774    32903.037    19490.799     7529.769        5.631        2.996      229.295      103.892        0.205      335.655        6.431      849.830
03/26/2014  03:54:00     -237.194     -193.817        5.005      157.192      139.108       87.878    24709.246    19350.918     7722.475        7.281        2.589      306.310       85.324        0.078      335.618        6.369      849.850
03/26/2014  03:55:00     -440.177     -155.291       -6.827      284.453      136.799       77.239    80913.510    18714.005     5965.931       16.173        5.280      466.767       75.599        0.026      335.601        6.339      849.853
03/26/2014  03:56:00     -254.551     -109.882      -20.350      210.449      187.088       68.119    44288.624    35001.982     4640.208        8.059        4.197      277.255       83.225        0.090      335.591        6.326      849.868
03/26/2014  03:57:00      -99.209     -138.435        6.369       98.197      121.031       42.400     9642.714    14648.491     1797.718        2.756        1.304      170.313       50.872        0.089      335.641        6.409      849.827
03/26/2014  03:58:00     -144.950      -57.726       17.042      145.076      101.046       57.545    21046.965    10210.281     3311.412        2.959        1.728      156.022       72.864        0.218      335.597        6.334      849.898
03/26/2014  03:59:00     -222.545     -118.215      -21.430      161.552      132.262       80.560    26098.964    17493.156     6489.994        5.701        2.504      251.994       76.205        0.091      335.673        6.459      849.949
03/26/2014  04:00:00     -351.876       26.798      -16.804      149.911      141.445       86.830    22473.255    20006.712     7539.519        8.741        2.501      352.895       74.737        0.045      335.592        6.325      849.988
03/26/2014  04:01:00     -138.101      -34.703       28.639      125.712      109.893       69.486    15803.611    12076.547     4828.317        2.690        1.635      142.394       71.422        0.252      335.617        6.368      849.989
03/26/2014  04:02:00     -179.079      -15.058       -1.098      116.335      106.624       58.568    13533.900    11368.632     3430.212        3.031        1.417      179.711       53.303        0.088      335.567        6.284      850.012
03/26/2014  04:03:00     -131.703      -23.548       -0.004      130.696       78.938       42.306    17081.533     6231.142     1789.817        2.150        1.255      133.791       58.475        0.191      335.544        6.248      849.994
03/26/2014  04:04:00     -233.267      -27.848      -11.539      186.988       91.980       56.337    34964.468     8460.281     3173.861        5.095        2.330      234.923       78.197        0.111      335.501        6.175      849.970
03/26/2014  04:05:00     -376.711       -4.392      -22.451      235.189      141.941       68.195    55314.096    20147.248     4650.592       11.126        4.006      376.736       86.030        0.052      335.466        6.115      850.014
03/26/2014  04:06:00     -372.777      -72.320      -19.745      151.165      149.517       82.415    22850.942    22355.216     6792.187        9.828        2.600      379.728       77.019        0.041      335.452        6.092      850.029
03/26/2014  04:07:00     -329.036      -82.246        4.863      223.774      153.438       87.235    50074.616    23543.101     7609.961        9.812        4.061      339.160      110.883        0.107      335.506        6.183      850.044
03/26/2014  04:08:00     -491.552     -117.195      -20.001      186.485      182.298       98.502    34776.732    33232.646     9702.619       16.672        3.886      505.329      106.192        0.044      335.456        6.099      850.067
03/26/2014  04:09:00     -587.818       85.192      -65.538      220.936      127.675       88.849    48812.795    16300.856     7894.171       21.503        3.650      593.959       95.625        0.026      335.445        6.080      850.055
03/26/2014  04:10:00     -415.446      -92.995      -34.504      173.209      146.788       63.152    30001.353    21546.630     3988.203       11.897        2.777      425.727       68.228        0.026      335.436        6.064      850.070
03/26/2014  04:11:00     -289.263     -129.071        2.370      174.757      128.417       81.134    30540.047    16490.928     6582.729        7.697        2.681      316.753       82.110        0.067      335.455        6.096      850.055
03/26/2014  04:12:00     -591.238     -197.255      -11.613      258.048      182.557       97.783    66588.847    33326.992     9561.613       24.902        5.474      623.276       98.240        0.025      335.424        6.045      850.074
03/26/2014  04:13:00     -693.840      -66.259      -51.104      218.003      167.908      107.531    47525.277    28193.119    11562.834       28.783        4.364      696.997       93.832        0.018      335.410        6.023      850.104
03/26/2014  04:14:00     -532.225      -88.017        0.062      220.941      150.654       98.210    48814.795    22696.529     9645.180       18.607        4.058      539.454      110.615        0.042      335.408        6.019      850.130
03/26/2014  04:15:00     -379.210     -149.601      -12.114      153.521      136.524       84.188    23568.688    18638.850     7087.629       10.780        2.465      407.653       62.736        0.024      335.394        5.994      850.162
03/26/2014  04:16:00     -437.506     -104.213      -19.121      224.675      137.428       95.205    50478.643    18886.527     9064.041       14.052        3.921      449.747      108.379        0.058      335.335        5.896      850.192
03/26/2014  04:17:00     -618.766     -177.671      -21.853      243.772      193.936      107.990    59424.658    37611.118    11661.859       26.179        5.435      643.769      122.978        0.036      335.225        5.715      850.194
03/26/2014  04:18:00     -691.997      -98.948      -28.900      277.148      206.690      112.978    76810.804    42720.832    12764.033       31.086        6.615      699.035      131.459        0.035      335.212        5.692      850.203
03/26/2014  04:19:00     -808.359     -118.942      -51.988      250.380      188.269      109.067    62689.957    35445.121    11895.582       39.014        5.502      817.062      116.956        0.020      335.153        5.596      850.236
03/26/2014  04:20:00     -431.573      -75.527      -25.483      207.189      192.867       81.021    42927.161    37197.604     6564.451       13.963        4.334      438.132       83.193        0.036      335.167        5.619      850.271
03/26/2014  04:21:00     -451.325     -143.856       -6.079      228.330      189.459      103.126    52134.785    35894.701    10634.874       16.152        4.933      473.697      122.587        0.067      335.116        5.534      850.331
03/26/2014  04:22:00     -394.777       -0.499      -14.986      162.484      154.964       91.294    26401.102    24013.742     8334.590       10.740        2.937      394.777       74.131        0.035      335.094        5.499      850.377
03/26/2014  04:23:00     -560.131      -71.045      -24.427      203.780      158.884       96.685    41526.129    25244.144     9348.026       19.774        3.806      564.619      111.054        0.039      335.011        5.360      850.384
03/26/2014  04:24:00     -540.970      -57.392      -33.244      196.616      185.246       90.606    38657.995    34316.156     8209.455       18.910        4.059      544.006       83.701        0.024      334.989        5.323      850.393
03/26/2014  04:25:00     -459.536       10.292      -25.392      238.067      158.364       95.764    56675.862    25079.055     9170.743       15.141        4.546      459.651      120.349        0.069      334.965        5.284      850.444
03/26/2014  04:26:00     -397.037      -10.453      -14.735      180.939      149.197       93.277    32738.975    22259.847     8700.538       11.082        3.185      397.174      100.057        0.063      334.924        5.214      850.499
03/26/2014  04:27:00     -386.476      -73.027       -8.718      173.956      107.540       67.657    30260.855    11564.850     4577.476       10.058        2.320      393.315       66.839        0.029      334.892        5.162      850.538
03/26/2014  04:28:00     -574.398      -33.362      -28.832      191.743      117.522       72.298    36765.225    13811.415     5227.021       19.383        2.790      575.366       92.210        0.026      334.839        5.073      850.538
03/26/2014  04:29:00     -235.614      -18.587       -5.290      169.182       97.065       65.242    28622.718     9421.680     4256.543        4.909        2.115      236.346       78.528        0.110      334.873        5.131      850.531
03/26/2014  04:30:00     -352.453      -62.042      -28.123      148.283      116.942       66.652    21987.991    13675.328     4442.462        8.448        2.005      357.872       68.907        0.037      334.853        5.095      850.506
03/26/2014  04:31:00     -306.216     -145.050       -9.082      149.320       89.443       64.210    22296.600     8000.057     4122.924        7.465        1.721      338.833       76.410        0.051      334.851        5.095      850.454
03/26/2014  04:32:00     -306.614      -21.256      -15.674      107.138      101.178       52.618    11478.454    10237.061     2768.623        5.959        1.224      307.350       50.201        0.027      334.811        5.030      850.449
03/26/2014  04:33:00     -250.571      -71.545       -8.605      134.529       74.755       61.503    18098.099     5588.261     3782.604        4.772        1.373      260.585       66.767        0.066      334.836        5.068      850.435
03/26/2014  04:34:00     -223.752       -6.969      -19.718       67.851       91.310       41.413     4603.772     8337.463     1715.054        3.258        0.733      223.860       31.884        0.020      334.805        5.016      850.403
03/26/2014  04:35:00     -279.981     -110.247      -24.089       64.717       64.531       45.197     4188.273     4164.296     2042.760        5.076        0.520      300.905       30.285        0.010      334.798        5.003      850.387
03/26/2014  04:36:00     -250.238      -56.476       -1.109      119.030       96.733       58.369    14168.170     9357.200     3406.996        4.637        1.347      256.532       70.063        0.075      334.802        5.010      850.375
03/26/2014  04:37:00     -272.510     -100.160      -19.166      101.452       78.227       46.892    10292.582     6119.530     2198.843        5.163        0.931      290.334       49.923        0.030      334.783        4.978      850.322
03/26/2014  04:38:00     -279.388     -110.791      -27.067       71.329       92.417       51.952     5087.783     8540.824     2699.033        5.369        0.816      300.554       46.228        0.024      334.778        4.971      850.290
03/26/2014  04:39:00     -163.516      -68.840       -7.827       93.313       73.699       44.823     8707.363     5431.586     2009.120        2.384        0.807      177.416       37.026        0.044      334.819        5.041      850.288
03/26/2014  04:40:00     -183.983      -89.473        0.267       85.938       84.573       47.090     7385.282     7152.558     2217.476        2.930        0.838      204.585       44.570        0.047      334.790        4.992      850.316
03/26/2014  04:41:00     -262.075      -49.069      -11.717      104.935       80.640       53.675    11011.255     6502.812     2880.966        4.581        1.020      266.629       53.867        0.041      334.726        4.885      850.332
03/26/2014  04:42:00     -277.730      -53.042      -18.313      121.402       85.826       49.875    14738.330     7366.186     2487.497        5.243        1.230      282.750       51.485        0.033      334.692        4.829      850.327
03/26/2014  04:43:00     -281.002      -82.232      -23.799      109.137       79.357       61.483    11910.929     6297.551     3780.152        5.414        1.099      292.787       52.388        0.032      334.704        4.848      850.311
03/26/2014  04:44:00     -371.308     -138.577      -34.107       91.127       89.550       50.553     8304.042     8019.244     2555.583        8.855        0.944      396.324       33.146        0.007      334.695        4.833      850.314
03/26/2014  04:45:00     -284.756     -113.397      -20.929       87.215       75.253       47.564     7606.381     5662.986     2262.312        5.495        0.777      306.504       36.187        0.014      334.713        4.863      850.334
03/26/2014  04:46:00     -341.501      -98.774      -20.579      103.175       90.271       54.168    10645.130     8148.847     2934.131        7.426        1.086      355.499       39.668        0.012      334.711        4.860      850.316
03/26/2014  04:47:00     -208.405      -58.826      -11.646      125.466      108.274       62.013    15741.597    11723.356     3845.629        3.916        1.566      216.548       49.026        0.051      334.713        4.865      850.261
03/26/2014  04:48:00     -193.429      -59.467      -34.883      117.287       73.129       50.292    13756.289     5347.833     2529.248        3.190        1.082      202.364       51.754        0.065      334.757        4.938      850.165
03/26/2014  04:49:00     -302.061      -60.524       -5.570      179.712      121.887       66.920    32296.426    14856.520     4478.311        7.327        2.582      308.065       77.154        0.063      334.780        4.976      850.195
03/26/2014  04:50:00     -292.888     -129.182      -19.476      119.927       85.357       53.598    14382.444     7285.794     2872.751        6.369        1.227      320.111       44.344        0.019      334.744        4.914      850.241
03/26/2014  04:51:00     -260.942     -109.181        0.624      141.988      110.092       68.779    20160.666    12120.200     4730.619        5.850        1.851      282.862       64.171        0.051      334.753        4.931      850.341
03/26/2014  04:52:00     -361.408      -12.172      -13.879      170.285      109.572       67.095    28996.948    12006.051     4501.681        8.822        2.275      361.613       82.895        0.053      334.794        5.000      850.416
03/26/2014  04:53:00     -291.880      -78.107       -4.737      127.123      102.398       60.357    16160.294    10485.331     3642.962        6.080        1.514      302.150       63.058        0.044      334.824        5.047      850.470
03/26/2014  04:54:00     -234.084      -66.000       -2.343      131.910       91.532       56.142    17400.208     8378.036     3151.933        4.404        1.447      243.211       60.204        0.061      334.857        5.103      850.510
03/26/2014  04:55:00     -129.003      -82.355        9.181      129.506      112.188       66.380    16771.721    12586.077     4406.359        2.863        1.688      153.049       62.783        0.168      334.897        5.170      850.537
03/26/2014  04:56:00     -188.328     -128.053       10.827      130.128      145.724       74.184    16933.239    21235.579     5503.272        4.782        2.184      227.739       64.132        0.079      334.934        5.232      850.540
03/26/2014  04:57:00     -300.184      -98.643      -24.209      140.241       95.345       58.599    19667.568     9090.643     3433.807        6.630        1.610      315.976       60.991        0.037      334.938        5.239      850.544
03/26/2014  04:58:00     -328.193     -124.581       -1.763      161.852       95.325       56.437    26196.226     9086.902     3185.112        8.084        1.923      351.043       65.182        0.034      334.877        5.138      850.520
03/26/2014  04:59:00     -291.025      -95.432       -6.802      141.215      135.169       61.607    19941.571    18270.648     3795.384        6.792        2.100      306.272       62.206        0.041      334.851        5.092      850.507
03/26/2014  05:00:00     -273.459     -110.732       -0.631      124.636       86.619       56.706    15534.154     7502.816     3215.581        5.664        1.313      295.028       60.864        0.043      334.860        5.106      850.521
03/26/2014  05:01:00     -248.006     -133.142        0.233      116.490       93.051       48.713    13569.901     8658.563     2372.914        5.191        1.230      281.485       50.932        0.033      334.850        5.092      850.535
03/26/2014  05:02:00     -283.123     -148.584      -21.670      191.021      152.461       81.916    36489.189    23244.274     6710.166        8.456        3.322      319.744       78.634        0.060      334.763        4.946      850.519
03/26/2014  05:03:00     -321.319      -83.382       -9.687      173.130      158.285       73.532    29973.945    25054.081     5407.011        8.535        3.022      331.962       79.232        0.057      334.760        4.941      850.558
03/26/2014  05:04:00     -353.055     -106.654      -14.407      235.425      136.244       86.854    55425.044    18562.555     7543.545       10.886        4.077      368.812      106.278        0.083      334.755        4.932      850.546
03/26/2014  05:05:00     -184.939      -86.386        9.754      156.887      114.129       77.010    24613.393    13025.369     5930.574        4.266        2.178      204.120       79.412        0.151      334.752        4.929      850.536
03/26/2014  05:06:00     -236.833      -74.415      -12.341      153.649       91.310       66.293    23607.892     8337.528     4394.784        4.905        1.817      248.248       57.207        0.053      334.729        4.889      850.534
03/26/2014  05:07:00     -194.693      -64.036        1.333      103.597      101.105       56.435    10732.259    10222.224     3184.859        3.307        1.207      204.954       48.243        0.055      334.741        4.909      850.514
03/26/2014  05:08:00     -272.834      -69.687      -22.009      206.259      118.494       69.072    42542.963    14040.886     4770.905        7.055        3.068      281.593       81.174        0.083      334.713        4.864      850.515
03/26/2014  05:09:00     -360.933      -77.060        0.627      207.193      177.503       85.732    42929.126    31507.306     7349.984       10.898        4.089      369.067      100.407        0.074      334.657        4.771      850.488
03/26/2014  05:10:00     -301.755     -116.644       -0.596      141.672      129.335       63.407    20070.831    16727.533     4020.407        7.273        2.041      323.515       57.185        0.031      334.654        4.764      850.464
03/26/2014  05:11:00     -257.917      -34.975      -13.049      125.229       88.305       50.552    15682.362     7797.709     2555.505        4.697        1.302      260.277       46.680        0.032      334.667        4.786      850.467
03/26/2014  05:12:00     -259.200      -41.236        8.897      161.082      108.622       80.846    25947.391    11798.690     6536.079        5.661        2.214      262.460       83.560        0.101      334.672        4.796      850.480
03/26/2014  05:13:00     -328.974     -116.042      -21.272      159.359      135.677       78.787    25395.311    18408.132     6207.416        8.607        2.501      348.840       82.618        0.056      334.664        4.781      850.484
03/26/2014  05:14:00     -242.800     -114.189      -11.975      130.186       94.475       55.238    16948.380     8925.473     3051.237        5.052        1.446      268.312       58.683        0.048      334.652        4.763      850.461
03/26/2014  05:15:00     -358.301      -23.835      -17.101      162.342      103.187       65.133    26354.903    10647.480     4242.281        8.523        2.062      359.093       79.194        0.049      334.629        4.722      850.493
03/26/2014  05:16:00     -351.513      -46.425      -12.394      159.985      118.183       76.565    25595.226    13967.142     5862.170        8.564        2.271      354.565       86.845        0.060      334.636        4.736      850.497
03/26/2014  05:17:00     -376.984      -53.301      -28.208      180.035      137.412       67.689    32412.735    18882.117     4581.753       10.080        2.794      380.733       75.474        0.039      334.642        4.746      850.500
03/26/2014  05:18:00     -418.243     -141.482      -18.361      140.540      128.208       70.238    19751.567    16437.367     4933.360       11.819        2.056      441.525       65.823        0.022      334.646        4.751      850.504
03/26/2014  05:19:00     -341.516     -100.207      -21.045      171.048      134.123       75.183    29257.424    17988.937     5652.460        9.000        2.645      355.913       79.988        0.051      334.645        4.752      850.517
03/26/2014  05:20:00     -436.007      -52.310        1.586      186.400      130.591       82.234    34744.924    17054.090     6762.478       12.569        2.928      439.134       91.677        0.044      334.618        4.705      850.573
03/26/2014  05:21:00     -458.891      -58.074      -13.527      187.865      124.964       88.069    35293.077    15616.053     7756.082       13.639        2.933      462.551      103.113        0.050      334.607        4.685      850.595
03/26/2014  05:22:00     -418.804      -48.527      -22.490      166.356      150.948       78.327    27674.458    22785.433     6135.060       11.741        2.830      421.606       86.131        0.042      334.605        4.683      850.603
03/26/2014  05:23:00     -465.423       10.643      -19.408      177.964      113.575       66.969    31671.131    12899.229     4484.792       13.307        2.453      465.545       74.721        0.026      334.606        4.685      850.623
03/26/2014  05:24:00     -397.430      -60.195      -11.017      162.491      120.077       76.321    26403.457    14418.441     5824.889       10.416        2.332      401.962       78.189        0.038      334.620        4.710      850.628
03/26/2014  05:25:00     -378.715      -57.875       -8.739      140.234      121.719       67.264    19665.457    14815.543     4524.507        9.292        1.950      383.112       63.446        0.027      334.606        4.685      850.612
03/26/2014  05:26:00     -400.111      -63.258      -11.743      154.708      118.473       75.048    23934.584    14035.766     5632.183       10.391        2.180      405.081       78.225        0.037      334.599        4.673      850.608
03/26/2014  05:27:00     -398.463      -91.011      -12.367      151.789      159.262       93.903    23039.878    25364.436     8817.796       11.220        2.861      408.725       85.376        0.044      334.564        4.616      850.590
03/26/2014  05:28:00     -425.657      -63.290      -22.387      156.320      153.181       83.803    24435.929    23464.542     7022.860       12.030        2.746      430.337       79.141        0.034      334.480        4.476      850.554
03/26/2014  05:29:00     -309.908      -85.671      -18.732      185.760      102.737       67.854    34506.648    10554.990     4604.213        7.669        2.483      321.531       66.121        0.042      334.518        4.541      850.530
03/26/2014  05:30:00     -291.450       -7.894      -14.762      164.142      117.742       64.433    26942.668    13863.068     4151.574        6.508        2.248      291.557       79.026        0.073      334.496        4.505      850.500
03/26/2014  05:31:00     -380.700      -79.415       -2.032      149.754      134.540       57.093    22426.247    18100.884     3259.659        9.751        2.189      388.894       57.414        0.022      334.447        4.423      850.473
03/26/2014  05:32:00     -408.224     -132.183       -7.929      176.891      108.166       69.926    31290.478    11699.848     4889.605       11.602        2.394      429.091       74.486        0.030      334.373        4.300      850.415
03/26/2014  05:33:00     -394.364        8.715      -32.293      164.576      130.875       79.833    27085.312    17128.167     6373.278       10.360        2.529      394.460       80.719        0.042      334.331        4.230      850.388
03/26/2014  05:34:00     -402.627      -73.495      -20.709      195.681      151.203       87.858    38290.973    22862.240     7719.106       11.839        3.444      409.280       98.995        0.059      334.293        4.165      850.341
03/26/2014  05:35:00     -420.344      -77.158      -39.064      160.009      132.348       77.944    25602.850    17515.895     6075.289       11.667        2.460      427.367       66.651        0.024      334.297        4.172      850.297
03/26/2014  05:36:00     -443.083      -93.429      -33.308      155.574      147.772       67.071    24203.254    21836.651     4498.455       12.834        2.527      452.826       68.304        0.023      334.291        4.163      850.263
03/26/2014  05:37:00     -471.895     -137.947      -20.237      164.369      157.199       78.365    27017.132    24711.643     6141.023       14.999        2.893      491.645       83.854        0.029      334.344        4.250      850.205
03/26/2014  05:38:00     -574.002      -69.508      -21.533      230.430      172.375      101.745    53097.987    29713.003    10351.946       21.395        4.658      578.195      119.348        0.043      334.386        4.321      850.170
03/26/2014  05:39:00     -655.528     -250.843      -43.213      159.605      169.936       79.761    25473.669    28878.326     6361.819       27.760        3.036      701.882       65.771        0.009      334.317        4.208      850.167
03/26/2014  05:40:00     -438.552      -66.017      -23.074      208.321      127.981       82.575    43397.474    16379.065     6818.679       13.189        3.330      443.493       95.086        0.046      334.304        4.185      850.229
03/26/2014  05:41:00     -465.213      -24.288      -13.727      184.027      140.804       87.399    33866.105    19825.733     7638.575       13.925        3.067      465.846       95.530        0.042      334.286        4.155      850.215
03/26/2014  05:42:00     -430.858      -98.823       -8.683      199.472      153.266       85.806    39788.964    23490.349     7362.724       13.305        3.532      442.046       96.826        0.048      334.299        4.178      850.193
03/26/2014  05:43:00     -417.788      -53.646      -13.697      161.085      177.289       77.264    25948.525    31431.534     5969.762       12.047        3.167      421.218       90.266        0.046      334.273        4.133      850.211
03/26/2014  05:44:00     -336.359     -114.087       12.300      226.537      197.132       93.234    51318.905    38860.964     8692.504       11.257        4.944      355.181      110.656        0.097      334.291        4.162      850.212
03/26/2014  05:45:00     -435.143      -70.925      -15.067      217.701      119.261       91.521    47393.842    14223.294     8376.042       13.229        3.500      440.885      103.857        0.055      334.281        4.146      850.188
03/26/2014  05:46:00     -435.325     -163.811      -35.184      235.178      166.848       90.404    55308.621    27838.261     8172.847       15.443        4.566      465.126       94.359        0.041      334.286        4.154      850.182
03/26/2014  05:47:00     -198.295      -16.840        1.013      174.504      107.682       78.745    30451.610    11595.437     6200.837        4.392        2.412      199.009       86.186        0.188      334.300        4.179      850.159
03/26/2014  05:48:00     -463.602     -140.454      -19.950      189.953      205.570       94.130    36082.119    42258.857     8860.541       16.111        4.360      484.411       84.364        0.030      334.260        4.111      850.165
03/26/2014  05:49:00     -455.508     -194.752      -25.695      235.437      182.886       99.566    55430.504    33447.142     9913.458       17.241        4.940      495.395      121.417        0.060      334.256        4.105      850.175
03/26/2014  05:50:00     -459.584     -139.678      -32.844      215.969      185.920       79.642    46642.511    34566.089     6342.910       15.966        4.378      480.341       83.698        0.030      334.206        4.021      850.119
03/26/2014  05:51:00     -433.673     -122.581      -18.454      206.642      231.621      107.087    42701.092    53648.141    11467.658       15.561        5.391      450.664      107.473        0.057      334.202        4.015      850.091
03/26/2014  05:52:00     -627.703     -338.640      -16.158      377.596      293.519      132.729   142578.637    86153.503    17616.998       37.760       12.317      713.224      166.065        0.054      334.206        4.023      850.064
03/26/2014  05:53:00     -531.240     -194.673       -9.481      219.249      195.173      108.398    48070.178    38092.602    11750.150       20.904        4.896      565.786      110.813        0.038      334.180        3.978      850.062
03/26/2014  05:54:00     -353.162      -85.550        1.855      285.699      247.790      110.998    81623.974    61400.097    12320.549       14.366        7.767      363.376      131.318        0.131      334.189        3.993      850.021
03/26/2014  05:55:00     -545.000     -221.403      -21.899      257.499      215.106      102.175    66305.648    46270.466    10439.758       23.474        6.151      588.255      109.782        0.035      334.222        4.049      849.994
03/26/2014  05:56:00     -620.786     -354.602      -33.579      287.986      260.658      133.199    82936.038    67942.510    17742.055       34.040        8.431      714.925      143.222        0.040      334.283        4.150      850.041
03/26/2014  05:57:00     -444.039     -268.475        2.508      277.944      180.380      103.335    77252.855    32537.105    10678.118       19.484        6.023      518.892      117.890        0.052      334.318        4.208      850.041
03/26/2014  05:58:00     -485.561     -129.631        5.858      290.542      180.098      104.596    84414.472    32435.271    10940.350       19.017        6.390      502.567      134.619        0.072      334.274        4.135      850.051
03/26/2014  05:59:00     -415.724     -194.207      -11.021      286.322      203.318      114.484    81980.283    41338.283    13106.517       17.352        6.821      458.850      137.938        0.090      334.302        4.183      850.070
03/26/2014  06:00:00     -437.936     -173.606       -5.813      234.962      232.155      112.308    55206.975    53895.824    12613.129       17.181        6.086      471.091      109.581        0.054      334.276        4.137      850.093
03/26/2014  06:01:00     -624.682     -261.883      -31.705      297.399      236.254      126.198    88446.063    55815.857    15926.005       30.997        8.009      677.355      133.474        0.039      334.273        4.134      850.046
03/26/2014  06:02:00     -395.175     -115.926        2.563      291.695      193.496      106.822    85085.730    37440.858    11410.904       15.175        6.697      411.828      116.736        0.080      334.301        4.180      850.052
03/26/2014  06:03:00     -527.372     -135.126      -14.067      272.953      182.943      122.423    74503.257    33468.059    14987.435       20.974        6.148      544.408      141.130        0.067      334.285        4.153      850.048
03/26/2014  06:04:00     -553.692      -81.987      -16.906      320.564      184.681      124.692   102761.411    34107.153    15547.994       23.297        7.621      559.729      156.306        0.078      334.284        4.151      850.081
03/26/2014  06:05:00     -424.524     -117.583      -21.333      218.845      248.303      102.674    47893.258    61654.267    10541.950       15.727        6.004      440.507      120.011        0.074      334.274        4.134      850.100
03/26/2014  06:06:00     -505.954     -105.078      -14.950      227.486      200.283      100.875    51749.788    40113.170    10175.805       18.463        5.102      516.750      103.679        0.040      334.289        4.159      850.090
03/26/2014  06:07:00     -436.300     -222.845       -1.634      271.481      193.648      116.616    73702.136    37499.665    13599.302       18.239        6.240      489.915      141.056        0.083      334.294        4.169      850.139
03/26/2014  06:08:00     -612.144     -175.791      -24.309      282.763      232.761      117.005    79955.134    54177.838    13690.243       27.699        7.391      636.885      135.460        0.045      334.296        4.172      850.197
03/26/2014  06:09:00     -593.180     -228.282      -22.022      245.878      285.521      116.429    60456.182    81522.024    13555.773       27.997        7.777      635.590      124.783        0.039      334.325        4.220      850.244
03/26/2014  06:10:00     -428.316     -216.209      -27.343      196.273      188.379       88.907    38522.894    35486.628     7904.502       15.642        4.096      479.793       87.566        0.033      334.340        4.244      850.254
03/26/2014  06:11:00     -510.934      -64.461      -25.476      261.897      176.095       98.159    68590.277    31009.365     9635.270       18.753        5.462      514.985      114.878        0.050      334.371        4.296      850.312
03/26/2014  06:12:00     -463.773     -161.563      -26.829      199.346      182.225       83.023    39738.990    33206.128     6892.751       16.086        3.992      491.109       92.931        0.036      334.359        4.277      850.347
03/26/2014  06:13:00     -430.079      -83.153       -2.877      197.107      179.561       96.010    38851.192    32242.323     9217.984       13.609        4.016      438.044       88.811        0.041      334.325        4.219      850.330
03/26/2014  06:14:00     -404.392     -170.110      -18.906      198.462      143.097       85.765    39387.113    20476.779     7355.566       13.001        3.361      438.714       87.247        0.040      334.324        4.218      850.288
03/26/2014  06:15:00     -493.236     -180.472      -27.568      307.559      206.651      101.172    94592.463    42704.467    10235.796       21.204        7.377      525.216      116.914        0.050      334.297        4.173      850.344
03/26/2014  06:16:00     -711.405     -132.409      -38.411      242.641      244.971      112.142    58874.874    60011.003    12575.851       32.826        6.573      723.622      125.105        0.030      334.283        4.149      850.337
03/26/2014  06:17:00     -405.439      -30.553        9.604      360.584      227.183      118.273   130020.602    51612.066    13988.608       18.048        9.781      406.589      159.641        0.154      334.281        4.147      850.303
03/26/2014  06:18:00     -413.173      -56.679       -4.567      260.554      165.513      111.307    67888.302    27394.639    12389.219       14.079        5.384      417.042      134.505        0.104      334.263        4.117      850.347
03/26/2014  06:19:00     -505.323     -141.255      -13.390      242.373      205.232       98.317    58744.628    42119.974     9666.322       19.299        5.527      524.694      116.793        0.050      334.233        4.066      850.363
03/26/2014  06:20:00     -201.695      -85.547       15.247      194.174      167.739       94.246    37703.528    28136.224     8882.239        6.146        3.736      219.087       98.323        0.201      334.269        4.126      850.409
03/26/2014  06:21:00     -474.675     -188.102       -7.829      198.155      172.621       84.836    39265.294    29797.882     7197.126       16.849        3.813      510.586       80.783        0.025      334.236        4.073      850.421
03/26/2014  06:22:00     -435.498     -144.349      -27.601      256.595      180.000      106.726    65841.191    32399.957    11390.541       16.042        5.482      458.798      129.462        0.080      334.235        4.069      850.473
03/26/2014  06:23:00     -557.678     -149.462      -29.811      237.189      166.535       95.741    56258.761    27734.021     9166.354       21.368        4.658      577.359      103.334        0.032      334.206        4.023      850.470
03/26/2014  06:24:00     -508.542     -133.355      -21.818      247.838      201.221       97.738    61423.849    40489.830     9552.698       19.415        5.573      525.736      106.370        0.041      334.233        4.067      850.495
03/26/2014  06:25:00     -718.467      -75.480      -27.776      260.870      181.686      120.386    68053.183    33009.813    14492.855       31.909        5.778      722.420      135.015        0.035      334.201        4.012      850.460
03/26/2014  06:26:00     -591.110       27.438      -31.227      244.688      224.839       94.168    59872.434    50552.475     8867.566       23.519        5.965      591.746       94.003        0.025      334.223        4.050      850.423
03/26/2014  06:27:00     -349.404     -132.957      -17.546      200.482      190.912       92.103    40193.139    36447.452     8482.989       11.258        4.256      373.846       79.858        0.046      334.219        4.044      850.435
03/26/2014  06:28:00     -389.070       -4.852      -18.420      226.857      166.585       93.177    51464.056    27750.577     8681.952       11.980        4.395      389.100       96.591        0.062      334.204        4.019      850.454
03/26/2014  06:29:00     -591.082     -204.672      -10.202      269.693      199.867      111.126    72734.309    39946.804    12348.961       25.818        6.252      625.514      124.772        0.040      334.153        3.932      850.434
03/26/2014  06:30:00     -422.759     -191.477       -6.127      264.284      213.301      106.775    69846.078    45497.231    11400.908       17.106        6.337      464.100      130.963        0.080      334.174        3.969      850.426
03/26/2014  06:31:00     -536.607      -77.879      -18.889      221.516      203.894      100.997    49069.299    41572.639    10200.451       19.759        5.042      542.229       99.817        0.034      334.128        3.892      850.435
03/26/2014  06:32:00     -502.250       11.299      -20.408      243.984      131.161       85.760    59528.212    17203.139     7354.803       16.843        4.204      502.378      114.588        0.052      334.122        3.882      850.449
03/26/2014  06:33:00     -562.179     -171.992       -9.724      233.450      174.423       94.439    54499.081    30423.407     8918.694       21.976        4.692      587.900      113.462        0.037      334.166        3.956      850.459
03/26/2014  06:34:00     -407.370      -52.460      -15.789      200.891      156.800       77.193    40357.313    24586.134     5958.720       11.991        3.545      410.734       85.226        0.043      334.165        3.952      850.508
03/26/2014  06:35:00     -400.467      -35.301      -21.310      125.760      127.575       59.970    15815.585    16275.424     3596.400        9.887        1.784      402.020       55.710        0.019      334.179        3.976      850.558
03/26/2014  06:36:00     -473.169      100.204      -26.726      211.492      149.269       92.228    44728.679    22281.151     8505.945       15.506        3.776      483.663       92.812        0.037      334.173        3.967      850.575
03/26/2014  06:37:00     -542.824     -135.130      -35.162      177.586      173.728       85.425    31536.844    30181.517     7297.499       19.157        3.451      559.391       82.645        0.022      334.164        3.951      850.544
03/26/2014  06:38:00     -372.295      -88.032      -33.987      175.624      145.139       62.892    30843.760    21065.300     3955.400       10.168        2.793      382.562       45.945        0.014      334.160        3.946      850.510
03/26/2014  06:39:00     -592.235      -45.951      -35.108      187.825      227.052      105.671    35278.149    51552.637    11166.296       22.602        4.900      594.015      112.583        0.036      334.139        3.911      850.497
03/26/2014  06:40:00     -711.474     -107.355      -31.572      285.357      175.562       95.503    81428.540    30822.120     9120.830       32.002        6.069      719.527      108.655        0.023      334.134        3.902      850.501
03/26/2014  06:41:00     -447.003      -72.105      -35.914      172.781      137.275       83.986    29853.409    18844.335     7053.723       13.102        2.788      452.781       85.859        0.036      334.133        3.900      850.520
03/26/2014  06:42:00     -530.021       33.384      -38.359      205.245      110.340       79.986    42125.463    12174.833     6397.796       17.209        3.035      531.071       78.608        0.022      334.137        3.906      850.580
03/26/2014  06:43:00     -365.526     -105.422      -20.862      170.538      150.279       70.040    29083.308    22583.900     4905.571       10.085        2.829      380.425       64.937        0.029      334.113        3.868      850.621
03/26/2014  06:44:00     -454.625     -124.430      -10.152      253.060      151.579       85.628    64039.117    22976.060     7332.204       15.829        4.717      471.346       78.391        0.028      334.093        3.833      850.564
03/26/2014  06:45:00     -387.550      -35.437      -30.945      124.806      136.329       68.021    15576.587    18585.626     4626.895        9.559        1.939      389.166       48.445        0.015      334.091        3.830      850.566
03/26/2014  06:46:00     -445.036      -84.792      -22.601      161.153      162.042       74.176    25970.222    26257.551     5502.074       13.173        2.886      453.042       73.170        0.026      334.091        3.831      850.584
03/26/2014  06:47:00     -402.484      -48.391      -26.016      189.355      135.711       69.533    35855.176    18417.491     4834.781       11.205        2.955      405.383       78.289        0.037      334.100        3.845      850.619
03/26/2014  06:48:00     -373.789      -64.526       -9.202      182.298      131.699       71.165    33232.726    17344.666     5064.427        9.979        2.782      379.317       76.428        0.041      334.107        3.857      850.605
03/26/2014  06:49:00     -393.498       -2.689      -12.106      196.895      110.653       70.955    38767.462    12244.078     5034.584       10.551        2.802      393.507       80.982        0.042      334.107        3.858      850.607
03/26/2014  06:50:00     -222.791      -87.711       -3.732      193.138      124.913       77.940    37302.109    15603.299     6074.625        5.815        2.949      239.435       75.752        0.100      334.123        3.884      850.598
03/26/2014  06:51:00     -254.149      -49.135      -13.853      124.972      113.364       66.271    15618.015    12851.288     4391.898        5.002        1.643      258.855       66.077        0.065      334.122        3.884      850.594
03/26/2014  06:52:00     -331.480      -86.829       -6.339      171.214      169.047       76.904    29314.304    28576.732     5914.300        9.062        3.190      342.663       74.434        0.047      334.131        3.897      850.584
03/26/2014  06:53:00     -293.405     -119.229       -3.969      204.571      181.904       95.610    41849.374    33089.102     9141.258        9.218        4.204      316.705      100.013        0.100      334.185        3.988      850.605
03/26/2014  06:54:00     -296.270      -41.756        5.746      189.876      151.440       99.968    36052.774    22933.945     9993.666        7.925        3.449      299.198      103.629        0.120      334.223        4.049      850.641
03/26/2014  06:55:00     -286.009     -110.847        8.287      163.063      134.138       72.050    26589.478    17993.056     5191.248        7.196        2.489      306.738       65.928        0.046      334.199        4.010      850.650
03/26/2014  06:56:00     -305.995     -197.333       -0.164      168.086      117.406       78.519    28252.792    13784.280     6165.268        9.038        2.410      364.106       92.197        0.064      334.222        4.048      850.614
03/26/2014  06:57:00     -504.487     -267.470      -19.671      208.396      170.306       89.014    43429.001    29004.220     7923.491       20.338        4.018      571.005       92.483        0.026      334.216        4.038      850.558
03/26/2014  06:58:00     -357.371     -204.145       -1.201      208.736      188.443       84.829    43570.604    35510.838     7195.916       12.782        4.314      411.569      100.075        0.059      334.232        4.066      850.558
03/26/2014  06:59:00     -415.526     -298.737      -22.417      191.000      183.538       98.202    36481.182    33686.035     9643.544       17.109        3.991      511.767      103.196        0.041      334.261        4.112      850.527
03/26/2014  07:00:00     -568.316     -313.055      -31.589      205.513      193.505      110.609    42235.729    37444.003    12234.381       25.693        4.596      648.835      116.096        0.032      334.284        4.153      850.549
03/26/2014  07:01:00     -381.125     -279.211      -18.925      205.397      153.509       83.790    42188.028    23564.961     7020.795       14.816        3.639      472.456      101.562        0.046      334.324        4.220      850.531
03/26/2014  07:02:00     -246.746     -208.604      -18.744      154.050      128.120       73.104    23731.503    16414.851     5344.172        7.511        2.275      323.108       84.249        0.068      334.333        4.233      850.548
03/26/2014  07:03:00     -133.151      -74.040       12.183      120.021      106.377       71.875    14404.936    11316.037     5166.057        2.712        1.544      152.352       65.040        0.182      334.284        4.152      850.541
03/26/2014  07:04:00     -351.758      -59.260       -9.476      140.659      110.391       77.756    19784.949    12186.254     6046.024        8.267        1.901      356.715       75.407        0.045      334.264        4.118      850.566
03/26/2014  07:05:00     -210.238      -72.602       -6.878      195.335      156.430       77.607    38155.625    24470.336     6022.897        5.907        3.432      222.421       93.831        0.178      334.290        4.162      850.581
03/26/2014  07:06:00     -304.876     -145.520       -8.628      211.219      140.163       96.665    44613.298    19645.794     9344.037        9.389        3.680      337.824      111.272        0.108      334.325        4.221      850.569
03/26/2014  07:07:00     -419.506     -204.053       -4.104      216.546      161.037       88.610    46892.004    25932.853     7851.681       14.914        4.034      466.501       98.392        0.044      334.330        4.229      850.599
03/26/2014  07:08:00     -335.133     -125.694      -14.361      237.715      169.381       90.068    56508.542    28689.851     8112.333       11.080        4.666      357.929      109.198        0.093      334.320        4.213      850.589
03/26/2014  07:09:00     -323.280      -86.765       -4.916      184.063      147.453       79.436    33879.292    21742.333     6310.076        8.698        3.097      334.721       83.399        0.062      334.334        4.233      850.607
03/26/2014  07:10:00     -285.326      -73.324        7.709      197.068      157.307       81.476    38835.825    24745.393     6638.321        7.852        3.511      294.597       78.832        0.072      334.359        4.276      850.623
03/26/2014  07:11:00     -330.063     -166.040       11.286      192.791      177.525       84.578    37168.225    31515.236     7153.470       10.622        3.792      369.474       81.819        0.049      334.369        4.293      850.626
03/26/2014  07:12:00     -441.728     -129.299      -17.820      213.098      162.941       78.297    45410.938    26549.881     6130.450       14.511        3.905      460.262       70.817        0.024      334.423        4.383      850.616
03/26/2014  07:13:00     -265.231     -147.576       -1.688      204.896      141.115       73.798    41982.475    19913.441     5446.103        7.972        3.367      303.523       85.932        0.080      334.396        4.338      850.624
03/26/2014  07:14:00     -329.594      -72.787      -15.875      197.684      150.986       62.572    39078.861    22796.920     3915.234        8.997        3.290      337.536       60.825        0.032      334.393        4.332      850.629
03/26/2014  07:15:00     -267.857      -71.297      -12.251      134.378      123.371       64.131    18057.324    15220.330     4112.827        5.718        1.870      277.184       56.792        0.042      334.382        4.314      850.648
03/26/2014  07:16:00     -437.145     -104.147      -21.459      158.620      134.184       64.185    25160.339    18005.277     4119.744       12.483        2.364      449.380       66.594        0.022      334.386        4.321      850.641
03/26/2014  07:17:00     -462.453     -137.631      -21.026      194.328      150.903       84.121    37763.425    22771.758     7076.383       15.042        3.381      482.498       92.087        0.036      334.385        4.318      850.610
03/26/2014  07:18:00     -410.445      -54.861      -29.983      175.523      133.351       73.027    30808.333    17782.383     5333.003       11.314        2.696      414.096       71.697        0.030      334.358        4.276      850.586
03/26/2014  07:19:00     -381.125      -80.583      -17.755      170.266      145.298       70.171    28990.361    21111.553     4923.986       10.353        2.751      389.551       77.691        0.040      334.356        4.271      850.557
03/26/2014  07:20:00     -410.672      -60.525      -10.588      168.491      115.832       72.248    28389.105    13417.084     5219.769       10.972        2.351      415.109       80.954        0.038      334.393        4.333      850.563
03/26/2014  07:21:00     -414.413      -40.014      -23.972      155.021      111.929       81.669    24031.560    12528.142     6669.758       10.856        2.161      416.340       87.810        0.044      334.408        4.358      850.593
03/26/2014  07:22:00     -375.069      -74.540        0.159      224.741      211.838       93.183    50508.596    44875.175     8683.046       12.513        5.203      382.405      107.499        0.079      334.451        4.430      850.589
03/26/2014  07:23:00     -185.286      -79.784       -0.674      121.790      108.984       63.406    14832.804    11877.492     4020.315        3.571        1.537      201.733       69.792        0.120      334.470        4.462      850.597
03/26/2014  07:24:00     -124.884      -46.437        4.795      122.176       94.141       70.338    14926.994     8862.559     4947.406        2.325        1.437      133.238       53.343        0.160      334.490        4.495      850.576
03/26/2014  07:25:00     -232.646     -131.817        9.871      146.870      143.031       84.648    21570.806    20457.755     7165.245        6.039        2.460      267.395       87.301        0.107      334.504        4.517      850.560
03/26/2014  07:26:00     -234.225      -24.575        0.475      163.242      136.673       76.467    26648.065    18679.616     5847.156        5.331        2.559      235.510       88.904        0.143      334.562        4.612      850.559
03/26/2014  07:27:00     -287.418      -78.788       -8.383      168.484       99.240       64.609    28386.961     9848.539     4174.293        6.564        2.120      298.021       79.300        0.071      334.611        4.693      850.551
03/26/2014  07:28:00     -248.270      -36.791       -1.070      211.578       82.770       62.467    44765.087     6850.931     3902.153        5.924        2.776      250.982       85.403        0.116      334.652        4.764      850.556
03/26/2014  07:29:00     -234.254      -46.356       -3.400      195.040      119.219       83.179    38040.771    14213.201     6918.701        5.809        2.959      238.797       96.012        0.162      334.602        4.678      850.541
03/26/2014  07:30:00     -287.127      -69.729       -6.514      171.607      119.690       78.307    29449.038    14325.586     6132.026        6.862        2.495      295.473       88.878        0.090      334.578        4.638      850.557
03/26/2014  07:31:00     -330.766      -47.949      -11.790      188.551      122.903       90.784    35551.541    15105.028     8241.649        8.536        2.945      334.223       93.961        0.079      334.582        4.645      850.537
03/26/2014  07:32:00     -330.535     -160.139      -20.350      238.412      185.912      106.768    56840.415    34563.114    11399.304       11.904        5.140      367.285      122.347        0.111      334.561        4.611      850.580
03/26/2014  07:33:00     -357.766     -140.659      -21.673      185.128      154.102       74.771    34272.538    23747.554     5590.776       10.592        3.181      384.424       62.636        0.027      334.517        4.538      850.596
03/26/2014  07:34:00     -390.770      -88.683       -5.256      214.855      185.416       90.190    46162.602    34379.016     8134.156       12.462        4.434      400.706       97.441        0.059      334.494        4.502      850.605
03/26/2014  07:35:00     -389.573       10.721      -11.321      155.453      130.579       59.816    24165.636    17050.822     3577.912        9.839        2.240      389.720       52.097        0.018      334.477        4.472      850.585
03/26/2014  07:36:00     -572.403     -150.181      -50.378      334.216      168.762       99.059   111700.171    28480.551     9812.625       25.134        7.500      591.776      111.277        0.035      334.490        4.494      850.587
03/26/2014  07:37:00     -466.243      -39.683      -23.784      284.850      172.241       83.969    81139.772    29667.073     7050.792       16.867        5.893      467.929      123.287        0.069      334.502        4.514      850.566
03/26/2014  07:38:00     -453.062      -61.308      -10.396      182.013      149.846       77.810    33128.839    22453.711     6054.380       13.537        3.082      457.191       87.442        0.037      334.503        4.515      850.555
03/26/2014  07:39:00     -404.502     -141.659       -7.716      241.645      195.254       93.562    58392.389    38123.946     8753.897       14.449        5.264      428.590      100.104        0.055      334.511        4.530      850.560
03/26/2014  07:40:00     -446.028     -118.553      -23.888      173.420      126.980       76.034    30074.414    16124.018     5781.099       13.276        2.599      461.515       70.388        0.023      334.491        4.495      850.580
03/26/2014  07:41:00     -205.734      -56.825        9.332      131.333      113.214       80.659    17248.446    12817.419     6505.906        4.110        1.829      213.438       77.889        0.133      334.510        4.529      850.578
03/26/2014  07:42:00     -240.080      -37.846      -14.434      175.875      161.829       89.710    30932.129    26188.691     8047.879        6.221        3.258      243.044       90.618        0.139      334.473        4.466      850.557
03/26/2014  07:43:00     -277.583      -30.118        2.276      140.462      129.701       70.464    19729.708    16822.389     4965.121        5.973        2.076      279.212       68.509        0.060      334.449        4.426      850.575
03/26/2014  07:44:00     -250.634      -92.168       -2.098      172.893      152.854       64.844    29892.161    23364.369     4204.691        6.438        2.873      267.044       89.244        0.112      334.469        4.459      850.593
03/26/2014  07:45:00     -315.234     -126.915        5.620      233.535      153.554       98.867    54538.377    23578.945     9774.658       10.168        4.395      339.823      107.073        0.099      334.490        4.495      850.601
03/26/2014  07:46:00     -375.168     -182.000      -31.323      222.369      170.847       89.256    49447.802    29188.655     7966.571       13.071        4.330      416.983       99.723        0.057      334.461        4.445      850.623
03/26/2014  07:47:00     -276.530     -137.025       -1.445      181.946      177.709       79.331    33104.493    31580.622     6293.342        8.310        3.549      308.617       80.129        0.067      334.453        4.432      850.598
03/26/2014  07:48:00     -461.815     -235.648       -7.977      253.593      209.027      108.476    64309.160    43692.447    11766.944       19.429        5.988      518.462      129.740        0.063      334.461        4.446      850.594
03/26/2014  07:49:00     -530.567     -167.791      -51.826      236.466      155.106       72.629    55915.942    24057.905     5274.976       19.878        4.262      556.466       96.497        0.030      334.455        4.435      850.615
03/26/2014  07:50:00     -345.939     -132.956       -9.372      241.609      165.695       81.646    58374.807    27454.675     6666.081       11.495        4.625      370.609       99.026        0.071      334.457        4.440      850.613
03/26/2014  07:51:00     -303.468     -170.849       -6.083      199.995      129.710       69.384    39997.923    16824.671     4814.143        9.147        3.082      348.256       87.565        0.063      334.462        4.448      850.638
03/26/2014  07:52:00     -208.043     -157.665       -3.862      144.098      101.797       67.343    20764.094    10362.596     4535.096        5.190        1.783      261.037       66.156        0.064      334.481        4.480      850.635
03/26/2014  07:53:00     -305.674      -50.524        2.063      168.202      161.217       78.273    28291.817    25991.069     6126.611        7.819        3.020      309.821       78.948        0.065      334.440        4.410      850.606
03/26/2014  07:54:00     -408.163      -47.065       -8.699      229.822      163.198       93.443    52817.997    26633.541     8731.600       12.852        4.409      410.867      110.008        0.072      334.420        4.380      850.578
03/26/2014  07:55:00     -301.874      -64.444        5.673      153.600      144.902       68.906    23592.988    20996.516     4748.081        7.232        2.467      308.676       49.213        0.025      334.446        4.421      850.584
03/26/2014  07:56:00     -435.920     -153.276       -5.651      242.760      219.331       86.460    58932.349    48106.213     7475.254       16.401        5.726      462.082       96.855        0.044      334.432        4.398      850.626
03/26/2014  07:57:00     -272.843     -138.990       -9.481      129.946      131.283       66.361    16885.843    17235.145     4403.826        6.618        1.926      306.205       69.660        0.052      334.445        4.419      850.649
03/26/2014  07:58:00     -273.225     -124.837       -2.077      179.933      136.540       71.483    32375.789    18643.256     5109.753        7.317        2.806      300.393       77.193        0.066      334.428        4.391      850.630
03/26/2014  07:59:00     -464.901     -110.868      -12.780      209.863      179.614       86.260    44042.430    32261.032     7440.846       15.615        4.187      477.938       96.148        0.040      334.413        4.366      850.612
03/26/2014  08:00:00     -342.843     -140.138      -27.899      177.627      166.153       87.296    31551.414    27606.730     7620.611       10.235        3.339      370.378       90.416        0.060      334.441        4.413      850.613
03/26/2014  08:01:00     -409.061      -68.715       -7.742      265.577      156.892      101.060    70530.899    24615.042    10213.212       13.872        5.268      414.792      115.479        0.078      334.423        4.384      850.672
03/26/2014  08:02:00     -334.882     -147.572      -12.729      178.663      183.059      101.274    31920.609    33510.449    10256.439       10.487        3.784      365.956       95.021        0.067      334.454        4.434      850.702
03/26/2014  08:03:00     -463.779     -143.955      -18.699      178.048      154.957       78.300    31701.049    24011.708     6130.816       14.899        3.092      485.606       69.660        0.021      334.477        4.472      850.703
03/26/2014  08:04:00     -247.814     -180.460      -14.999      155.760      112.504       76.660    24261.200    12657.192     5876.757        6.849        2.140      306.558       77.415        0.064      334.488        4.491      850.727
03/26/2014  08:05:00     -469.085      -62.097      -25.353      213.096      186.400       79.996    45409.994    34744.872     6399.421       15.553        4.328      473.177       89.055        0.035      334.412        4.365      850.715
03/26/2014  08:06:00     -316.520      -53.762        0.816      204.540      125.514       81.221    41836.722    15753.889     6596.906        8.362        3.209      321.054       93.841        0.085      334.438        4.409      850.704
03/26/2014  08:07:00     -371.870      -77.371       -9.464      183.101      118.294       79.060    33525.924    13993.544     6250.468        9.906        2.688      379.834       93.261        0.060      334.427        4.389      850.712
03/26/2014  08:08:00     -333.037     -175.420        5.315      222.050      151.271      105.219    49306.192    22882.938    11071.066       11.247        4.163      376.412      124.284        0.109      334.440        4.410      850.731
03/26/2014  08:09:00     -253.342     -160.938        8.860      174.679      204.460      103.427    30512.632    41804.075    10697.127        8.657        4.151      300.139      110.858        0.136      334.445        4.419      850.724
03/26/2014  08:10:00     -399.115     -193.872       -6.419      239.523      130.091       95.193    57371.131    16923.673     9061.627       14.012        4.168      443.711      114.822        0.067      334.413        4.367      850.753
03/26/2014  08:11:00     -470.966     -177.371      -22.709      193.741      195.591       91.998    37535.681    38255.675     8463.575       16.900        4.213      503.259       91.141        0.033      334.421        4.380      850.762
03/26/2014  08:12:00     -391.234     -143.705      -18.264      191.391      137.822       91.476    36630.379    18994.805     8367.789       11.901        3.200      416.791       88.816        0.045      334.468        4.458      850.797
03/26/2014  08:13:00     -502.558      -69.684      -15.058      289.518      164.913      111.316    83820.609    27196.276    12391.250       19.050        6.170      507.366      138.862        0.075      334.408        4.358      850.810
03/26/2014  08:14:00     -454.871     -242.908       -8.008      226.156      156.128      106.602    51146.336    24375.853    11363.906       17.641        4.344      515.666      108.592        0.044      334.395        4.337      850.810
03/26/2014  08:15:00     -382.503     -173.362      -18.196      173.699      174.065      105.265    30171.495    30298.793    11080.750       12.411        3.578      419.956       96.005        0.052      334.405        4.353      850.825
03/26/2014  08:16:00     -344.944      -47.796       -1.977      216.252      147.473       78.971    46765.053    21748.299     6236.345        9.800        3.737      348.239       88.572        0.065      334.411        4.363      850.801
03/26/2014  08:17:00     -214.830      -93.313       12.718      179.916      158.746       91.565    32369.811    25200.356     8384.198        6.047        3.298      234.220       99.744        0.181      334.497        4.505      850.803
03/26/2014  08:18:00     -419.768     -131.820      -30.122      205.224      133.516       83.117    42117.032    17826.594     6908.394       13.066        3.343      439.979       90.613        0.042      334.415        4.370      850.828
03/26/2014  08:19:00     -128.448     -100.339       10.017      162.598      122.042       82.861    26438.118    14894.272     6865.987        3.742        2.410      162.993       97.914        0.361      334.513        4.532      850.850
03/26/2014  08:20:00     -271.866     -189.715      -11.351      189.057      127.968       71.319    35742.425    16375.703     5086.380        8.361        2.860      331.516       80.812        0.059      334.459        4.443      850.837
03/26/2014  08:21:00     -358.628     -211.387       -5.763      181.567      147.212       80.229    32966.700    21671.308     6436.627       11.719        3.054      416.291       87.057        0.044      334.440        4.411      850.811
03/26/2014  08:22:00     -361.906     -237.519      -17.532      205.428      126.350       78.030    42200.542    15964.400     6088.720       12.596        3.213      432.887       83.515        0.037      334.469        4.460      850.796
03/26/2014  08:23:00     -496.927     -191.833      -25.958      221.831      149.996       91.925    49209.208    22498.664     8450.283       18.227        4.008      532.669       95.628        0.032      334.479        4.475      850.760
03/26/2014  08:24:00     -352.017     -160.459      -14.141      160.168      155.563       86.616    25653.825    24199.837     7502.371       10.360        2.868      386.863       76.338        0.039      334.546        4.587      850.738
03/26/2014  08:25:00     -488.842     -203.857      -10.309      218.200      200.979       87.221    47611.118    40392.629     7607.489       18.810        4.781      529.645       94.475        0.032      334.504        4.516      850.718
03/26/2014  08:26:00     -413.019     -186.347      -11.906      233.358      163.553       92.702    54455.727    26749.443     8593.576       14.761        4.490      453.111       94.851        0.044      334.527        4.556      850.690
03/26/2014  08:27:00     -369.225     -191.126       -8.711      208.347      188.427       86.436    43408.510    35504.581     7471.125       12.964        4.319      415.760       90.053        0.047      334.577        4.637      850.663
03/26/2014  08:28:00     -580.438     -347.465      -40.152      262.103      186.786      110.249    68697.941    34888.875    12154.884       28.747        5.787      676.491      131.288        0.038      334.524        4.550      850.639
03/26/2014  08:29:00     -559.271     -267.186      -48.374      209.954      204.229       94.114    44080.807    41709.454     8857.519       24.056        4.732      619.817      105.993        0.029      334.582        4.643      850.608
03/26/2014  08:30:00     -267.653      -90.687       -8.724      170.479      119.741       71.239    29063.095    14337.879     5075.009        6.420        2.424      282.599       70.544        0.062      334.649        4.757      850.640
03/26/2014  08:31:00     -345.963      -38.523        6.872      246.628      155.998       85.964    60825.134    24335.504     7389.765       10.687        4.628      348.101      110.162        0.100      334.645        4.751      850.637
03/26/2014  08:32:00     -291.693     -209.776      -10.636      231.797      170.637      101.456    53729.694    29117.098    10293.249       11.115        4.657      359.292      118.560        0.109      334.634        4.732      850.635
03/26/2014  08:33:00     -197.081      -64.006       -3.623      139.254      154.799       86.841    19391.661    23962.863     7541.349        4.691        2.545      207.214       71.364        0.119      334.709        4.857      850.619
03/26/2014  08:34:00     -363.158      -91.740      -14.240      211.753      174.161       83.856    44839.265    30332.149     7031.808       11.134        4.110      374.566       94.097        0.063      334.685        4.817      850.648
03/26/2014  08:35:00     -212.415       18.799       16.784      168.438      105.309       75.318    28371.386    11089.971     5672.838        4.544        2.257      213.245       74.759        0.123      334.748        4.922      850.686
03/26/2014  08:36:00     -425.029     -185.040      -14.555      213.352      168.781      110.830    45518.908    28487.046    12283.211       15.068        4.314      463.561      110.988        0.057      334.613        4.696      850.665
03/26/2014  08:37:00     -511.843      -53.924      -26.436      229.039      180.831       92.445    52459.057    32699.785     8546.076       17.963        4.685      514.676      101.526        0.039      334.604        4.682      850.673
03/26/2014  08:38:00     -407.656     -115.984      -23.256      229.366      180.157       99.463    52608.550    32456.526     9892.845       13.755        4.748      423.835      106.970        0.064      334.673        4.797      850.700
03/26/2014  08:39:00     -482.512     -306.902       -8.303      220.865      233.570      113.181    48781.482    54554.752    12809.933       22.159        5.807      571.845      121.969        0.045      334.615        4.700      850.746
03/26/2014  08:40:00     -471.459     -276.850      -15.564      211.931      186.274      101.266    44914.692    34698.042    10254.862       19.450        4.493      546.735       89.001        0.026      334.608        4.689      850.774
03/26/2014  08:41:00     -361.054     -113.568       -7.256      213.074      135.777       75.345    45400.583    18435.347     5676.935       10.640        3.476      378.494       79.954        0.045      334.640        4.743      850.824
03/26/2014  08:42:00     -264.541     -124.024        9.411      191.943      175.732       79.515    36842.053    30881.721     6322.713        7.973        3.702      292.171       98.026        0.113      334.734        4.899      850.824
03/26/2014  08:43:00     -474.263     -140.677       -4.352      288.388      220.929      118.031    83167.704    48809.582    13931.326       19.529        7.295      494.687      122.075        0.061      334.680        4.807      850.793
03/26/2014  08:44:00     -413.313     -101.898      -19.604      231.027      162.048       89.338    53373.519    26259.576     7981.296       13.459        4.381      425.688      108.808        0.065      334.685        4.818      850.832
03/26/2014  08:45:00     -373.479      -52.527      -24.405      145.886      143.136       78.004    21282.639    20487.786     6084.626        9.534        2.393      377.155       78.026        0.043      334.734        4.898      850.848
03/26/2014  08:46:00     -338.579     -102.081      -20.730      157.913      164.985       82.980    24936.632    27220.160     6885.607        9.225        2.952      353.633       73.101        0.043      334.793        4.998      850.868
03/26/2014  08:47:00     -304.490      -99.519        2.410      167.450      170.153       73.702    28039.582    28952.125     5431.930        8.251        3.121      320.341       73.733        0.053      334.830        5.058      850.892
03/26/2014  08:48:00     -585.308      -89.089      -47.682      161.586      138.267       78.231    26110.126    19117.838     6120.057       20.206        2.567      592.049       84.843        0.021      334.728        4.888      850.876
03/26/2014  08:49:00     -400.854      -71.015       -9.932      163.210      126.351       78.592    26637.597    15964.480     6176.640       10.729        2.439      407.096       86.377        0.045      334.793        4.995      850.881
03/26/2014  08:50:00     -422.801     -114.181      -16.028      296.959      141.292       98.291    88184.853    19963.504     9661.181       15.491        5.890      437.947      128.344        0.086      334.823        5.047      850.870
03/26/2014  08:51:00     -345.607      -88.544        2.155      205.872      184.608       89.474    42383.338    34080.281     8005.511       10.586        4.223      356.769      103.565        0.084      334.844        5.081      850.861
03/26/2014  08:52:00     -378.077     -249.492       -2.614      278.453      237.369      125.999    77535.937    56344.061    15875.773       17.745        7.488      452.977      144.632        0.102      334.772        4.961      850.837
03/26/2014  08:53:00     -303.219     -145.893        2.354      242.552      137.840      100.503    58831.651    18999.918    10100.805       10.056        4.397      336.491      115.825        0.118      334.804        5.015      850.917
03/26/2014  08:54:00     -588.101     -197.501      -19.225      245.115      189.844       90.878    60081.343    36040.763     8258.852       24.479        5.219      620.378      105.543        0.029      334.726        4.884      850.905
03/26/2014  08:55:00     -416.309     -135.956      -18.443      168.940      180.192       83.370    28540.816    32469.331     6950.477       13.004        3.398      437.947       87.326        0.040      334.804        5.015      850.946
03/26/2014  08:56:00     -445.891     -163.205      -13.896      194.562      163.819       89.314    37854.454    26836.824     7976.951       14.914        3.633      474.820       98.549        0.043      334.823        5.046      850.942
03/26/2014  08:57:00     -406.395     -104.640       -7.171      256.926      167.883       90.297    66010.725    28184.557     8153.477       13.923        5.117      419.650      107.161        0.065      334.861        5.111      850.942
03/26/2014  08:58:00     -461.706     -257.315      -10.543      191.910      181.073       92.109    36829.360    32787.450     8484.124       17.878        3.905      528.567       87.573        0.027      334.810        5.025      850.906
03/26/2014  08:59:00     -415.896     -144.346        0.260      295.841      219.886      118.314    87521.863    48349.643    13998.134       17.181        7.493      440.233      134.864        0.094      334.849        5.090      850.941
03/26/2014  09:00:00     -273.314     -110.119       21.964      171.046      133.052       86.695    29256.883    17702.823     7516.095        7.088        2.724      294.663       78.680        0.071      334.836        5.070      850.997
03/26/2014  09:01:00     -335.652      -79.597       -4.094      191.263      144.027       82.702    36581.380    20743.751     6839.619        9.158        3.208      344.961       87.015        0.064      334.905        5.184      851.006
03/26/2014  09:02:00     -358.291     -118.756      -26.015      142.988      138.282       73.656    20445.546    19122.009     5425.222        9.406        2.250      377.459       63.511        0.028      334.873        5.130      851.038
03/26/2014  09:03:00     -267.045      -29.836       -6.605      172.805      121.056       74.654    29861.669    14654.497     5573.287        6.116        2.504      268.707       84.155        0.098      334.978        5.306      851.092
03/26/2014  09:04:00     -319.122      -93.053      -16.836      174.465       88.696       66.786    30438.179     7866.950     4460.388        7.676        2.138      332.412       74.105        0.050      334.798        5.005      851.099
03/26/2014  09:05:00     -321.432       35.393       -9.272      147.112      121.543       83.610    21642.016    14772.768     6990.573        7.402        2.170      323.374       85.621        0.070      334.894        5.165      851.099
03/26/2014  09:06:00     -564.831      -41.244      -22.386      190.838      138.619       77.499    36419.192    19215.199     6006.086       19.143        3.082      566.335       82.927        0.021      334.838        5.070      851.099
03/26/2014  09:07:00     -380.363     -114.260      -15.582      229.012      189.897       79.797    52446.564    36061.010     6367.509       12.641        4.744      397.154       92.531        0.054      334.878        5.138      851.108
03/26/2014  09:08:00     -356.907     -217.515       -5.241      240.415      173.159      103.652    57799.596    29984.033    10743.662       13.661        4.926      417.966      119.900        0.082      334.860        5.109      851.094
03/26/2014  09:09:00     -249.421     -119.856       21.371      234.853      171.749      104.165    55156.099    29497.637    10850.392        8.625        4.775      276.725      111.590        0.163      334.941        5.244      851.090
03/26/2014  09:10:00     -388.583     -181.314       -3.111      298.852      164.206      106.320    89312.744    26963.615    11303.858       15.571        6.379      428.803      121.361        0.080      334.936        5.234      851.084
03/26/2014  09:11:00     -477.972      -20.163      -21.917      228.876      158.316      101.941    52384.062    25063.909    10391.920       15.857        4.392      478.397      111.089        0.054      334.946        5.250      851.106
03/26/2014  09:12:00     -231.741     -153.215       20.969      220.685      166.656      102.338    48701.669    27774.216    10473.141        8.227        4.347      277.811      110.370        0.158      334.952        5.262      851.143
03/26/2014  09:13:00     -324.535     -260.827       -3.673      216.015      161.538      105.976    46662.340    26094.580    11231.009       12.866        4.199      416.358      121.460        0.085      334.993        5.331      851.140
03/26/2014  09:14:00     -300.963      -65.012       -8.678      149.246       94.491       69.417    22274.490     8928.492     4818.770        6.544        1.801      307.905       74.258        0.058      335.053        5.430      851.107
03/26/2014  09:15:00     -333.569     -139.056       -9.682      211.479      184.442       83.148    44723.270    34018.745     6913.585       10.816        4.283      361.393       77.745        0.046      335.041        5.411      851.081
03/26/2014  09:16:00     -363.909     -271.163       -9.646      218.160      184.984      116.943    47593.829    34218.984    13675.591       15.075        4.774      453.827      116.345        0.066      335.078        5.472      851.010
03/26/2014  09:17:00     -510.896     -343.651      -20.545      191.468      165.919      110.697    36659.809    27528.970    12253.809       22.797        3.822      615.720      105.185        0.029      335.044        5.415      851.035
03/26/2014  09:18:00     -334.635     -217.638       -9.120      173.254      158.555       77.723    30016.886    25139.715     6040.931       11.030        3.060      399.183       78.239        0.038      335.029        5.391      851.087
03/26/2014  09:19:00      -97.376      -52.955       15.418      125.477       79.211       47.549    15744.381     6274.393     2260.945        1.840        1.214      110.844       45.558        0.169      335.353        5.930      851.079
03/26/2014  09:20:00      -86.784      -14.437       -4.026       77.680       54.660       35.682     6034.117     2987.722     1273.203        0.902        0.515       87.976       28.716        0.107      335.277        5.804      851.052
03/26/2014  09:21:00      -11.489     -136.171       11.315       78.364       72.667       34.166     6140.866     5280.451     1167.292        1.569        0.629      136.654       15.473        0.013      335.235        5.733      851.038
03/26/2014  09:22:00     -127.353      -83.800        9.684      128.604       88.540       63.547    16539.063     7839.363     4038.252        2.587        1.421      152.451       74.374        0.238      335.419        6.038      851.028
03/26/2014  09:23:00     -213.409     -117.710      -21.146      139.002       77.367       56.734    19321.633     5985.697     3218.735        4.418        1.426      243.719       60.217        0.061      335.103        5.511      851.049
03/26/2014  09:24:00     -227.863     -149.086        3.286      188.985      150.967       79.585    35715.196    22791.026     6333.769        6.949        3.242      272.302       99.524        0.134      335.316        5.866      851.007
03/26/2014  09:25:00     -259.168     -150.221       -2.221      171.556      114.181       62.491    29431.614    13037.325     3905.181        6.805        2.319      299.557       66.906        0.050      335.203        5.679      851.020
03/26/2014  09:26:00     -263.219     -258.172        0.818      223.262      157.801       75.772    49846.000    24901.197     5741.396       10.820        4.024      368.696       86.590        0.055      335.169        5.623      851.026
03/26/2014  09:27:00     -508.348     -226.111      -34.039      235.901      264.289      106.517    55649.066    69848.878    11345.798       22.375        6.842      556.367      118.757        0.046      335.021        5.377      851.044
03/26/2014  09:28:00     -246.829     -176.976       -0.754      200.916      143.017       75.386    40367.159    20453.969     5683.046        7.936        3.325      303.718       68.359        0.051      335.008        5.355      851.054
03/26/2014  09:29:00     -200.801     -169.426      -18.080      129.502      134.337       56.345    16770.897    18046.359     3174.747        5.367        1.900      262.729       39.137        0.022      335.115        5.534      851.024
03/26/2014  09:30:00     -139.364      -52.458       10.478      139.223       88.930       63.126    19383.086     7908.546     3984.840        2.677        1.564      148.910       75.107        0.254      335.320        5.874      851.044
03/26/2014  09:31:00      -80.404      -65.196       -7.774      120.397      124.863       78.474    14495.456    15590.884     6158.094        2.350        1.812      103.515       77.055        0.554      335.350        5.923      851.024
03/26/2014  09:32:00     -147.247      -84.518       -0.701      104.816      114.705       62.185    10986.315    13157.274     3866.988        2.841        1.401      169.779       55.447        0.107      335.187        5.653      851.006
03/26/2014  09:33:00      -68.123      -59.497        6.990       62.522       58.773       40.530     3909.048     3454.303     1642.698        0.862        0.450       90.447       34.822        0.148      335.337        5.903      850.978
03/26/2014  09:34:00     -197.227     -143.946      -17.246      144.778      129.576       54.205    20960.707    16790.028     2938.172        5.029        2.034      244.170       64.771        0.070      335.157        5.603      850.957
03/26/2014  09:35:00     -120.016      -45.512      -18.431       78.044      115.237       47.740     6090.843    13279.457     2279.073        1.923        1.082      128.355       21.684        0.029      335.250        5.756      850.900
03/26/2014  09:36:00     -441.992     -110.759      -19.929      152.790      128.736       79.616    23344.839    16572.974     6338.746       12.713        2.313      455.658       70.989        0.024      335.190        5.657      850.898
03/26/2014  09:37:00     -429.490      -23.811       -2.497      211.144      161.625       87.494    44581.882    26122.540     7655.172       13.168        3.918      430.149       98.095        0.052      335.220        5.706      850.874
03/26/2014  09:38:00     -148.108     -196.253       -0.735      170.584      141.802       78.355    29099.042    20107.675     6139.434        5.789        2.767      245.868       82.651        0.113      335.292        5.826      850.863
03/26/2014  09:39:00     -324.590     -279.682       -4.053      148.036      147.415       85.231    21914.694    21731.105     7264.386       11.724        2.546      428.463       74.284        0.030      335.238        5.736      850.882
03/26/2014  09:40:00     -337.414      -37.311       -3.367      212.466      183.434       80.242    45141.990    33647.951     6438.720       10.022        4.261      339.470       87.844        0.067      335.323        5.876      850.871
03/26/2014  09:41:00     -142.519     -113.118       10.648      160.531      132.248       64.899    25770.327    17489.433     4211.906        4.034        2.374      181.954       70.910        0.152      335.452        6.093      850.865
03/26/2014  09:42:00     -551.478     -269.060      -37.614      268.484      220.178       98.132    72083.405    48478.353     9629.894       25.404        6.510      613.613      115.248        0.035      335.255        5.765      850.839
03/26/2014  09:43:00     -458.505     -160.831      -20.274      213.101      213.412       94.725    45412.038    45544.664     8972.826       16.820        4.996      485.895      110.920        0.052      335.285        5.815      850.887
03/26/2014  09:44:00     -312.550      -76.119        6.485      180.466      178.459       95.621    32567.878    31847.690     9143.403        8.853        3.678      321.686       94.242        0.086      335.297        5.834      850.908
03/26/2014  09:45:00     -578.915     -118.887      -36.692      274.972      186.334       92.848    75609.508    34720.511     8620.679       23.476        5.948      590.997      111.037        0.035      335.204        5.680      850.896
03/26/2014  09:46:00     -375.626     -113.555      -24.686      215.829      144.783       88.653    46582.243    20961.974     7859.321       11.499        3.770      392.415       97.477        0.062      335.328        5.886      850.869
03/26/2014  09:47:00     -470.063     -209.258       -3.947      211.939      203.512       96.274    44918.035    41417.222     9268.747       18.016        4.780      514.536       91.088        0.031      335.231        5.723      850.872
03/26/2014  09:48:00     -364.847     -210.597      -21.595      165.386      128.833       73.747    27352.551    16597.930     5438.553       11.365        2.469      421.265       77.792        0.034      335.320        5.870      850.880
03/26/2014  09:49:00     -502.112      -63.069      -32.817      219.933      164.206       83.116    48370.345    26963.599     6908.256       16.969        4.112      506.057       95.513        0.036      335.370        5.954      850.889
03/26/2014  09:50:00     -235.626      -67.294       16.093      174.845      130.319       86.851    30570.747    16982.984     7543.110        5.769        2.755      245.048       89.361        0.133      335.580        6.306      850.884
03/26/2014  09:51:00     -450.867     -298.506      -10.014      216.009      154.875       90.583    46659.725    23986.213     8205.193       18.565        3.943      540.728      100.553        0.035      335.521        6.208      850.866
03/26/2014  09:52:00     -251.421     -201.316       11.961      190.074      157.943       91.001    36128.159    24945.878     8281.109        8.661        3.468      322.088      106.936        0.110      335.691        6.491      850.891
03/26/2014  09:53:00     -222.972     -145.480        9.933      186.909      137.952       98.169    34935.147    19030.787     9637.110        6.728        3.180      266.235       98.730        0.138      335.742        6.575      850.915
03/26/2014  09:54:00     -305.912     -175.455      -15.268      167.333      183.705       77.948    28000.185    33747.635     6075.874        9.620        3.391      352.657       53.939        0.023      335.620        6.372      850.960
03/26/2014  09:55:00     -421.058     -179.353      -11.801      177.611      149.738       77.118    31545.766    22421.477     5947.159       13.474        2.996      457.665       89.096        0.038      335.575        6.297      850.993
03/26/2014  09:56:00     -297.551     -201.579       -4.767      161.193      136.439       80.797    25983.088    18615.677     6528.205        9.015        2.556      359.403       78.470        0.048      335.685        6.480      851.001
03/26/2014  09:57:00     -180.250     -153.421        8.162      129.406      120.365       65.955    16746.019    14487.617     4350.039        4.583        1.779      236.703       66.957        0.080      335.847        6.751      851.041
03/26/2014  09:58:00      -20.219     -113.430       33.516      102.481      113.990       61.183    10502.331    12993.694     3743.414        2.081        1.362      115.218       51.189        0.197      335.994        6.997      851.075
03/26/2014  09:59:00     -110.599     -129.109       16.945      122.607      108.743       60.586    15032.486    11824.953     3670.718        2.985        1.526      170.004       67.926        0.160      336.093        7.161      851.112
03/26/2014  10:00:00     -231.922     -185.083        9.146      150.819      142.491       65.066    22746.424    20303.580     4233.521        6.770        2.364      296.721       66.932        0.051      335.848        6.753      851.146
03/26/2014  10:01:00     -147.058     -197.993       -9.437       99.946       83.334       54.176     9989.168     6944.593     2935.092        4.039        0.993      246.632       50.516        0.042      335.708        6.519      851.158
03/26/2014  10:02:00      -45.141     -116.258       -5.206       96.453       75.828       46.574     9303.241     5749.891     2169.104        1.640        0.861      124.714       18.441        0.022      335.995        6.998      851.145
03/26/2014  10:03:00      -40.873      -42.587        9.935       58.005       77.174       36.468     3364.539     5955.893     1329.898        0.711        0.533       59.028       33.705        0.326      336.177        7.303      851.139
03/26/2014  10:04:00      -65.268     -201.898       -2.386       78.023       88.081       46.390     6087.546     7758.332     2152.055        3.051        0.800      212.186       27.885        0.017      335.948        6.920      851.157
03/26/2014  10:05:00      -86.179     -192.766       -4.715       82.218      107.691       40.473     6759.772    11597.446     1638.078        3.230        1.000      211.153       32.468        0.024      335.944        6.913      851.173
03/26/2014  10:06:00     -348.232     -272.456       -4.275      196.837      136.066       82.183    38744.768    18513.890     6754.095       12.975        3.201      442.151      103.020        0.054      335.749        6.586      851.136
03/26/2014  10:07:00     -170.738     -186.318       14.725      153.140       96.542       59.803    23451.867     9320.291     3576.414        5.021        1.817      252.718       60.174        0.057      335.993        6.994      851.164
03/26/2014  10:08:00      -90.475      -84.361       26.114      153.175      111.778       82.435    23462.522    12494.248     6795.604        2.936        2.138      123.704       91.668        0.549      336.231        7.392      851.174
03/26/2014  10:09:00     -101.440       23.252       -6.740      107.098       89.939       40.843    11469.952     8089.078     1668.145        1.605        1.061      104.071       39.663        0.145      336.233        7.397      851.184
03/26/2014  10:10:00     -312.005      -20.375       -7.537      150.413      121.808       49.913    22624.177    14837.306     2491.315        6.888        1.998      312.669       50.908        0.027      335.987        6.981      851.179
03/26/2014  10:11:00     -172.617      -81.381        7.875      160.173       81.335       63.148    25655.249     6615.398     3987.656        3.636        1.813      190.839       73.144        0.147      335.986        6.984      851.197
03/26/2014  10:12:00      -66.541      -32.159       10.080       73.549       52.147       34.745     5409.492     2719.280     1207.236        0.745        0.467       73.905       32.236        0.190      336.047        7.087      851.202
03/26/2014  10:13:00     -154.878       14.842       -9.064       72.973       50.936       38.036     5325.044     2594.510     1446.774        1.683        0.468      155.587       33.723        0.047      336.152        7.261      851.199
03/26/2014  10:14:00     -151.731      -92.652        4.255       90.549       83.208       48.405     8199.070     6923.560     2343.064        2.454        0.873      177.783       42.872        0.058      336.226        7.383      851.186
03/26/2014  10:15:00     -142.683      -91.426        4.790       75.853       61.235       40.180     5753.747     3749.690     1614.438        1.993        0.556      169.461       36.116        0.045      336.253        7.431      851.206
03/26/2014  10:16:00      -35.597      -58.799        6.876       50.482       37.200       26.471     2548.440     1383.847      700.721        0.470        0.232       68.735       23.080        0.113      336.468        7.790      851.205
03/26/2014  10:17:00     -137.695      -57.555      -10.257       90.427       61.144       36.935     8177.032     3738.567     1364.217        1.783        0.664      149.240       35.009        0.055      336.098        7.169      851.197
03/26/2014  10:18:00      -85.266      -34.978        0.634       61.344       56.094       29.028     3763.133     3146.549      842.653        0.812        0.388       92.161       30.708        0.111      336.413        7.697      851.179
03/26/2014  10:19:00     -103.277      -17.856        4.798       55.081       36.517       36.996     3033.894     1333.493     1368.685        0.837        0.287      104.809       23.412        0.050      336.376        7.636      851.173
03/26/2014  10:20:00      -88.246     -117.237       -8.410       72.183       97.610       45.207     5210.398     9527.622     2043.629        1.919        0.839      146.737       41.589        0.080      336.380        7.643      851.201
03/26/2014  10:21:00      -52.369      -76.434        2.301       68.546       69.507       44.553     4698.592     4831.184     1984.994        1.005        0.576       92.654       23.140        0.062      336.520        7.877      851.229
03/26/2014  10:22:00      -63.566      -68.031        6.218       56.646       64.315       42.847     3208.761     4136.386     1835.828        0.894        0.459       93.106       41.744        0.201      336.218        7.373      851.244
03/26/2014  10:23:00      -29.627      -54.608        5.182       47.388       35.994       29.785     2245.613     1295.542      887.171        0.416        0.221       62.127       15.950        0.066      336.613        8.031      851.239
03/26/2014  10:24:00       12.143     -133.725      -17.669       77.803       67.532       38.710     6053.331     4560.550     1498.493        1.522        0.606      134.275       33.400        0.062      336.485        7.818      851.222
03/26/2014  10:25:00       92.722       30.316       56.152       71.794       58.283       51.549     5154.432     3396.876     2657.324        1.194        0.560       97.552       44.599        0.209      336.926        8.557      851.197
03/26/2014  10:26:00      107.248     -134.629       -4.003       65.645       87.781       57.168     4309.293     7705.447     3268.185        2.246        0.764      172.125       52.758        0.094      336.514        7.867      851.183
03/26/2014  10:27:00       34.490      -17.304       79.790       59.375      100.433       64.450     3525.360    10086.762     4153.828        1.281        0.888       38.587       61.056        2.504      336.986        8.657      851.153
03/26/2014  10:28:00       44.850      -14.513       31.419       67.270       94.083       48.248     4525.245     8851.584     2327.907        0.945        0.785       47.140       34.221        0.527      336.921        8.548      851.157
03/26/2014  10:29:00      122.267       29.616       60.806      110.271      104.479       66.462    12159.583    10915.844     4417.172        2.350        1.375      125.803       61.991        0.243      336.670        8.126      851.140
03/26/2014  10:30:00       60.065       53.853      116.665       90.104       98.721       73.380     8118.680     9745.792     5384.561        2.168        1.162       80.672       75.048        0.865      336.832        8.397      851.153
03/26/2014  10:31:00       95.007       71.685       88.222      130.013      156.007       70.786    16903.373    24338.075     5010.681        3.409        2.313      119.017       67.670        0.323      336.653        8.096      851.141
03/26/2014  10:32:00      121.849       77.349       68.282      117.496       66.842       64.111    13805.280     4467.816     4110.178        2.393        1.119      144.326       61.894        0.184      336.789        8.324      851.162
03/26/2014  10:33:00       98.765       45.092       61.944      113.792      100.212       59.073    12948.613    10042.369     3489.641        2.105        1.324      108.572       53.782        0.245      336.638        8.072      851.164
03/26/2014  10:34:00      136.530      142.432      132.279      141.587       75.740       75.677    20046.941     5736.559     5727.075        4.396        1.576      197.300       82.430        0.175      336.602        8.012      851.146
03/26/2014  10:35:00       67.876      107.960      126.691       82.221       92.530       72.162     6760.245     8561.791     5207.417        2.642        1.026      127.524       73.837        0.335      336.503        7.846      851.154
03/26/2014  10:36:00       37.748      106.452      116.847       78.236       92.908       72.548     6120.930     8631.887     5263.176        2.321        1.001      112.947       70.500        0.390      336.849        8.425      851.164
03/26/2014  10:37:00      140.937       84.783      129.933      110.320      130.483       84.832    12170.477    17025.878     7196.506        4.016        1.820      164.474       84.299        0.263      336.310        7.524      851.165
03/26/2014  10:38:00      150.956     -106.445       40.493      159.699      228.240      124.765    25503.882    52093.587    15566.430        6.444        4.658      184.711      159.684        0.747      336.429        7.724      851.171
03/26/2014  10:39:00       94.123        3.325      107.814      131.481      217.801      150.776    17287.222    47437.214    22733.382        5.396        4.373       94.182      175.357        3.467      336.411        7.694      851.172
03/26/2014  10:40:00      102.513     -201.482      -17.285      144.588       98.633       78.283    20905.548     9728.535     6128.222        4.408        1.838      226.062       72.930        0.104      336.379        7.638      851.215
03/26/2014  10:41:00      -19.606      -93.591       47.003       61.286       76.060       55.913     3756.010     5785.066     3126.229        1.201        0.633       95.622       37.388        0.153      336.706        8.188      851.241
03/26/2014  10:42:00      -12.466       36.420       98.136       33.203       62.356       32.641     1102.467     3888.295     1065.450        0.858        0.303       38.495       30.313        0.620      337.106        8.858      851.256
03/26/2014  10:43:00      -20.434      -41.822        1.960       48.769       71.083       45.130     2378.371     5052.811     2036.689        0.582        0.473       46.548       49.115        1.113      336.632        8.065      851.258
03/26/2014  10:44:00        3.954      -43.756       11.415       62.104       52.430       33.003     3856.859     2748.940     1089.231        0.488        0.385       43.934       17.991        0.168      336.700        8.176      851.245
03/26/2014  10:45:00       43.223       21.747       49.291       58.202       33.414       29.024     3387.435     1116.489      842.377        0.506        0.267       48.386       22.063        0.208      336.863        8.451      851.263
03/26/2014  10:46:00       -1.776      -94.049       14.246       64.388      122.654       48.962     4145.877    15043.984     2397.321        1.531        1.079       94.066       59.076        0.394      336.453        7.765      851.241
03/26/2014  10:47:00       64.092     -110.405       -2.321       67.581       70.534       54.250     4567.166     4975.022     2943.060        1.439        0.624      127.660       49.168        0.148      336.306        7.519      851.248
03/26/2014  10:48:00       36.860        0.446       64.026       69.264       81.630       58.744     4797.500     6663.450     3450.805        1.018        0.746       36.862       61.058        2.744      336.788        8.327      851.236
03/26/2014  10:49:00       81.104      -64.389       33.312       77.882      111.290       67.616     6065.628    12385.389     4571.948        1.742        1.151      103.556       75.160        0.527      336.527        7.888      851.247
03/26/2014  10:50:00       69.899      -33.967       45.733       88.369      121.320       72.171     7809.048    14718.585     5208.695        1.793        1.387       77.715       84.052        1.170      336.397        7.669      851.252
03/26/2014  10:51:00       84.400      -37.886       53.444       64.325       79.307       68.843     4137.767     6289.679     4739.423        1.329        0.758       92.513       59.840        0.418      336.332        7.562      851.256
03/26/2014  10:52:00       66.448       -5.942       75.163       68.525       80.193       68.979     4695.726     6430.968     4758.101        1.299        0.794       66.713       47.237        0.501      336.491        7.829      851.246
03/26/2014  10:53:00       62.313      -56.207       42.193       59.691      117.013       61.752     3563.034    13692.137     3813.324        1.494        1.053       83.917       66.063        0.620      336.410        7.693      851.259
03/26/2014  10:54:00       78.373      -94.639       12.939       61.010       91.098       56.515     3722.210     8298.816     3193.938        1.524        0.761      122.877       66.636        0.294      336.440        7.742      851.253
03/26/2014  10:55:00       41.874       52.120       76.015       44.900       46.941       47.105     2015.988     2203.466     2218.868        0.834        0.322       66.857       23.717        0.126      336.455        7.768      851.251
03/26/2014  10:56:00       50.160       50.355       61.154       52.636       51.208       27.298     2770.549     2622.306      745.172        0.746        0.307       71.075       21.253        0.089      336.379        7.642      851.260
03/26/2014  10:57:00       91.271       49.409       59.433       93.487       51.495       48.829     8739.775     2651.774     2384.287        1.404        0.689      103.787       42.223        0.166      336.544        7.917      851.244
03/26/2014  10:58:00       47.444       69.103       94.005       72.588       86.543       63.760     5268.954     7489.738     4065.362        1.634        0.841       83.822       69.514        0.688      336.557        7.938      851.206
03/26/2014  10:59:00      106.021       97.311       -3.369       68.551       60.552       35.837     4699.295     3666.559     1284.257        1.518        0.483      143.910       24.480        0.029      336.150        7.258      851.176
03/26/2014  11:00:00      119.215       63.049       -4.544       50.107       44.379       32.621     2510.685     1969.500     1064.136        1.188        0.277      134.861       20.360        0.023      336.062        7.111      851.145
03/26/2014  11:01:00       72.499       89.063       46.769       65.024       42.847       62.097     4228.093     1835.846     3856.057        1.265        0.496      114.841       41.685        0.132      336.393        7.663      851.121
03/26/2014  11:02:00       73.712       82.907       62.708       47.911       37.899       50.865     2295.416     1436.339     2587.246        1.128        0.316      110.938       29.006        0.068      336.208        7.354      851.132
03/26/2014  11:03:00       19.304       -8.286       34.510       34.015       81.537       28.378     1157.026     6648.237      805.335        0.512        0.431       21.007        5.446        0.067      336.714        8.200      851.118
03/26/2014  11:04:00       88.263      -99.129      -12.107       81.365       97.434       62.387     6620.279     9493.394     3892.199        1.888        1.000      132.729       73.643        0.308      336.595        8.001      851.081
03/26/2014  11:05:00       88.998      -34.406       60.911       67.797      140.149       79.376     4596.431    19641.812     6300.559        2.167        1.527       95.417       93.755        0.965      336.675        8.136      851.052
03/26/2014  11:06:00       38.963       59.460       87.335       75.909       92.923       57.316     5762.144     8634.709     3285.173        1.518        0.884       71.088       51.721        0.529      336.962        8.614      851.075
03/26/2014  11:07:00      115.895        4.031       27.710       76.825      153.423       58.322     5902.054    23538.698     3401.444        2.352        1.642      115.965       77.083        0.442      336.418        7.705      851.132
03/26/2014  11:08:00      107.118      -28.117       53.206       60.796      139.993       67.974     3696.111    19598.045     4620.408        2.150        1.396      110.747       86.561        0.611      336.595        7.999      851.159
03/26/2014  11:09:00       73.639       33.509       23.849       87.480       71.642       53.536     7652.780     5132.522     2866.131        1.138        0.783       80.904       38.541        0.227      336.500        7.844      851.165
03/26/2014  11:10:00      110.404       79.421       57.650       78.428       55.805       51.230     6151.029     3114.184     2624.468        1.685        0.594      136.003       38.793        0.081      336.416        7.703      851.137
03/26/2014  11:11:00      115.376       80.505       84.244       67.776       52.943       50.909     4593.607     2802.947     2591.743        1.844        0.499      140.686       42.870        0.093      336.312        7.529      851.097
03/26/2014  11:12:00       -0.602        8.199       20.790       41.682       44.006       29.905     1737.399     1936.492      894.291        0.253        0.228        8.221       23.641        8.270      336.760        8.279      851.098
03/26/2014  11:13:00      -11.253       40.925        9.938       37.449       43.692       33.252     1402.394     1908.968     1105.675        0.316        0.221       42.444       24.641        0.337      336.673        8.132      851.102
03/26/2014  11:14:00       18.200       19.075      -19.031       22.676       52.918       21.046      514.214     2800.310      442.953        0.241        0.188       26.365       17.506        0.441      336.487        7.822      851.104
03/26/2014  11:15:00      -16.685      -21.759        8.725       31.940       24.649       19.388     1020.178      607.559      375.905        0.142        0.100       27.420       16.265        0.352      336.868        8.459      851.097
03/26/2014  11:16:00      -33.252      -23.465       21.760       40.332       41.998       26.389     1626.667     1763.870      696.356        0.311        0.204       40.698       31.843        0.612      337.098        8.845      851.114
03/26/2014  11:17:00       68.364       68.580       50.836       45.362       29.210       36.022     2057.675      853.243     1297.595        0.808        0.210       96.834       24.055        0.062      336.526        7.885      851.113
03/26/2014  11:18:00       36.622       83.303       85.888       51.912       48.416       46.649     2694.903     2344.102     2176.155        1.143        0.361       90.998       38.384        0.178      336.568        7.957      851.121
03/26/2014  11:19:00       13.830       27.778       26.890       44.296       37.559       27.383     1962.102     1410.675      749.856        0.290        0.206       31.030       16.084        0.269      336.898        8.510      851.139
03/26/2014  11:20:00       -2.062       82.110       -4.098       30.814       57.351       28.430      949.472     3289.152      808.271        0.590        0.252       82.136       25.001        0.093      336.886        8.489      851.161
03/26/2014  11:21:00       47.292       70.246       21.427       61.681       40.151       34.367     3804.540     1612.094     1181.103        0.711        0.330       84.682       33.559        0.157      336.731        8.230      851.199
03/26/2014  11:22:00      132.142       82.742       16.217       54.453       48.446       44.865     2965.169     2347.062     2012.842        1.595        0.366      155.909       23.473        0.023      336.736        8.236      851.185
03/26/2014  11:23:00      222.521      164.773       26.305       66.307       53.844       48.901     4396.574     2899.220     2391.355        4.352        0.484      276.886       32.107        0.013      336.361        7.607      851.114
03/26/2014  11:24:00      138.793      112.257       38.606       82.214       71.673       58.800     6759.124     5137.085     3457.402        2.435        0.768      178.508       44.668        0.063      336.859        8.442      851.091
03/26/2014  11:25:00      148.330       82.542       20.783       60.095       52.430       49.343     3611.391     2748.855     2434.714        1.902        0.440      169.750       18.098        0.011      336.377        7.637      851.111
03/26/2014  11:26:00      161.437       80.854       21.395       62.306       65.042       59.825     3882.051     4230.521     3579.045        2.237        0.585      180.552       27.798        0.024      336.525        7.883      851.114
03/26/2014  11:27:00       46.546       85.588       87.561       81.750       80.345       74.154     6683.092     6455.302     5498.803        1.789        0.932       97.426       72.825        0.559      336.752        8.264      851.095
03/26/2014  11:28:00      119.141       97.087       64.757       68.954       63.156       65.944     4754.634     3988.666     4348.584        2.045        0.655      153.689       50.409        0.108      336.331        7.560      851.073
03/26/2014  11:29:00       71.721       59.085       -5.608       46.590       33.905       28.948     2170.648     1149.539      837.988        0.641        0.208       92.925       14.155        0.023      336.314        7.534      851.062
03/26/2014  11:30:00        7.460      151.641      -11.190      109.638      133.412       62.602    12020.514    17798.773     3918.982        2.845        1.687      151.824       69.787        0.211      336.853        8.431      851.044
03/26/2014  11:31:00       56.333      102.826       11.378      139.064       63.740       70.725    19338.843     4062.789     5002.033        2.113        1.420      117.246       66.020        0.317      337.064        8.786      851.009
03/26/2014  11:32:00      -89.374     -108.870        6.918      112.564      155.724       66.589    12670.678    24249.814     4434.113        3.061        2.068      140.856       51.511        0.134      337.146        8.921      850.979
03/26/2014  11:33:00     -180.669     -132.464        4.110      117.154       86.161       62.862    13725.174     7423.647     3951.662        3.765        1.255      224.027       59.980        0.072      336.908        8.523      850.946
03/26/2014  11:34:00      -97.056      -36.369      -12.512      112.266      109.348       52.703    12603.736    11957.008     2777.613        1.911        1.367      103.646       56.603        0.298      337.259        9.113      850.925
03/26/2014  11:35:00     -290.359       -4.096       -8.376      201.113      152.639       78.938    40446.584    23298.662     6231.187        7.717        3.499      290.387       84.880        0.085      337.221        9.047      850.943
03/26/2014  11:36:00     -308.975      -48.447       -6.719      176.550      123.972       65.706    31169.815    15369.041     4317.335        7.435        2.543      312.750       71.576        0.052      336.882        8.479      850.932
03/26/2014  11:37:00     -187.536       12.141       -6.196      117.286       84.077       62.448    13756.032     7069.018     3899.735        3.004        1.236      187.928       64.008        0.116      336.953        8.599      850.934
03/26/2014  11:38:00     -261.463      -99.593        6.023      139.318      119.329       69.496    19409.588    14239.502     4829.763        5.839        1.924      279.788       77.845        0.077      336.816        8.369      850.902
03/26/2014  11:39:00     -245.912      -57.166      -16.351      124.318      117.908       66.957    15454.956    13902.241     4483.237        4.892        1.692      252.469       59.253        0.055      337.007        8.688      850.888
03/26/2014  11:40:00     -104.162     -101.404       10.597      150.844      123.299       79.570    22754.019    15202.688     6331.411        3.276        2.214      145.370       84.970        0.342      337.301        9.180      850.893
03/26/2014  11:41:00     -197.525       20.807        2.496      160.234      104.693       68.420    25675.036    10960.525     4681.261        4.038        2.066      198.617       80.116        0.163      337.421        9.383      850.907
03/26/2014  11:42:00     -309.798      -51.649       -3.894      155.397      151.560       79.801    24148.109    22970.559     6368.154        7.606        2.674      314.074       95.121        0.092      337.205        9.019      850.902
03/26/2014  11:43:00     -375.378       23.437      -14.231      191.041      157.780       88.611    36496.570    24894.536     7851.950       10.544        3.462      376.109      103.833        0.076      336.763        8.279      850.896
03/26/2014  11:44:00     -281.780      -82.792      -22.218      179.502      112.718       67.555    32221.050    12705.353     4563.700        6.811        2.475      293.691       95.325        0.105      336.523        7.880      850.887
03/26/2014  11:45:00     -209.163      -15.602      -29.184       99.433       83.592       50.917     9886.854     6987.701     2592.572        3.215        0.973      209.744       41.351        0.039      336.879        8.474      850.868
03/26/2014  11:46:00     -148.780      -85.886       14.798      105.647       81.595       54.395    11161.225     6657.781     2958.803        2.525        1.039      171.790       44.837        0.068      337.292        9.166      850.899
03/26/2014  11:47:00        6.494      133.757       52.977      105.090      103.840      100.780    11043.860    10782.768    10156.555        2.635        1.599      133.914       54.538        0.166      337.358        9.277      850.800
03/26/2014  11:48:00      -38.924      -90.007       38.411       94.133      190.553       95.776     8860.975    36310.504     9172.991        3.271        2.717       98.063      118.409        1.458      337.855       10.110      850.717
03/26/2014  11:49:00       82.862     -304.925      -63.210      101.106       94.528       62.405    10222.463     8935.628     3894.418        6.344        1.153      315.983       53.158        0.028      337.138        8.906      850.823
03/26/2014  11:50:00      -42.775      -72.595       -4.967       96.504      130.270       50.204     9312.953    16970.347     2520.397        1.796        1.440       84.260       50.210        0.355      337.783        9.989      850.897
03/26/2014  11:51:00      -51.934      -61.961      -12.769       78.569       68.666       36.824     6173.138     4715.008     1356.003        0.947        0.612       80.847       25.443        0.099      337.717        9.880      850.916
03/26/2014  11:52:00     -156.278      -86.037       11.049      121.869       69.342       37.743    14851.982     4808.273     1424.551        2.651        1.054      178.396       52.543        0.087      337.452        9.433      850.942
03/26/2014  11:53:00     -276.174     -142.615        0.503      136.948      133.006       73.742    18754.886    17690.613     5437.837        6.924        2.094      310.823       76.085        0.060      337.197        9.007      851.007
03/26/2014  11:54:00     -338.335     -199.352       14.809      176.529      142.026       87.290    31162.381    20171.422     7619.504       10.668        2.948      392.698       92.493        0.055      336.898        8.506      850.996
03/26/2014  11:55:00     -274.508     -227.668        6.506      158.150      112.540       81.467    25011.460    12665.248     6636.911        8.576        2.216      356.633       89.798        0.063      336.981        8.646      850.999
03/26/2014  11:56:00     -317.288     -210.259       -7.547      179.806      141.372       80.640    32330.170    19986.047     6502.737       10.187        2.941      380.632      102.141        0.072      336.961        8.612      850.990
03/26/2014  11:57:00     -199.837     -253.922        5.870      127.229      118.042       66.920    16187.173    13933.919     4478.285        6.952        1.730      323.127       55.920        0.030      336.701        8.176      851.008
03/26/2014  11:58:00      -87.021     -217.341      -10.782       65.258      147.835       34.693     4258.585    21855.099     1203.627        4.112        1.366      234.115       31.529        0.018      336.771        8.294      850.986
03/26/2014  11:59:00      -96.506     -128.535        1.116       99.976       78.395       54.317     9995.111     6145.757     2950.380        2.246        0.955      160.732       53.821        0.112      337.045        8.753      850.963
03/26/2014  12:00:00      -81.366      -82.111       13.225       92.043       80.454       43.530     8471.958     6472.793     1894.843        1.519        0.842      115.597       47.262        0.167      337.202        9.017      850.936
03/26/2014  12:01:00     -291.003      -64.902        5.702      178.409      156.048       76.738    31829.835    24351.050     5888.748        7.549        3.103      298.153       99.162        0.111      337.360        9.279      850.905
03/26/2014  12:02:00     -134.865     -172.910       -4.451      117.647       91.050       60.850    13840.832     8290.173     3702.680        3.696        1.292      219.286       39.331        0.032      337.434        9.403      850.886
03/26/2014  12:03:00     -302.783     -265.528        0.590      191.033      155.612       76.198    36493.669    24214.971     5806.076       11.434        3.326      402.720       88.719        0.049      337.163        8.950      850.902
03/26/2014  12:04:00     -322.057     -253.430       12.462      170.125      168.928       96.885    28942.503    28536.755     9386.673       11.747        3.343      409.814       93.938        0.053      337.041        8.745      850.913
03/26/2014  12:05:00     -269.199     -257.956       -1.333      131.790       99.343       71.592    17368.625     9869.118     5125.348        8.568        1.618      372.839       65.746        0.031      337.060        8.776      850.942
03/26/2014  12:06:00     -135.893       24.324        9.697      111.557      111.536       68.721    12445.057    12440.373     4722.603        2.437        1.480      138.053       54.827        0.158      337.367        9.292      850.936
03/26/2014  12:07:00     -186.690       96.973       -6.805       86.492       61.212       43.803     7480.808     3746.927     1918.666        2.872        0.657      210.373       40.154        0.036      337.184        8.983      850.919
03/26/2014  12:08:00     -104.705      -39.423       -2.323       64.892       59.297       37.943     4211.007     3516.175     1439.659        1.084        0.458      111.881       36.217        0.105      337.451        9.433      850.890
03/26/2014  12:09:00     -160.037     -107.674       23.257      138.301      142.365       77.487    19127.213    20267.707     6004.234        4.156        2.270      192.887       87.334        0.205      337.518        9.546      850.870
03/26/2014  12:10:00     -392.387      -91.282      -15.470      177.293       84.606       52.956    31432.868     7158.094     2804.358       10.196        2.070      402.865       74.424        0.034      336.890        8.492      850.876
03/26/2014  12:11:00     -452.957      -76.148      -24.416      155.700      158.806       78.980    24242.461    25219.334     6237.765       13.362        2.785      459.314       62.657        0.019      336.939        8.572      850.846
03/26/2014  12:12:00     -440.519      -48.358      -23.272      158.645      131.283       75.683    25168.180    17235.296     5727.854       12.252        2.407      443.165       83.255        0.035      336.999        8.674      850.840
03/26/2014  12:13:00     -209.415     -103.291       17.963      167.565      109.752       70.483    28077.871    12045.480     4967.877        4.996        2.255      233.503       88.280        0.143      337.357        9.273      850.842
03/26/2014  12:14:00     -320.479     -157.290        4.201      250.180      179.699      101.506    62589.974    32291.828    10303.546       11.630        5.259      356.997      122.818        0.118      337.024        8.717      850.801
03/26/2014  12:15:00     -248.703      -13.619       -0.759      180.812      131.046       64.953    32692.839    17173.022     4218.918        5.805        2.704      249.076       81.163        0.106      337.320        9.212      850.819
03/26/2014  12:16:00     -346.517     -141.240      -15.440      227.469      176.112      104.209    51742.006    31015.554    10859.556       11.692        4.681      374.196      116.319        0.097      337.121        8.879      850.790
03/26/2014  12:17:00     -267.051       16.995      -14.199      145.419      119.959       67.123    21146.821    14390.129     4505.435        5.592        2.002      267.591       65.505        0.060      337.133        8.899      850.817
03/26/2014  12:18:00     -478.125     -134.774      -21.926      176.009      137.301       77.014    30979.270    18851.689     5931.224       15.149        2.788      496.757       81.638        0.027      336.837        8.404      850.823
03/26/2014  12:19:00     -480.791     -120.287      -18.738      169.585      160.341       79.019    28759.188    25709.343     6243.980       15.333        3.036      495.610       77.713        0.025      336.895        8.502      850.808
03/26/2014  12:20:00     -385.758     -149.224      -10.622      132.627      116.242       63.957    17589.884    13512.242     4090.499       10.318        1.760      413.615       68.436        0.027      336.903        8.516      850.834
03/26/2014  12:21:00     -457.023      -76.696      -37.390      157.989      135.233       69.011    24960.551    18288.047     4762.503       13.207        2.401      463.414       72.714        0.025      336.877        8.470      850.842
03/26/2014  12:22:00     -375.049       39.157      -18.377      195.126      157.823       78.520    38074.079    24908.234     6165.445       10.583        3.457      377.087       94.758        0.063      337.030        8.726      850.826
03/26/2014  12:23:00     -654.112     -153.987      -32.184      158.589      190.004       78.344    25150.383    36101.390     6137.761       25.999        3.369      671.993       77.535        0.013      336.894        8.499      850.776
03/26/2014  12:24:00     -379.823     -123.362       -4.583      243.211      218.195       81.790    59151.572    47608.991     6689.554       13.645        5.673      399.354       87.481        0.048      337.044        8.750      850.815
03/26/2014  12:25:00     -322.125     -193.151       -3.108      218.297      181.846      100.168    47653.427    33067.881    10033.723       11.590        4.538      375.595      100.382        0.071      337.130        8.894      850.844
03/26/2014  12:26:00     -422.230     -108.291      -22.458      189.489      140.625       72.060    35906.059    19775.260     5192.638       12.568        3.044      435.896       87.960        0.041      336.982        8.646      850.856
03/26/2014  12:27:00     -190.281      -19.284        8.909      164.335       93.613       66.426    27006.083     8763.333     4412.348        3.841        2.009      191.255       81.728        0.183      337.232        9.065      850.867
03/26/2014  12:28:00     -215.597     -127.959        1.044      197.346       98.085       74.793    38945.464     9620.764     5594.058        5.850        2.708      250.710       85.611        0.117      337.092        8.830      850.888
03/26/2014  12:29:00     -395.844     -100.990       -4.815      175.616      161.914       77.455    30841.129    26216.266     5999.345       11.497        3.153      408.523       93.915        0.053      337.053        8.763      850.878
03/26/2014  12:30:00     -237.850      -76.645       -2.141      100.690       90.540       50.408    10138.469     8197.502     2540.987        4.166        1.044      249.894       47.200        0.036      337.152        8.931      850.866
03/26/2014  12:31:00     -153.485      -81.524       -5.012       67.416       43.421       32.280     4544.918     1885.412     1042.008        1.885        0.374      173.792       31.628        0.033      337.128        8.891      850.869
03/26/2014  12:32:00     -174.361      -90.935        1.072       65.388       75.175       46.217     4275.605     5651.211     2135.990        2.536        0.603      196.649       36.367        0.034      337.433        9.401      850.853
03/26/2014  12:33:00     -102.157     -123.613        0.218       79.152       67.203       46.429     6265.047     4516.225     2155.648        1.932        0.647      160.363       44.262        0.076      337.233        9.066      850.842
03/26/2014  12:34:00     -219.493     -100.200      -23.966      123.064      144.770       49.742    15144.653    20958.263     2474.281        4.868        1.929      241.283       59.427        0.061      337.198        9.007      850.777
03/26/2014  12:35:00     -383.577     -254.515       -6.716      217.345      169.649       97.039    47239.014    28780.780     9416.659       14.868        4.272      460.336      100.428        0.048      337.093        8.831      850.785
03/26/2014  12:36:00     -342.825     -301.796      -14.381      186.995      186.482       83.238    34967.300    34775.392     6928.561       14.273        3.834      456.738       87.527        0.037      337.036        8.735      850.834
03/26/2014  12:37:00     -283.109     -246.770      -12.464      142.070      145.606       87.334    20183.828    21201.101     7627.156        9.510        2.451      375.561       83.458        0.049      337.118        8.873      850.904
03/26/2014  12:38:00     -127.531     -100.162        0.713       99.921       89.637       55.563     9984.162     8034.774     3087.215        2.370        1.055      162.163       57.647        0.126      337.246        9.088      850.928
03/26/2014  12:39:00      -97.543      -49.558       11.448       78.207       86.145       43.966     6116.398     7420.933     1932.971        1.378        0.774      109.410       40.707        0.138      337.454        9.438      850.969
03/26/2014  12:40:00      -94.878     -116.589        4.865      106.951      113.040       46.680    11438.582    12778.104     2179.050        2.450        1.320      150.316       32.217        0.046      337.322        9.216      850.977
03/26/2014  12:41:00     -168.124      -99.135       14.504      164.541       92.032       52.416    27073.848     8469.839     2747.401        3.829        1.915      195.176       48.955        0.063      337.205        9.020      850.956
03/26/2014  12:42:00     -117.679     -114.302      -13.281       90.163       76.834       45.394     8129.277     5903.399     2060.587        2.159        0.805      164.052       19.161        0.014      337.271        9.131      850.933
03/26/2014  12:43:00     -273.833     -194.285      -13.244      202.216      121.621       69.896    40891.503    14791.690     4885.423        8.673        3.028      335.755       88.678        0.070      337.031        8.729      850.928
03/26/2014  12:44:00     -196.448       18.875       -0.782      126.056      110.048       57.668    15890.195    12110.662     3325.618        3.513        1.566      197.353       53.237        0.073      337.262        9.116      850.917
03/26/2014  12:45:00     -190.393     -105.207        0.580      134.062      106.603       72.742    17972.497    11364.113     5291.444        4.097        1.731      217.527       66.585        0.094      337.099        8.841      850.878
03/26/2014  12:46:00     -383.895     -174.169       -9.415      188.631      127.747       67.746    35581.615    16319.399     4589.507       11.713        2.825      421.557       56.219        0.018      337.147        8.921      850.854
03/26/2014  12:47:00     -527.061     -165.925      -15.327      200.899      145.104       99.102    40360.589    21055.296     9821.143       18.838        3.562      552.562      106.550        0.037      336.937        8.569      850.880
03/26/2014  12:48:00     -367.855     -164.878      -17.527      172.657      155.504       78.075    29810.557    24181.463     6095.754       11.144        3.004      403.115       94.183        0.055      336.902        8.512      850.912
03/26/2014  12:49:00     -268.104      -88.986      -27.739      127.998       94.116       55.986    16383.536     8857.848     3134.460        5.447        1.419      282.486       65.078        0.053      336.925        8.550      850.863
03/26/2014  12:50:00     -187.743     -109.692       11.748      201.563      136.670       84.438    40627.727    18678.658     7129.853        5.691        3.322      217.439       87.960        0.164      337.448        9.427      850.886
03/26/2014  12:51:00     -191.376     -147.224      -13.316      144.105      119.074       58.506    20766.187    14178.666     3422.903        4.841        1.918      241.453       65.226        0.073      337.101        8.847      850.951
03/26/2014  12:52:00      -47.674     -247.672       14.479       65.561      104.895       31.768     4298.186    11002.955     1009.203        4.006        0.816      252.219       20.337        0.007      336.918        8.539      850.878
03/26/2014  12:53:00     -120.775      -52.744        9.070      127.534       64.233       50.094    16265.024     4125.896     2509.402        2.017        1.145      131.790       63.517        0.232      337.428        9.395      850.841
03/26/2014  12:54:00     -180.382      -78.128      -10.836      111.341       68.454       39.175    12396.712     4685.938     1534.652        2.868        0.931      196.575       39.811        0.041      337.324        9.218      850.810
03/26/2014  12:55:00     -145.706      -44.904       -3.212       83.235       77.605       38.943     6928.092     6022.540     1516.530        1.886        0.723      152.469       46.580        0.093      337.475        9.474      850.790
03/26/2014  12:56:00      -76.967      -17.897        9.661       64.117       97.340       54.391     4110.952     9475.037     2958.342        1.144        0.827       79.021       34.901        0.195      337.668        9.797      850.752
03/26/2014  12:57:00     -232.665     -129.743       -2.789      152.546       89.652       61.955    23270.194     8037.395     3838.395        5.305        1.757      266.395       69.378        0.068      337.597        9.676      850.728
03/26/2014  12:58:00     -179.435     -148.318       -4.987      177.498      150.768       80.661    31505.502    22730.932     6506.205        5.747        3.037      232.798       98.777        0.180      337.480        9.481      850.718
03/26/2014  12:59:00     -177.271     -116.296       -3.126      174.449      169.439       84.021    30432.577    28709.580     7059.561        5.557        3.310      212.014       85.603        0.163      337.602        9.683      850.729
03/26/2014  13:00:00     -176.127     -221.217        9.416      161.090      142.747       92.302    25949.969    20376.680     8519.694        6.744        2.742      282.768       97.718        0.119      337.337        9.243      850.709
03/26/2014  13:01:00     -147.140      -79.971        8.233      147.612       96.872       69.889    21789.238     9384.260     4884.404        3.208        1.803      167.468       90.509        0.292      337.950       10.270      850.674
03/26/2014  13:02:00     -232.272      -90.383        6.834      103.838       91.047       55.429    10782.335     8289.622     3072.393        4.215        1.107      249.237       56.870        0.052      337.846       10.093      850.646
03/26/2014  13:03:00     -291.850     -169.521        3.596      239.103      143.718       70.224    57170.270    20654.833     4931.415        9.832        4.138      337.511       95.810        0.081      337.558        9.612      850.658
03/26/2014  13:04:00     -279.627     -238.436       16.221      195.851      128.397       78.794    38357.636    16485.907     6208.457        9.817        3.053      367.482       90.125        0.060      337.202        9.016      850.633
03/26/2014  13:05:00     -264.204      -86.421        9.096      187.039      118.716       75.885    34983.706    14093.584     5758.582        6.608        2.742      277.979       91.450        0.108      337.348        9.258      850.575
03/26/2014  13:06:00     -307.105     -127.671      -18.224      192.823      165.899       89.969    37180.659    27522.356     8094.339        9.186        3.640      332.586       89.234        0.072      337.664        9.787      850.550
03/26/2014  13:07:00     -404.151       21.799      -17.784      152.579      156.137       79.048    23280.209    24378.789     6248.647       10.901        2.695      404.739       67.622        0.028      337.753        9.936      850.576
03/26/2014  13:08:00     -219.725     -170.848       21.010      177.913      172.318       87.355    31653.143    29693.324     7630.959        7.343        3.449      278.331      102.627        0.136      337.729        9.897      850.541
03/26/2014  13:09:00     -394.719     -140.591      -12.857      128.720      193.492       86.748    16568.806    37439.144     7525.132       11.862        3.077      419.009       60.816        0.021      337.481        9.480      850.536
03/26/2014  13:10:00     -250.922      -52.805      -15.442      185.061      133.426       75.024    34247.402    17802.545     5628.669        6.182        2.884      256.418       83.134        0.105      337.743        9.920      850.521
03/26/2014  13:11:00     -354.978      -38.153       -2.689      213.214      132.688       74.416    45460.245    17606.173     5537.745        9.802        3.430      357.022       88.645        0.062      337.530        9.565      850.512
03/26/2014  13:12:00     -229.455      -58.606       14.237      231.513      148.521       83.675    53598.068    22058.399     7001.483        6.946        4.133      236.821      108.748        0.211      337.998       10.350      850.497
03/26/2014  13:13:00     -431.425      -46.588       -7.564      240.984      134.215       87.399    58073.497    18013.545     7638.539       13.602        4.186      433.933       99.109        0.052      337.448        9.428      850.483
03/26/2014  13:14:00     -326.259     -223.599       -1.931      245.994      184.148      100.417    60513.268    33910.390    10083.500       13.046        5.225      395.527      125.509        0.101      337.489        9.496      850.473
03/26/2014  13:15:00     -537.658     -194.643      -35.390      255.130      194.900      102.317    65091.372    37985.858    10468.843       22.086        5.677      571.805      114.495        0.040      337.330        9.227      850.515
03/26/2014  13:16:00     -514.791     -134.794      -33.816      229.611      143.654       90.584    52720.984    20636.550     8205.464       18.293        4.078      532.146      102.636        0.037      337.334        9.234      850.558
03/26/2014  13:17:00     -225.863     -222.291        1.009      159.259      139.273       87.442    25363.456    19396.881     7646.105        7.641        2.620      316.903       88.075        0.077      337.752        9.935      850.571
03/26/2014  13:18:00     -277.796     -213.333       -8.353      133.828      129.500       68.035    17909.968    16770.298     4628.718        8.102        1.965      350.259       64.029        0.033      337.420        9.379      850.594
03/26/2014  13:19:00     -254.194     -256.853       10.650      185.021      142.309       95.852    34232.869    20251.954     9187.525        9.717        3.184      361.369       87.397        0.058      337.660        9.780      850.567
03/26/2014  13:20:00     -131.058     -216.221       13.042      188.972      189.742       88.834    35710.477    36001.965     7891.456        7.184        3.980      252.839       95.930        0.144      337.739        9.915      850.508
03/26/2014  13:21:00     -543.570     -174.175      -34.469      286.151      252.686      111.909    81882.541    63850.454    12523.706       24.259        7.913      570.793      106.681        0.035      337.645        9.755      850.502
03/26/2014  13:22:00     -465.974     -241.064      -13.566      249.600      194.892      109.258    62300.222    37982.699    11937.349       19.380        5.611      524.637      117.882        0.050      337.597        9.675      850.526
03/26/2014  13:23:00     -240.968      -54.558        5.062      213.903      161.210       93.257    45754.420    25988.579     8696.823        7.074        4.022      247.067      108.440        0.193      337.867       10.128      850.541
03/26/2014  13:24:00     -463.290     -301.589      -17.102      193.893      217.047      103.294    37594.385    47109.282    10669.569       20.061        4.769      552.805      107.059        0.038      337.398        9.343      850.557
03/26/2014  13:25:00     -404.069      -56.876       -0.302      242.615      154.098       95.114    58861.808    23746.200     9046.592       12.906        4.583      408.052      104.955        0.066      337.503        9.520      850.566
03/26/2014  13:26:00     -486.773     -153.628      -21.286      270.099      179.273      116.380    72953.709    32138.787    13544.355       18.980        5.932      510.441      120.630        0.056      337.359        9.277      850.555
03/26/2014  13:27:00     -372.792     -109.672        8.240      210.154      170.013       95.298    44164.588    28904.370     9081.646       11.659        4.108      388.589       94.365        0.059      337.502        9.516      850.524
03/26/2014  13:28:00     -424.180       74.304      -25.295      184.781      139.674       91.644    34144.099    19508.904     8398.659       12.406        3.103      430.639       91.438        0.045      337.559        9.611      850.521
03/26/2014  13:29:00     -254.724     -194.723      -11.182      182.999      126.330       82.698    33488.610    15959.182     6838.936        7.960        2.814      320.626       68.913        0.046      337.760        9.949      850.517
03/26/2014  13:30:00     -305.295     -172.742        1.507      179.636      147.219       90.932    32269.270    21673.304     8268.675        9.262        3.111      350.777       97.424        0.077      337.568        9.627      850.485
03/26/2014  13:31:00     -230.000     -190.231       -3.918      146.983      153.357       61.219    21603.905    23518.347     3747.715        6.898        2.443      298.476       54.296        0.033      337.470        9.464      850.438
03/26/2014  13:32:00     -339.274     -197.421       -4.433      176.218      137.687       79.110    31052.863    18957.669     6258.388       10.517        2.813      392.532       83.548        0.045      337.593        9.669      850.437
03/26/2014  13:33:00     -282.037     -210.412       -1.930      187.865      140.176       83.380    35293.373    19649.323     6952.174        9.285        3.095      351.878       95.755        0.074      337.814       10.039      850.438
03/26/2014  13:34:00     -538.065     -294.738      -13.530      252.324      169.188      110.094    63667.331    28624.532    12120.711       24.047        5.221      613.502      126.304        0.042      337.553        9.601      850.400
03/26/2014  13:35:00     -485.689     -254.163        0.642      263.259      214.825      100.073    69305.127    46149.647    10014.638       21.296        6.273      548.172      120.244        0.048      337.563        9.618      850.391
03/26/2014  13:36:00     -517.921     -226.644      -21.481      244.511      169.338       90.746    59785.632    28675.235     8234.772       20.836        4.835      565.340      107.265        0.036      337.499        9.512      850.414
03/26/2014  13:37:00     -442.131      -90.227       -1.670      202.962      186.364       93.613    41193.644    34731.710     8763.388       14.414        4.234      451.244       88.300        0.038      337.666        9.791      850.457
03/26/2014  13:38:00     -396.902     -144.069      -16.020      218.618      132.740       93.089    47793.679    17619.944     8665.582       12.630        3.704      422.241       98.713        0.055      337.579        9.644      850.462
03/26/2014  13:39:00     -331.335     -153.896        3.998      202.855      121.486       68.734    41149.989    14758.850     4724.416        9.705        3.032      365.331       67.143        0.034      337.407        9.357      850.465
03/26/2014  13:40:00     -439.923     -207.802       -2.273      223.754      185.882      104.651    50065.851    34552.285    10951.751       16.613        4.778      486.532      109.351        0.051      337.441        9.413      850.448
03/26/2014  13:41:00     -451.746     -161.797        2.154      238.512      247.008      100.162    56888.140    61012.925    10032.346       17.907        6.397      479.846      112.043        0.055      337.406        9.355      850.446
03/26/2014  13:42:00     -538.941     -243.230        8.694      267.440      184.361      106.420    71524.347    33989.117    11325.115       23.324        5.842      591.285      131.768        0.050      337.299        9.177      850.426
03/26/2014  13:43:00     -497.836     -354.389      -11.673      252.591      232.106      115.125    63802.355    53873.123    13253.796       25.222        6.546      611.091      114.535        0.035      337.425        9.387      850.359
03/26/2014  13:44:00     -453.933     -189.915      -16.511      234.121      176.098       87.548    54812.503    31010.522     7664.722       16.792        4.674      492.060       94.318        0.037      337.509        9.527      850.391
03/26/2014  13:45:00     -270.482     -181.142       -6.715      170.182      134.105       81.293    28961.760    17984.203     6608.581        7.978        2.678      325.535       94.068        0.083      337.684        9.822      850.409
03/26/2014  13:46:00     -332.620     -244.495       -0.837      273.610      191.100      101.380    74862.668    36519.162    10277.846       14.601        6.083      412.812      116.150        0.079      337.524        9.553      850.413
03/26/2014  13:47:00     -538.223     -196.452      -38.057      229.405      183.469       98.002    52626.826    33660.885     9604.476       21.279        4.795      572.955      104.808        0.033      337.495        9.505      850.407
03/26/2014  13:48:00     -499.579     -226.808       -8.676      212.706      161.993      104.847    45244.004    26241.818    10992.852       19.177        4.124      548.654      109.747        0.040      337.535        9.571      850.459
03/26/2014  13:49:00     -491.600     -279.122       -9.587      228.019      220.433      104.077    51992.590    48590.752    10831.942       21.552        5.571      565.313      127.683        0.051      337.413        9.367      850.481
03/26/2014  13:50:00     -143.331     -104.566        0.654      106.528       85.222       54.811    11348.113     7262.837     3004.214        2.654        1.081      177.420       46.595        0.069      337.637        9.743      850.519
03/26/2014  13:51:00     -142.360     -363.224      -12.783      105.834      108.620       52.833    11200.747    11798.296     2791.335        8.907        1.290      390.126       38.399        0.010      337.271        9.131      850.472
03/26/2014  13:52:00     -129.724     -170.826       20.089      139.195       97.884       74.582    19375.281     9581.273     5562.462        4.046        1.726      214.499       70.547        0.108      337.426        9.389      850.453
03/26/2014  13:53:00     -364.821     -142.429      -14.986      139.737      120.471       62.129    19526.415    14513.267     3859.957        9.574        1.895      391.638       44.496        0.013      337.629        9.728      850.451
03/26/2014  13:54:00     -390.329     -122.152       10.184      219.665      191.673       98.009    48252.788    36738.413     9605.707       13.097        4.730      408.996       96.993        0.056      337.604        9.687      850.444
03/26/2014  13:55:00     -633.824     -284.964      -24.883      192.261      142.056       88.451    36964.475    20179.956     7823.575       27.425        3.248      694.936       83.751        0.015      337.222        9.046      850.473
03/26/2014  13:56:00     -237.790     -114.617       10.858      194.217      136.348       79.478    37720.059    18590.886     6316.716        6.620        3.131      263.971      101.647        0.148      337.493        9.502      850.484
03/26/2014  13:57:00     -270.424     -195.126       13.097      208.718      120.146       74.826    43563.353    14435.005     5598.929        8.747        3.180      333.471       76.073        0.052      337.602        9.683      850.470
03/26/2014  13:58:00     -454.463     -182.878      -18.057      212.313      130.641       88.062    45076.616    17066.954     7754.916       15.509        3.495      489.879      109.828        0.050      337.446        9.422      850.465
03/26/2014  13:59:00     -175.003     -224.795       14.419      214.914      157.426       82.472    46188.174    24782.877     6801.649        7.955        3.889      284.884       85.825        0.091      337.663        9.786      850.459
03/26/2014  14:00:00     -461.045     -287.625      -26.265      192.639      181.919       89.300    37109.689    33094.687     7974.570       18.706        3.909      543.406       95.383        0.031      337.498        9.509      850.411
03/26/2014  14:01:00     -377.718     -228.830       -0.566      208.278      178.346       94.902    43379.629    31807.295     9006.325       13.960        4.210      441.626       89.992        0.042      337.353        9.266      850.412
03/26/2014  14:02:00     -285.924     -182.951        4.330      236.446      177.239       89.753    55906.844    31413.512     8055.658       10.529        4.769      339.446      115.108        0.115      337.341        9.246      850.402
03/26/2014  14:03:00      -74.352      -69.099       10.838      139.292       97.095       56.038    19402.283     9427.351     3140.286        2.119        1.598      101.503       59.034        0.338      337.622        9.720      850.396
03/26/2014  14:04:00     -121.418      -27.306       -2.996      211.032      163.501       75.110    44534.371    26732.717     5641.498        4.619        3.845      124.451       85.517        0.472      337.786        9.995      850.393
03/26/2014  14:05:00     -422.198     -280.304      -27.168      182.349      169.657      101.491    33251.142    28783.395    10300.363       16.493        3.617      506.776       87.161        0.030      337.283        9.149      850.345
03/26/2014  14:06:00     -291.941     -228.402       13.764      173.698      145.448      102.791    30170.980    21155.134    10565.990        9.973        3.095      370.671      110.506        0.089      337.401        9.346      850.291
03/26/2014  14:07:00     -210.091      -74.422        5.874      205.668      143.916       85.471    42299.400    20711.921     7305.341        6.000        3.516      222.883       84.578        0.144      337.760        9.949      850.276
03/26/2014  14:08:00     -385.198     -232.657       10.525      246.788      178.992       84.174    60904.114    32038.157     7085.253       15.130        5.001      450.008       92.882        0.043      337.469        9.460      850.231
03/26/2014  14:09:00     -346.905     -235.068       -8.233      196.261      200.971      108.333    38518.417    40389.411    11735.968       13.314        4.532      419.047      102.284        0.060      337.661        9.783      850.266
03/26/2014  14:10:00     -249.682      -79.309       -3.551      178.897      127.128       83.507    32004.016    16161.538     6973.455        6.188        2.757      261.976       94.930        0.131      337.718        9.877      850.262
03/26/2014  14:11:00     -316.707     -165.330       -1.653      257.217      213.663       99.795    66160.482    45652.052     9959.079       12.468        6.089      357.264      124.511        0.121      337.607        9.694      850.224
03/26/2014  14:12:00     -330.982      -90.292       13.700      227.528      182.962       94.438    51769.095    33475.100     8918.496       10.601        4.708      343.077      116.176        0.115      337.578        9.644      850.240
03/26/2014  14:13:00     -301.962     -156.298       12.920      236.034      169.091      108.514    55712.061    28591.734    11775.342       10.591        4.804      340.015      133.919        0.155      337.675        9.807      850.239
03/26/2014  14:14:00     -507.772     -115.852      -24.716      299.771      199.305       96.653    89862.823    39722.382     9341.837       20.537        6.946      520.820      129.871        0.062      337.386        9.321      850.227
03/26/2014  14:15:00     -217.179      -58.291       15.639      138.943      166.760       74.807    19305.108    27808.749     5596.081        5.175        2.635      224.866       70.159        0.097      337.452        9.434      850.254
03/26/2014  14:16:00     -266.070      -63.757      -14.941      159.745      141.372       68.279    25518.528    19986.035     4661.997        6.261        2.508      273.603       71.089        0.068      337.535        9.571      850.241
03/26/2014  14:17:00     -188.993     -137.724       15.257      201.984      171.864       88.643    40797.365    29537.376     7857.494        6.654        3.910      233.851      107.125        0.210      337.713        9.872      850.239
03/26/2014  14:18:00     -195.360     -157.086       11.867      183.308      145.420       96.090    33601.656    21147.074     9233.269        6.347        3.199      250.682      103.338        0.170      337.696        9.842      850.208
03/26/2014  14:19:00     -350.907      -38.250       -7.414      177.710      151.716       72.800    31580.752    23017.800     5299.907        9.226        2.995      352.986       77.854        0.049      337.505        9.521      850.200
03/26/2014  14:20:00     -324.001     -109.862      -11.880      172.799      182.107       85.855    29859.349    33162.931     7371.127        9.378        3.520      342.120       53.443        0.024      337.627        9.725      850.179
03/26/2014  14:21:00     -336.149      -64.388       -6.157      283.722      147.159       91.681    80498.427    21655.882     8405.455       11.385        5.528      342.260      122.344        0.128      337.715        9.873      850.126
03/26/2014  14:22:00     -489.132     -277.053      -12.981      189.394      179.813       95.588    35869.951    32332.718     9137.007       19.674        3.867      562.146       90.681        0.026      337.745        9.923      850.092
03/26/2014  14:23:00     -355.223     -262.112       -1.390      200.303      197.890      110.035    40121.197    39160.632    12107.758       14.312        4.569      441.459      118.081        0.072      337.848       10.095      850.093
03/26/2014  14:24:00     -404.927     -224.168       -6.373      187.125      157.884       82.615    35015.594    24927.485     6825.202       14.050        3.338      462.836       90.427        0.038      337.851       10.101      850.158
03/26/2014  14:25:00     -266.903     -195.226       -8.272      141.267      148.351       76.210    19956.486    22007.872     5808.025        7.859        2.389      330.682       67.245        0.041      337.728        9.895      850.185
03/26/2014  14:26:00     -225.062     -196.408       -1.675      187.765      148.379       65.578    35255.624    22016.433     4300.532        7.539        3.079      298.712       75.911        0.065      337.661        9.784      850.201
03/26/2014  14:27:00     -150.579     -177.077        1.546      144.964      135.016       69.035    21014.633    18229.321     4765.776        4.901        2.200      232.445       76.050        0.107      337.699        9.847      850.191
03/26/2014  14:28:00     -290.447      -42.358       -7.418      192.012      129.084       81.645    36868.628    16662.638     6665.934        7.319        3.010      293.520       93.548        0.102      337.635        9.738      850.166
03/26/2014  14:29:00     -295.225     -160.546       -8.055      185.805      161.009       69.926    34523.403    25923.937     4889.611        8.915        3.267      336.055       77.698        0.053      337.711        9.867      850.164
03/26/2014  14:30:00     -330.010      -66.325        6.061      200.337      145.645       89.322    40134.874    21212.342     7978.404        9.132        3.466      336.609      102.800        0.093      337.685        9.823      850.161
03/26/2014  14:31:00     -389.008     -235.954      -16.877      195.468      160.009       77.921    38207.817    25602.983     6071.643       13.857        3.494      454.974       78.898        0.030      337.439        9.411      850.182
03/26/2014  14:32:00     -465.615     -260.828       -1.588      241.952      169.337      105.495    58540.685    28675.014    11129.173       19.157        4.917      533.693      119.422        0.050      337.373        9.300      850.147
03/26/2014  14:33:00     -295.536     -238.970      -10.917      165.908      117.500       81.392    27525.398    13806.224     6624.599        9.625        2.398      380.063       89.726        0.056      337.443        9.417      850.068
03/26/2014  14:34:00     -290.577       -5.213        4.715      235.038      143.987       80.253    55242.985    20732.378     6440.579        8.343        4.121      290.624       97.249        0.112      337.831       10.070      850.068
03/26/2014  14:35:00     -279.195     -194.819       32.377      195.389      192.218       94.769    38177.041    36947.618     8981.162       10.051        4.205      340.447       94.988        0.078      337.785        9.992      850.126
03/26/2014  14:36:00     -293.918     -237.012        3.132      179.551      173.229       88.444    32238.446    30008.210     7822.288       10.631        3.503      377.575       94.482        0.063      337.685        9.823      850.135
03/26/2014  14:37:00     -191.918     -211.644       -6.527      157.981      160.182       68.027    24958.115    25658.226     4627.701        6.845        2.762      285.702       73.264        0.066      337.819       10.047      850.268
03/26/2014  14:38:00     -144.650     -251.851       -1.017      134.482      158.184       75.659    18085.334    25022.033     5724.349        6.658        2.442      290.435       64.976        0.050      337.593        9.668      850.245
03/26/2014  14:39:00     -292.025     -202.600        0.502      205.422      137.991       81.958    42198.304    19041.448     6717.092        9.713        3.398      355.423       87.021        0.060      337.565        9.622      850.219
03/26/2014  14:40:00     -317.104     -206.170        8.507      270.051      156.026       96.067    72927.507    24344.224     9228.897       12.480        5.325      378.234      110.294        0.085      337.583        9.651      850.201
03/26/2014  14:41:00     -233.977     -162.664       27.508      272.359      209.675       97.490    74179.679    43963.533     9504.284       10.478        6.382      284.965      128.897        0.205      337.624        9.720      850.175
03/26/2014  14:42:00     -316.842     -180.907       -3.522      179.354      160.735       93.206    32167.784    25835.660     8687.416        9.990        3.335      364.851       98.661        0.073      337.510        9.529      850.163
03/26/2014  14:43:00     -334.929     -269.438       -6.095      168.953      148.240       85.393    28545.116    21975.221     7291.936       12.130        2.891      429.854       93.922        0.048      337.547        9.592      850.162
03/26/2014  14:44:00     -338.554     -267.786       -0.453      207.700      164.073      100.160    43139.411    26920.074    10031.998       13.319        4.005      431.657      118.488        0.075      337.529        9.560      850.155
03/26/2014  14:45:00     -226.939     -157.928       -0.341      149.797      125.248       80.863    22438.993    15687.119     6538.826        6.054        2.233      276.482       77.241        0.078      337.625        9.722      850.192
03/26/2014  14:46:00     -270.980      -42.496        2.901      127.948       92.284       65.280    16370.759     8516.281     4261.522        5.219        1.457      274.292       60.137        0.048      337.559        9.611      850.177
03/26/2014  14:47:00      -89.397      -75.099        1.223       85.207       83.516       53.020     7260.227     6974.950     2811.121        1.534        0.852      116.755       46.884        0.161      337.659        9.781      850.176
03/26/2014  14:48:00     -158.598      -27.978       -2.234       73.742       53.220       37.227     5437.842     2832.392     1385.856        1.780        0.483      161.047       32.292        0.040      337.720        9.884      850.128
03/26/2014  14:49:00     -139.003      -48.054        4.214       77.074       57.634       36.770     5940.392     3321.735     1352.021        1.613        0.531      147.075       38.827        0.070      337.839       10.083      850.092
03/26/2014  14:50:00     -217.127      -40.244       -8.091      136.908      104.404       66.561    18743.676    10900.138     4430.326        4.144        1.704      220.825       59.239        0.072      337.776        9.977      850.089
03/26/2014  14:51:00     -404.970     -163.065       -0.238      171.397      137.516       82.983    29376.863    18910.727     6886.242       12.287        2.759      436.567       74.975        0.029      337.756        9.940      850.078
03/26/2014  14:52:00     -292.826     -153.608      -13.632      179.291      146.133       72.893    32145.436    21354.950     5313.365        8.416        2.941      330.670       74.189        0.050      337.487        9.490      850.116
03/26/2014  14:53:00     -293.993     -115.350      -14.332      144.379      134.792       74.348    20845.210    18168.780     5527.551        7.223        2.227      315.812       75.733        0.058      337.529        9.561      850.071
03/26/2014  14:54:00     -304.034     -217.516       -1.157      166.718      129.458       67.255    27794.819    16759.377     4523.297        9.440        2.454      373.831       74.850        0.040      337.449        9.427      850.025
03/26/2014  14:55:00     -330.533     -229.736       -8.513      130.225      155.193       76.427    16958.425    24085.004     5841.157       10.448        2.344      402.530       65.753        0.027      337.593        9.667      849.959
03/26/2014  14:56:00      -73.514     -179.438        0.396       76.235      165.170       53.939     5811.830    27281.292     2909.455        3.680        1.800      193.913       33.658        0.030      337.859       10.117      849.934
03/26/2014  14:57:00     -120.517     -191.147        6.894      123.402      127.848       56.958    15227.941    16345.213     3244.263        4.296        1.741      225.968       55.665        0.061      337.882       10.155      849.903
03/26/2014  14:58:00     -277.312     -114.870       27.580      252.437      143.080       83.177    63724.318    20471.746     6918.447        9.097        4.556      300.162      109.211        0.132      337.831       10.069      849.871
03/26/2014  14:59:00      117.234      -71.270       66.862      138.373      227.510      142.612    19146.949    51760.986    20338.312        5.725        4.562      137.198      162.851        1.409      337.989       10.333      849.907
03/26/2014  15:00:00       34.230     -175.492       12.627      163.446      170.904       91.307    26714.518    29208.149     8337.053        4.818        3.213      178.799      106.609        0.356      337.977       10.313      849.940
03/26/2014  15:01:00      160.123     -312.579      -12.063      170.475      225.622      110.490    29061.762    50905.464    12207.946       10.781        4.609      351.205      125.382        0.127      337.655        9.773      849.987
03/26/2014  15:02:00      121.772      -89.051       62.755      122.051      193.268      120.942    14896.407    37352.514    14626.959        4.677        3.344      150.860      140.052        0.862      337.666        9.792      849.974
03/26/2014  15:03:00        0.708      -14.904       58.444       42.667       72.976       45.879     1820.498     5325.500     2104.856        0.644        0.463       14.920       39.847        7.132      337.940       10.254      849.980
03/26/2014  15:04:00      -11.141      -22.184       53.023       51.539       40.953       42.917     2656.237     1677.114     1841.882        0.480        0.309       24.825       26.680        1.155      337.988       10.335      849.960
03/26/2014  15:05:00       -5.437      -94.567       14.633       49.728       61.153       37.778     2472.874     3739.681     1427.174        0.841        0.382       94.723       34.595        0.133      337.871       10.137      849.968
03/26/2014  15:06:00      -78.530     -225.270       -6.003       75.806       92.393       42.790     5746.597     8536.553     1830.992        3.653        0.806      238.566       38.590        0.026      337.498        9.510      849.969
03/26/2014  15:07:00      -17.608      -28.804       18.876       51.593       50.756       23.400     2661.813     2576.194      547.563        0.364        0.289       33.759       24.830        0.541      338.019       10.387      849.975
03/26/2014  15:08:00      -11.862      -54.111       -1.305       68.837       54.192       38.017     4738.598     2936.731     1445.286        0.609        0.456       55.396       13.945        0.063      337.884       10.160      849.996
03/26/2014  15:09:00     -148.341     -113.496       11.786       95.091       69.191       57.375     9042.255     4787.463     3291.919        2.607        0.856      186.779       53.547        0.082      337.677        9.810      850.026
03/26/2014  15:10:00      -28.357     -102.018       31.447      146.864      154.017       87.663    21568.966    23721.142     7684.741        3.258        2.649      105.886       65.607        0.384      337.797       10.012      850.007
03/26/2014  15:11:00      -98.345     -383.729      -30.915      314.235      206.872      100.427    98743.461    42795.938    10085.529       15.472        7.581      396.131      107.848        0.074      337.710        9.864      849.907
03/26/2014  15:12:00     -104.303      -65.992       11.021      124.669       73.036       46.342    15542.406     5334.296     2147.589        1.919        1.151      123.426       50.427        0.167      337.768        9.964      849.991
03/26/2014  15:13:00     -279.711      -93.612        2.090      279.397      132.144       73.707    78062.800    17461.949     5432.738        9.396        5.048      294.960      101.897        0.119      337.698        9.844      849.913
03/26/2014  15:14:00     -115.980      -40.543       19.875      170.130      139.845       79.173    28944.057    19556.596     6268.411        3.512        2.738      122.863       73.906        0.362      337.960       10.285      849.926
03/26/2014  15:15:00      -66.552     -114.430        1.850       98.224       47.791       44.274     9647.956     2283.939     1960.202        1.571        0.695      132.376       26.863        0.041      337.934       10.242      850.045
03/26/2014  15:16:00       22.927      -88.250       19.788       73.134       88.079       51.884     5348.567     7757.915     2691.917        1.225        0.790       91.180       54.875        0.362      338.012       10.374      850.060
03/26/2014  15:17:00      -66.062      -48.303       21.455       69.030       78.016       56.676     4765.169     6086.481     3212.140        1.061        0.703       81.838       57.119        0.487      337.906       10.196      850.072
03/26/2014  15:18:00      -88.714      -71.936        1.146       78.586       62.797       35.742     6175.784     3943.423     1277.490        1.222        0.570      114.215       25.675        0.051      337.927       10.230      850.074
03/26/2014  15:19:00     -104.351      -23.831        7.759       65.197       51.033       35.661     4250.662     2604.386     1271.695        0.982        0.406      107.038       36.326        0.115      337.734        9.908      850.076
03/26/2014  15:20:00      -51.346      -36.056       15.158       72.294       53.643       30.298     5226.393     2877.570      917.958        0.659        0.451       62.741       36.971        0.347      338.032       10.408      850.073
03/26/2014  15:21:00      -33.048       52.659        3.699       44.290       43.976       42.466     1961.604     1933.911     1803.372        0.479        0.285       62.171       15.816        0.065      338.009       10.369      850.051
03/26/2014  15:22:00      -33.122        0.529       -9.449       43.106       88.093       24.355     1858.105     7760.442      593.183        0.570        0.511       33.127       25.739        0.604      337.829       10.067      850.011
03/26/2014  15:23:00       65.618      -37.466       43.035      111.480      111.695       67.486    12427.877    12475.838     4554.370        1.850        1.473       75.561       62.721        0.689      338.015       10.378      849.992
03/26/2014  15:24:00      -40.851     -123.636       11.233      131.202       91.387       59.058    17214.076     8351.584     3487.866        2.306        1.453      130.210       34.672        0.071      338.029       10.400      849.964
03/26/2014  15:25:00     -141.858     -108.307        5.058      112.550       73.788       46.043    12667.429     5444.740     2119.962        2.605        1.012      178.477       48.546        0.074      337.758        9.947      850.001
03/26/2014  15:26:00      -50.968     -129.432      -16.986      119.548       72.068       41.229    14291.644     5193.769     1699.796        2.041        1.059      139.106       30.090        0.047      337.779        9.982      849.987
03/26/2014  15:27:00      -30.166      -74.545        3.160       69.498       56.152       40.420     4829.904     3153.102     1633.777        0.804        0.481       80.417       32.802        0.166      337.950       10.269      850.001
03/26/2014  15:28:00       49.335     -136.986      -14.591      100.949       78.130       49.464    10190.609     6104.234     2446.682        2.007        0.937      145.599       31.570        0.047      337.882       10.155      849.989
03/26/2014  15:29:00      -34.679      -32.912       -0.125       47.532       68.517       38.979     2259.322     4694.636     1519.399        0.538        0.424       47.810       35.620        0.555      337.957       10.283      850.000
03/26/2014  15:30:00      -19.452      -71.186       -6.494       65.400       60.742       31.518     4277.146     3689.619      993.409        0.722        0.448       73.796       30.255        0.168      337.839       10.085      850.013
03/26/2014  15:31:00       -2.502      -69.821        1.333       64.541       60.836       37.382     4165.487     3700.965     1397.442        0.707        0.463       69.866       31.741        0.206      338.045       10.429      850.064
03/26/2014  15:32:00     -116.265      -52.930        6.520       73.797       45.701       28.200     5446.037     2088.558      795.235        1.234        0.416      127.746       32.647        0.065      338.005       10.362      850.094
03/26/2014  15:33:00      -87.539      -63.046       -2.289       69.763       50.830       26.539     4866.925     2583.667      704.313        0.990        0.408      107.879       20.481        0.036      337.868       10.133      850.089
03/26/2014  15:34:00      -45.923      -27.823       -9.369       51.599       71.489       32.420     2662.488     5110.720     1051.037        0.590        0.441       53.694       23.573        0.193      337.969       10.304      850.069
03/26/2014  15:35:00      -95.367      -80.293       20.072      130.520       81.259       43.297    17035.396     6602.998     1874.641        2.072        1.276      124.667       54.369        0.190      338.057       10.449      850.049
03/26/2014  15:36:00     -251.242     -103.880        3.565      149.559      123.259       58.614    22367.961    15192.680     3435.571        5.745        2.050      271.871       65.117        0.057      337.846       10.094      850.067
03/26/2014  15:37:00     -223.169     -251.712       -8.413      174.322      147.614       67.600    30388.177    21789.855     4569.711        8.498        2.837      336.398       72.798        0.047      337.701        9.850      850.068
03/26/2014  15:38:00     -212.960     -201.311       10.410      153.412      128.235       77.125    23535.211    16444.162     5948.271        6.595        2.296      293.049       78.067        0.071      337.773        9.970      850.044
03/26/2014  15:39:00     -225.113     -128.415       11.362      171.852      151.482       80.004    29533.236    22946.889     6400.689        6.308        2.944      259.164       94.467        0.133      337.740        9.916      850.024
03/26/2014  15:40:00     -250.924     -184.921      -14.613      134.361      110.562       62.809    18052.986    12224.014     3944.931        6.579        1.711      311.702       64.148        0.042      337.708        9.860      849.992
03/26/2014  15:41:00     -255.277     -194.207       -4.646      225.836      165.537       79.147    51001.871    27402.371     6264.304        9.377        4.233      320.753       91.818        0.082      337.805       10.025      849.973
03/26/2014  15:42:00     -353.583      -83.149       -7.960      207.524      142.920       83.819    43066.113    20426.152     7025.655       10.124        3.526      363.228       86.434        0.057      337.705        9.856      849.985
03/26/2014  15:43:00     -345.774     -120.636        4.023      208.061      174.044       90.804    43289.504    30291.151     8245.354       10.796        4.091      366.214      107.443        0.086      337.734        9.905      850.018
03/26/2014  15:44:00     -382.541     -236.615      -10.104      191.263      199.005       93.692    36581.602    39602.985     8778.279       14.368        4.248      449.805       92.834        0.043      337.671        9.799      850.044
03/26/2014  15:45:00     -272.195     -103.919        5.784      190.781      145.843       86.652    36397.504    21270.106     7508.610        7.504        3.259      291.357       97.384        0.112      337.725        9.889      850.061
03/26/2014  15:46:00     -125.546     -141.568        3.537      146.790      129.542       84.526    21547.167    16781.149     7144.630        4.064        2.274      189.218       74.008        0.153      337.779        9.982      850.047
03/26/2014  15:47:00     -192.164     -188.359        4.704      147.740      168.333       72.938    21827.119    28335.997     5319.883        6.394        2.774      269.084       75.867        0.079      337.694        9.838      850.012
03/26/2014  15:48:00     -362.278      -80.245        0.532      266.505      168.798      111.772    71025.149    28492.658    12492.925       12.483        5.601      371.059      118.219        0.102      337.668        9.794      850.019
03/26/2014  15:49:00     -380.391     -135.312      -10.510      215.278      154.257       78.058    46344.446    23795.362     6093.023       11.966        3.812      403.741       98.027        0.059      337.662        9.783      850.007
03/26/2014  15:50:00     -275.321     -171.159        9.202      227.696      181.993      107.669    51845.386    33121.400    11592.591       10.085        4.828      324.186      121.392        0.140      337.767        9.960      850.014
03/26/2014  15:51:00     -173.479     -128.106       17.973      205.168      153.877       87.308    42093.977    23678.111     7622.691        6.010        3.670      215.653       90.947        0.178      337.749        9.931      850.041
03/26/2014  15:52:00     -455.072     -223.029        0.763      248.007      244.956      122.587    61507.513    60003.374    15027.512       19.666        6.827      506.786      134.819        0.071      337.588        9.660      850.024
03/26/2014  15:53:00     -333.151     -139.401      -25.401      219.657      221.749       98.562    48249.261    49172.553     9714.541       11.908        5.357      361.140      119.968        0.110      337.655        9.772      850.075
03/26/2014  15:54:00      -99.594      -27.856       37.484      148.727      112.743       73.953    22119.614    12710.923     5469.118        2.619        2.015      103.416       85.965        0.691      337.906       10.197      850.069
03/26/2014  15:55:00     -301.716      -44.506       -5.357      120.744      119.698       81.155    14579.166    14327.543     6586.102        6.426        1.775      304.981       61.809        0.041      337.790       10.000      850.066
03/26/2014  15:56:00     -435.395     -178.864       -1.362      270.976      180.007       93.248    73428.175    32402.474     8695.235       16.802        5.726      470.703      107.251        0.052      337.702        9.850      850.088
03/26/2014  15:57:00     -520.617     -379.116       -6.800      304.504      210.946      124.094    92722.545    44498.230    15399.303       28.369        7.631      644.027      133.728        0.043      337.597        9.673      850.055
03/26/2014  15:58:00     -493.697     -386.985      -19.049      319.750      242.337      130.140   102240.015    58727.121    16936.382       28.584        8.895      627.291      150.126        0.057      337.369        9.293      850.077
03/26/2014  15:59:00     -558.763     -155.890      -20.727      308.068      207.725      102.038    94906.135    43149.851    10411.736       24.268        7.423      580.102      126.883        0.048      337.376        9.305      850.120
03/26/2014  16:00:00     -495.173     -243.620      -18.698      242.291      225.280      112.897    58704.922    50751.259    12745.844       21.353        6.110      551.858      130.683        0.056      337.444        9.418      850.154
03/26/2014  16:01:00     -523.614     -190.640       -7.509      331.363      292.363      120.012   109801.485    85476.108    14402.771       26.008       10.484      557.239      146.490        0.069      337.468        9.459      850.183
03/26/2014  16:02:00     -453.677     -267.789        3.271      241.529      233.950      129.960    58336.390    54732.527    16889.550       20.373        6.498      526.815      141.995        0.073      337.404        9.352      850.209
03/26/2014  16:03:00     -527.640     -209.135      -12.585      232.743      218.780      117.086    54169.338    47864.524    13709.039       21.900        5.787      567.575      114.157        0.040      337.342        9.248      850.267
03/26/2014  16:04:00     -483.598     -130.657      -14.021      249.742      222.500      119.435    62371.126    49506.149    14264.812       18.861        6.307      500.937      120.817        0.058      337.338        9.241      850.313
03/26/2014  16:05:00     -473.303      -90.569        2.513      285.691      211.587      104.199    81619.204    44769.059    10857.362       18.471        6.862      481.890      136.583        0.080      337.392        9.333      850.361
03/26/2014  16:06:00     -472.577     -410.596      -14.687      310.333      207.199      141.595    96306.503    42931.279    20049.050       27.568        7.964      626.034      159.068        0.065      337.025        8.719      850.342
03/26/2014  16:07:00     -421.733     -292.563      -10.301      225.523      210.099      108.793    50860.680    44141.383    11835.987       18.518        5.342      513.276      115.924        0.051      337.132        8.897      850.356
03/26/2014  16:08:00     -568.362     -157.747      -20.962      265.885      226.308      109.194    70695.067    51215.298    11923.321       24.107        6.692      589.847      118.844        0.041      336.897        8.503      850.394
03/26/2014  16:09:00     -715.808     -234.884      -41.111      368.762      214.514      110.902   135985.162    46016.423    12299.362       38.173        9.715      753.361      144.430        0.037      336.718        8.204      850.413
03/26/2014  16:10:00     -385.391     -203.233       -7.477      281.793      187.712      123.832    79407.252    35235.721    15334.350       15.991        6.499      435.695      136.245        0.098      336.863        8.446      850.419
03/26/2014  16:11:00     -345.945     -139.831      -14.135      195.289      166.747       84.979    38137.982    27804.651     7221.472       10.628        3.658      373.136       87.559        0.055      337.006        8.687      850.486
03/26/2014  16:12:00     -250.692     -208.992       16.911      278.064      187.100      134.492    77319.754    35006.243    18088.158       11.859        6.521      326.380      155.756        0.228      336.805        8.350      850.469
03/26/2014  16:13:00     -201.931      -86.059        6.057      220.085      187.420       99.325    48437.372    35126.340     9865.389        7.081        4.671      219.504      108.617        0.245      336.912        8.529      850.485
03/26/2014  16:14:00     -566.650      -47.078      -21.627      220.415      185.699       90.269    48582.882    34484.244     8148.546       20.748        4.561      568.603      100.234        0.031      336.714        8.199      850.486
03/26/2014  16:15:00     -248.043      -87.186       -3.915      191.432      147.595       81.717    36646.321    21784.157     6677.696        6.711        3.255      262.920       87.376        0.110      337.151        8.929      850.493
03/26/2014  16:16:00     -537.338      -87.588      -11.514      244.014      186.908       95.363    59543.007    34934.765     9094.158       20.003        5.179      544.430      102.118        0.035      336.541        7.909      850.476
03/26/2014  16:17:00     -473.410     -133.355      -15.752      271.710      163.561       94.681    73826.099    26752.247     8964.446       17.582        5.477      491.834      121.834        0.061      336.780        8.309      850.433
03/26/2014  16:18:00     -405.378      -92.381      -13.614      214.165      151.485       80.307    45866.581    22947.817     6449.241       12.414        3.763      415.772       80.640        0.038      336.985        8.651      850.433
03/26/2014  16:19:00     -531.296     -120.452      -39.680      172.667      184.643       75.356    29813.993    34093.105     5678.489       18.396        3.479      544.779       66.992        0.015      336.963        8.614      850.428
03/26/2014  16:20:00     -329.143     -158.747       -6.234      221.155      162.634      105.108    48909.654    26449.882    11047.617       10.997        4.320      365.425      117.738        0.104      337.094        8.833      850.397
03/26/2014  16:21:00     -380.455      -88.621      -25.015      190.547      151.655       82.258    36308.126    22999.235     6766.302       10.964        3.304      390.640       81.113        0.043      337.165        8.952      850.425
03/26/2014  16:22:00     -614.169     -153.032      -20.494      232.000      181.052       97.070    53823.789    32779.773     9422.651       24.851        4.801      632.947       94.376        0.022      336.967        8.621      850.408
03/26/2014  16:23:00     -443.892     -170.284      -13.308      185.723      148.941       97.660    34492.979    22183.385     9537.493       14.620        3.311      475.433       99.629        0.044      337.147        8.922      850.360
03/26/2014  16:24:00     -406.356       16.984        4.514      228.971      182.737      113.973    52427.790    33392.993    12989.892       13.210        4.941      406.711      110.092        0.073      337.168        8.957      850.356
03/26/2014  16:25:00     -504.946       -4.891      -24.890      274.270      204.066       93.156    75224.090    41643.073     8678.124       19.055        6.277      504.970      100.675        0.040      337.146        8.920      850.368
03/26/2014  16:26:00     -581.915     -181.521      -14.668      341.050      243.870      128.258   116315.261    59472.732    16449.987       28.198        9.612      609.569      144.683        0.056      336.950        8.592      850.363
03/26/2014  16:27:00     -491.799     -154.107      -14.033      240.381      169.108       90.705    57783.058    28597.482     8227.390       18.019        4.730      515.378       92.862        0.032      336.945        8.584      850.366
03/26/2014  16:28:00     -469.375     -288.597       -7.839      296.193      222.095      116.437    87730.084    49325.972    13557.622       22.711        7.531      551.000      144.288        0.069      337.063        8.781      850.351
03/26/2014  16:29:00     -280.493      -69.487       14.265      187.234      165.587       81.503    35056.564    27419.005     6642.698        7.640        3.456      288.972       90.365        0.098      337.344        9.252      850.378
03/26/2014  16:30:00     -374.841     -153.634      -29.536      235.185      206.339       85.083    55311.802    42575.958     7239.143       13.503        5.256      405.104       85.594        0.045      337.211        9.030      850.360
03/26/2014  16:31:00     -659.207     -185.527      -21.425      286.110      175.051      103.415    81858.777    30642.888    10694.646       29.629        6.160      684.817      121.602        0.032      336.843        8.415      850.345
03/26/2014  16:32:00     -606.401      -69.253      -42.569      246.155      153.414       93.856    60592.392    23535.714     8808.951       23.362        4.647      610.343      110.102        0.033      336.957        8.603      850.366
03/26/2014  16:33:00     -250.779      -90.160       16.030      197.488      140.589       93.660    39001.434    19765.295     8772.223        6.939        3.377      266.494      109.284        0.168      337.513        9.534      850.341
03/26/2014  16:34:00     -419.200     -174.558      -22.968      218.835      189.579       81.481    47888.556    35940.140     6639.170       14.858        4.523      454.091       84.750        0.035      337.263        9.116      850.322
03/26/2014  16:35:00     -463.953     -246.317      -32.322      223.942      153.698       84.941    50149.989    23623.043     7214.986       17.896        4.049      525.285       90.149        0.029      337.133        8.899      850.284
03/26/2014  16:36:00     -354.524     -124.794        1.520      244.928      151.150       79.588    59989.577    22846.257     6334.324       11.520        4.459      375.847       99.811        0.071      337.545        9.589      850.304
03/26/2014  16:37:00     -458.018     -215.496       -1.270      196.783      162.777       94.777    38723.522    26496.439     8982.607       16.520        3.710      506.181       84.244        0.028      337.413        9.367      850.301
03/26/2014  16:38:00     -473.757     -130.284       -5.067      180.006      145.827       74.748    32402.301    21265.526     5587.266       15.034        2.963      491.344       74.138        0.023      337.052        8.764      850.347
03/26/2014  16:39:00     -127.686      -91.166       25.366      177.410      108.847       78.790    31474.232    11847.759     6207.835        3.738        2.476      156.891       96.192        0.376      337.707        9.861      850.369
03/26/2014  16:40:00     -228.093     -183.841       -5.853      122.494      155.549       70.063    15004.819    24195.467     4908.789        6.497        2.205      292.957       72.956        0.062      337.390        9.331      850.354
03/26/2014  16:41:00     -336.857     -154.555      -15.947      189.857      102.687       65.066    36045.835    10544.563     4233.566        9.421        2.541      370.621       69.614        0.035      337.548        9.593      850.317
03/26/2014  16:42:00     -296.514     -122.295       -6.853      206.662      152.095       88.389    42708.989    23132.963     7812.634        8.827        3.683      320.744      104.773        0.107      337.644        9.755      850.335
03/26/2014  16:43:00     -406.909      -40.217      -16.288      154.077      103.913       70.028    23739.596    10798.002     4903.987       10.344        1.972      408.891       63.616        0.024      337.290        9.162      850.331
03/26/2014  16:44:00     -505.791     -271.722      -15.057      266.163      185.043       84.842    70842.740    34240.831     7198.249       22.106        5.614      574.158       80.674        0.020      337.430        9.396      850.331
03/26/2014  16:45:00     -280.162     -209.665       -0.256      233.748      236.407      114.956    54638.061    55888.039    13214.899       12.307        6.187      349.929      131.437        0.141      337.418        9.378      850.302
03/26/2014  16:46:00     -462.652      -90.023       -0.244      287.387      212.807      129.469    82591.152    45286.963    16762.106       18.337        7.232      471.329      155.506        0.109      337.326        9.222      850.281
03/26/2014  16:47:00     -461.850     -124.039       -3.533      294.037      256.121      122.001    86457.900    65597.711    14884.198       19.779        8.347      478.217      145.940        0.093      337.421        9.381      850.297
03/26/2014  16:48:00     -530.530     -116.414      -15.129      281.578      221.904      113.379    79286.420    49241.338    12854.847       21.828        7.069      543.152      115.419        0.045      337.427        9.391      850.326
03/26/2014  16:49:00     -681.314     -275.047      -36.528      249.948      240.019      118.216    62473.944    57608.981    13974.972       33.759        6.703      734.738      110.037        0.022      337.115        8.868      850.344
03/26/2014  16:50:00     -389.516     -169.797      -11.395      262.931      172.882       96.884    69132.836    29888.255     9386.466       14.452        5.420      424.916      122.019        0.082      337.397        9.340      850.373
03/26/2014  16:51:00     -385.477     -180.644       -3.473      252.171      157.705      108.945    63590.437    24870.994    11869.029       14.076        5.017      425.706      129.558        0.093      337.161        8.945      850.419
03/26/2014  16:52:00     -294.223     -247.729        6.361      220.933      207.175       95.153    48811.440    42921.539     9054.057       12.436        5.039      384.625      106.386        0.077      337.408        9.358      850.420
03/26/2014  16:53:00     -628.800     -384.680      -11.231      283.668      231.727      141.488    80467.616    53697.329    20018.713       34.881        7.709      737.135      146.300        0.039      336.938        8.572      850.426
03/26/2014  16:54:00     -345.971     -304.471        2.590      202.364      168.372       91.988    40951.200    28349.074     8461.870       14.507        3.888      460.867       84.669        0.034      337.194        9.001      850.467
03/26/2014  16:55:00     -243.181     -204.416       19.293      226.953      165.729       88.868    51507.520    27466.229     7897.470        9.407        4.344      317.683       98.530        0.096      337.261        9.114      850.454
03/26/2014  16:56:00     -299.636     -248.993       17.487      192.944      227.205      102.053    37227.307    51622.102    10414.894       12.565        4.963      389.588      117.757        0.091      337.265        9.121      850.464
03/26/2014  16:57:00     -476.820     -386.866       -6.907      287.121      189.663      108.824    82438.529    35971.978    11842.730       25.364        6.513      614.022      123.210        0.040      336.920        8.543      850.490
03/26/2014  16:58:00     -245.398     -204.302       -9.337      182.589      113.310       68.554    33338.904    12839.065     4699.686        7.645        2.544      319.311       61.556        0.037      337.151        8.929      850.466
03/26/2014  16:59:00     -334.219     -227.511       -0.069      195.769      198.798       92.143    38325.659    39520.741     8490.356       12.488        4.317      404.306       96.796        0.057      337.224        9.050      850.448
03/26/2014  17:00:00     -165.544     -118.798        5.149      126.835       94.639       59.807    16087.240     8956.551     3576.872        3.508        1.431      203.759       51.879        0.065      337.548        9.595      850.476
03/26/2014  17:01:00     -354.136     -142.498       10.946      260.115      178.906       99.829    67659.777    32007.262     9965.760       12.771        5.482      381.730      110.901        0.084      337.466        9.457      850.471
03/26/2014  17:02:00     -591.114     -279.514      -25.412      355.553      266.774      112.171   126417.718    71168.120    12582.338       31.914       10.508      653.868      138.596        0.045      337.201        9.012      850.468
03/26/2014  17:03:00     -576.236     -307.509      -13.001      270.128      198.828      125.759    72969.083    39532.669    15815.289       27.752        6.416      653.154      137.058        0.044      337.018        8.706      850.393
03/26/2014  17:04:00     -426.396     -292.960      -36.880      249.741      217.167      112.964    62370.742    47161.684    12760.765       19.562        6.115      517.339      119.554        0.053      336.978        8.638      850.437
03/26/2014  17:05:00     -240.271     -253.985       14.222      247.237      199.297       94.403    61125.990    39719.305     8911.912       11.608        5.488      349.626      106.241        0.092      337.122        8.880      850.435
03/26/2014  17:06:00      -77.416     -222.422       12.841      105.450      177.170       60.318    11119.615    31389.081     3638.276        5.088        2.307      235.510       49.190        0.044      337.328        9.225      850.426
03/26/2014  17:07:00     -367.987     -280.030      -18.223      249.173      193.149      102.770    62087.293    37306.719    10561.601       16.204        5.498      462.418      115.045        0.062      337.251        9.096      850.449
03/26/2014  17:08:00     -620.927     -389.299       -8.733      288.203      229.904      134.663    83060.867    52855.696    18134.202       34.558        7.703      732.873      153.777        0.044      336.879        8.473      850.383
03/26/2014  17:09:00     -515.030     -298.831        0.704      344.499      236.480      110.421   118679.442    55922.554    12192.711       27.064        9.340      595.446      143.741        0.058      336.973        8.630      850.362
03/26/2014  17:10:00     -530.063     -175.654       -5.111      311.916      193.270      126.521    97291.814    37353.399    16007.658       23.122        7.533      558.410      141.619        0.064      336.980        8.642      850.298
03/26/2014  17:11:00     -341.970     -170.178       -1.568      249.186      173.476      106.724    62093.486    30093.964    11390.038       12.472        5.179      381.974      107.543        0.079      336.964        8.615      850.300
03/26/2014  17:12:00     -261.973     -213.631       31.262      239.060      193.179      104.022    57149.582    37317.953    10820.516       11.025        5.264      338.036      123.816        0.134      336.949        8.591      850.292
03/26/2014  17:13:00     -272.171      -21.010       26.491      206.384      135.097       99.637    42594.546    18251.288     9927.569        7.298        3.539      272.980      113.332        0.172      337.261        9.113      850.275
03/26/2014  17:14:00     -281.365     -124.715       10.895      176.618      124.998       80.336    31194.058    15624.392     6453.799        7.404        2.664      307.767       95.075        0.095      337.268        9.125      850.243
03/26/2014  17:15:00     -305.669     -174.536        7.464      186.938      154.923       83.586    34945.940    24001.155     6986.587        9.493        3.297      351.989       86.669        0.061      337.231        9.062      850.265
03/26/2014  17:16:00     -393.535     -246.258      -12.736      258.781      155.526       84.081    66967.792    24188.456     7069.589       15.693        4.911      464.234      116.706        0.063      337.055        8.768      850.250
03/26/2014  17:17:00     -426.223     -240.318        5.529      320.039      236.370      128.091   102425.239    55870.768    16407.319       20.704        8.735      489.304      127.742        0.068      336.901        8.511      850.251
03/26/2014  17:18:00     -706.669     -292.904      -14.694      322.075      288.516      146.305   103732.627    83241.650    21405.201       39.684       10.419      764.967      160.492        0.044      336.813        8.362      850.188
03/26/2014  17:19:00     -628.846     -399.121      -17.950      278.744      202.707      118.380    77697.960    41090.050    14013.794       34.391        6.640      744.812      131.371        0.031      336.746        8.252      850.178
03/26/2014  17:20:00     -554.941     -362.533        6.665      339.402      245.962      143.332   115193.447    60497.341    20543.955       31.780        9.812      662.865      171.018        0.067      336.796        8.335      850.172
03/26/2014  17:21:00     -474.510     -141.748      -28.272      253.231      212.314      109.640    64126.065    45077.125    12020.821       18.361        6.061      495.229      108.521        0.048      337.003        8.681      850.162
03/26/2014  17:22:00     -425.761     -307.031       10.871      323.156      277.145      148.861   104429.681    76809.348    22159.711       23.949       10.170      524.919      168.124        0.103      336.857        8.437      850.112
03/26/2014  17:23:00     -571.571     -220.305      -16.793      224.086      181.341       98.274    50214.555    32884.677     9657.783       23.411        4.638      612.558       97.856        0.026      336.922        8.545      850.142
03/26/2014  17:24:00     -680.544     -446.758      -16.349      314.489      312.292      137.384    98903.508    97526.410    18874.461       43.911       10.765      814.084      160.801        0.039      336.751        8.259      850.160
03/26/2014  17:25:00     -743.695     -451.375      -48.563      334.276      223.466      127.788   111740.364    49937.162    16329.675       46.856        8.900      869.955      118.954        0.019      336.717        8.204      850.177
03/26/2014  17:26:00     -766.453     -198.212      -21.612      321.470      238.751      123.315   103342.691    57002.188    15206.475       40.134        8.778      791.668      154.399        0.038      336.720        8.207      850.199
03/26/2014  17:27:00     -463.968     -355.419       -3.845      307.049      230.105      127.007    94279.121    52948.425    16130.811       25.245        8.168      584.456      138.811        0.056      336.726        8.219      850.226
03/26/2014  17:28:00     -347.486     -196.295       32.049      317.196      236.873      121.649   100613.343    56108.973    14798.361       16.588        8.576      399.097      156.981        0.155      336.959        8.606      850.237
03/26/2014  17:29:00     -572.510     -384.625      -29.675      331.574      226.036      121.451   109941.380    51092.256    14750.264       32.615        8.789      689.714      148.388        0.046      336.757        8.270      850.242
03/26/2014  17:30:00     -639.560     -345.450      -26.508      258.063      215.619      129.366    66596.474    46491.403    16735.597       32.942        6.491      726.893      123.302        0.029      336.781        8.309      850.266
03/26/2014  17:31:00     -397.234     -317.745      -17.552      246.137      194.547      115.633    60583.369    37848.689    13371.101       18.541        5.590      508.681      134.347        0.070      336.763        8.280      850.285
03/26/2014  17:32:00     -441.508     -270.974      -16.208      210.112      156.448       97.144    44147.182    24475.939     9436.886       17.332        3.903      518.031       96.410        0.035      336.837        8.402      850.275
03/26/2014  17:33:00     -409.298     -311.127       14.435      315.423      233.377      137.973    99491.544    54464.921    19036.611       21.873        8.650      514.125      173.696        0.114      336.790        8.325      850.271
03/26/2014  17:34:00     -442.405     -280.983       -0.880      246.077      244.104      118.742    60554.122    59586.765    14099.639       20.443        6.712      524.094      126.931        0.059      336.732        8.229      850.231
03/26/2014  17:35:00     -404.107     -269.251       -0.814      287.202      193.578      108.258    82484.866    37472.489    11719.772       18.371        6.584      485.591      112.103        0.053      336.705        8.183      850.297
03/26/2014  17:36:00     -365.030     -311.593      -15.698      249.745      175.992      118.565    62372.545    30973.239    14057.730       16.897        5.370      479.935      126.063        0.069      336.660        8.108      850.247
03/26/2014  17:37:00     -200.911     -226.129       24.414      198.059      157.036       96.920    39227.364    24660.313     9393.576        8.267        3.664      302.489      105.806        0.122      336.886        8.484      850.284
03/26/2014  17:38:00     -605.544     -267.402      -43.688      316.488      210.563      130.776   100164.736    44336.951    17102.390       30.082        8.080      661.957      151.111        0.052      336.712        8.196      850.279
03/26/2014  17:39:00     -473.736     -209.723      -31.311      173.389      157.391       84.187    30063.720    24771.936     7087.500       16.564        3.096      518.083       74.749        0.021      336.658        8.104      850.312
03/26/2014  17:40:00     -414.923     -167.296        7.632      242.226      200.390      103.229    58673.615    40156.076    10656.128       15.482        5.474      447.380      110.009        0.060      336.747        8.253      850.310
03/26/2014  17:41:00     -410.332     -319.380       -0.772      254.545      191.942      110.670    64793.285    36841.871    12247.848       19.211        5.694      519.977      119.600        0.053      336.569        7.956      850.301
03/26/2014  17:42:00     -421.563     -263.268       -2.267      219.207      184.316      101.722    48051.538    33972.351    10347.309       16.968        4.619      497.016      115.739        0.054      336.580        7.973      850.281
03/26/2014  17:43:00     -327.978      -49.997       -4.926      201.268      142.727       84.532    40508.986    20370.997     7145.626        8.905        3.401      331.767       94.110        0.080      336.776        8.302      850.271
03/26/2014  17:44:00     -345.750     -210.953       16.866      219.152      266.632      125.127    48027.714    71092.758    15656.680       14.953        6.739      405.023      141.162        0.121      336.677        8.136      850.250
03/26/2014  17:45:00     -433.756     -340.539      -14.419      251.790      219.227      114.778    63398.350    48060.327    13173.976       21.445        6.232      551.463      120.500        0.048      336.573        7.963      850.266
03/26/2014  17:46:00     -452.987     -244.435       -5.609      259.929      166.345      101.430    67563.296    27670.527    10288.098       18.523        5.276      514.729      113.284        0.048      336.559        7.939      850.241
03/26/2014  17:47:00     -410.984     -218.889      -20.900      213.602      150.660       87.926    45625.688    22698.380     7730.951       14.664        3.803      465.640       98.892        0.045      336.627        8.052      850.304
03/26/2014  17:48:00     -219.453     -149.526       21.789      225.836      147.555       78.106    51001.942    21772.587     6100.545        7.492        3.944      265.551       90.192        0.115      336.872        8.463      850.351
03/26/2014  17:49:00     -553.949     -339.982      -16.364      275.087      242.516      117.175    75673.069    58813.974    13730.070       28.544        7.411      649.960      127.375        0.038      336.527        7.885      850.333
03/26/2014  17:50:00     -523.244     -276.328      -10.045      227.708      187.640       94.385    51850.853    35208.833     8908.554       22.309        4.798      591.728      114.724        0.038      336.538        7.903      850.347
03/26/2014  17:51:00     -385.295     -234.793       -7.229      267.931      166.268      101.329    71787.019    27645.203    10267.527       15.664        5.485      451.198      129.395        0.082      336.681        8.144      850.376
03/26/2014  17:52:00     -551.506     -288.480      -29.201      298.828      274.474      130.789    89298.384    75335.868    17105.824       28.495        9.087      622.398      141.489        0.052      336.446        7.749      850.403
03/26/2014  17:53:00     -533.221     -184.901      -13.140      230.855      196.014      105.139    53294.131    38421.459    11054.175       21.071        5.138      564.370      112.850        0.040      336.489        7.823      850.419
03/26/2014  17:54:00     -356.247     -252.814        8.738      206.353      188.888       99.378    42581.732    35678.491     9876.056       13.950        4.407      436.838      108.751        0.062      336.527        7.886      850.490
03/26/2014  17:55:00     -346.485     -222.261       -0.320      287.694      161.638       94.716    82767.689    26126.730     8971.160       14.364        5.893      411.645      120.542        0.086      336.548        7.921      850.475
03/26/2014  17:56:00     -467.262     -226.476      -18.405      212.256      184.157       86.910    45052.706    33913.911     7553.293       17.822        4.326      519.255       98.668        0.036      336.456        7.767      850.488
03/26/2014  17:57:00     -406.157     -240.076        1.735      265.673      140.536      113.211    70582.113    19750.333    12816.693       16.286        5.157      471.806      131.450        0.078      336.329        7.554      850.495
03/26/2014  17:58:00     -155.186     -173.367        7.941      200.335      175.974       85.215    40134.263    30966.722     7261.647        6.627        3.918      232.678       81.422        0.122      336.565        7.949      850.491
03/26/2014  17:59:00     -454.041     -373.105      -13.432      253.124      196.099      118.079    64071.746    38454.913    13942.588       23.098        5.823      587.674      125.994        0.046      336.366        7.615      850.508
03/26/2014  18:00:00     -335.071     -203.945      -17.256      247.163      209.732       95.209    61089.599    43987.542     9064.832       13.413        5.707      392.257      111.947        0.081      336.465        7.782      850.521
03/26/2014  18:01:00     -444.025     -205.092      -17.850      268.525      227.972      106.607    72105.541    51971.155    11364.955       18.746        6.772      489.102      120.084        0.060      336.423        7.711      850.570
03/26/2014  18:02:00     -517.392      -91.198      -34.482      293.175      191.115       99.129    85951.297    36525.051     9826.519       20.473        6.615      525.368      118.541        0.051      336.436        7.733      850.591
03/26/2014  18:03:00     -448.478     -316.168      -20.828      223.996      206.484      106.638    50174.418    42635.607    11371.730       20.283        5.209      548.721      120.673        0.048      336.374        7.628      850.614
03/26/2014  18:04:00     -556.499     -103.361      -29.750      282.507      200.673      103.294    79810.455    40269.795    10669.572       22.598        6.537      566.016      110.290        0.038      336.394        7.663      850.618
03/26/2014  18:05:00     -329.323      -33.507       11.191      264.176      184.119      107.826    69789.112    33899.784    11626.489       11.249        5.766      331.023      122.120        0.136      336.539        7.907      850.642
03/26/2014  18:06:00     -652.096     -192.068      -29.433      275.045      196.790      107.987    75649.709    38726.224    11661.165       29.449        6.302      679.793      104.023        0.023      336.343        7.575      850.660
03/26/2014  18:07:00     -452.261     -186.503       -6.543      272.374      173.972      104.632    74187.684    30266.416    10947.841       17.736        5.770      489.206      115.767        0.056      336.286        7.483      850.666
03/26/2014  18:08:00     -605.633     -201.822      -15.133      266.684      239.412      104.835    71120.588    57318.178    10990.456       27.356        6.971      638.376      123.684        0.038      336.170        7.288      850.682
03/26/2014  18:09:00     -290.588      -99.787        0.200      179.424      162.619       84.035    32192.860    26444.856     7061.919        8.004        3.285      307.244       91.662        0.089      336.303        7.511      850.710
03/26/2014  18:10:00     -337.620     -196.904       -0.557      233.495      174.472       92.782    54520.051    30440.603     8608.483       12.315        4.678      390.843      111.980        0.082      336.257        7.434      850.703
03/26/2014  18:11:00     -395.516     -100.716      -16.656      189.306      142.711       76.887    35836.764    20366.459     5911.555       11.447        3.106      408.138       77.745        0.036      336.267        7.450      850.708
03/26/2014  18:12:00     -475.794     -227.671       -2.884      292.161      165.324       97.421    85358.002    27331.981     9490.885       20.018        6.109      527.460      129.271        0.060      336.161        7.275      850.684
03/26/2014  18:13:00     -484.812     -109.531      -26.379      212.442      163.940      105.865    45131.515    26876.402    11207.438       16.546        4.161      497.031       96.824        0.038      336.180        7.303      850.656
03/26/2014  18:14:00     -608.424     -196.622      -10.739      268.798      235.751       99.284    72252.554    55578.723     9857.262       27.329        6.884      639.406      112.668        0.031      336.143        7.243      850.605
03/26/2014  18:15:00     -336.308     -204.220       -8.962      201.045      195.728       98.878    40419.265    38309.404     9776.785       12.168        4.425      393.458      101.919        0.067      336.182        7.310      850.608
03/26/2014  18:16:00     -260.392     -227.717       12.749      242.926      153.311      109.687    59012.908    23504.265    12031.186       10.717        4.727      345.918      128.102        0.137      336.189        7.321      850.576
03/26/2014  18:17:00     -330.321      -99.116       -6.946      207.811      174.595       78.237    43185.389    30483.570     6121.041        9.937        3.990      344.871       76.352        0.049      336.219        7.371      850.573
03/26/2014  18:18:00     -256.417     -273.793        6.630      184.447      192.306      103.865    34020.558    36981.612    10788.024       11.126        4.090      375.116       89.511        0.057      336.172        7.292      850.566
03/26/2014  18:19:00     -309.621     -223.751        8.993      153.807      143.829       73.971    23656.660    20686.826     5471.730        9.790        2.491      382.008       64.835        0.029      336.153        7.260      850.549
03/26/2014  18:20:00     -517.987     -241.483      -31.509      136.725      182.317       81.177    18693.624    33239.406     6589.746       19.306        2.926      571.511       72.891        0.016      336.025        7.046      850.508
03/26/2014  18:21:00     -495.455     -256.081      -22.533      196.340      145.811       90.205    38549.536    21260.973     8136.896       18.974        3.397      557.721       98.394        0.031      336.037        7.066      850.496
03/26/2014  18:22:00     -436.742     -283.142      -24.797      199.956      160.314       80.941    39982.240    25700.582     6551.494       17.187        3.612      520.493       78.975        0.023      336.037        7.068      850.518
03/26/2014  18:23:00     -522.779     -251.219      -13.541      206.668      213.433       88.448    42711.857    45553.551     7823.053       21.632        4.804      580.008       81.890        0.020      336.020        7.038      850.428
03/26/2014  18:24:00     -340.985      -43.389        5.028      179.962      133.809       74.073    32386.348    17904.791     5486.769        8.697        2.789      343.734       81.488        0.056      336.154        7.264      850.447
03/26/2014  18:25:00     -321.509     -197.204       -7.479      192.468      123.105       76.509    37043.813    15154.935     5853.634       10.017        2.903      377.171       80.375        0.045      336.103        7.177      850.459
03/26/2014  18:26:00     -147.207     -134.281        8.571      146.194      117.216       50.129    21372.636    13739.619     2512.878        3.869        1.881      199.252       52.987        0.071      336.158        7.270      850.420
03/26/2014  18:27:00     -292.655     -183.249       -5.694      237.025      173.067       91.668    56180.751    29952.348     8403.059       10.688        4.727      345.293      101.474        0.086      336.122        7.209      850.390
03/26/2014  18:28:00     -308.618     -122.580       -8.028      204.439      181.261       83.836    41795.241    32855.597     7028.450        9.599        4.084      332.070       80.149        0.058      336.102        7.176      850.385
03/26/2014  18:29:00     -368.405      -21.274      -38.038      296.912      141.552       81.696    88156.697    20036.961     6674.227       12.622        5.743      369.019      119.966        0.106      336.066        7.115      850.353
03/26/2014  18:30:00     -471.799      -11.448      -11.964      232.989      174.678       86.809    54284.105    30512.350     7535.716       15.758        4.617      471.938       94.966        0.040      336.045        7.082      850.352
03/26/2014  18:31:00     -355.248     -198.169        1.263      279.643      203.908      105.411    78200.191    41578.468    11111.383       14.816        6.545      406.783      104.780        0.066      336.086        7.147      850.388
03/26/2014  18:32:00     -658.413     -373.124      -45.529      240.377      200.262      121.461    57781.200    40104.724    14752.853       34.370        5.632      756.789      120.314        0.025      335.925        6.880      850.335
03/26/2014  18:33:00     -521.549     -188.716      -26.381      243.081      252.288      115.491    59088.373    63649.101    13338.173       22.217        6.804      554.642      130.283        0.055      335.950        6.921      850.339
03/26/2014  18:34:00     -357.773     -200.546        0.034      244.307      202.878      108.859    59685.749    41159.645    11850.374       14.044        5.635      410.146      122.274        0.089      335.964        6.945      850.371
03/26/2014  18:35:00     -314.096     -116.910       -1.446      172.886      153.723       73.393    29889.602    23630.889     5386.532        8.560        2.945      335.148       87.416        0.068      336.008        7.019      850.423
03/26/2014  18:36:00     -258.304     -272.933       -1.415      184.701      168.322       82.296    34114.507    28332.301     6772.656       10.520        3.461      375.783       81.858        0.047      335.985        6.979      850.424
03/26/2014  18:37:00     -303.349     -277.820       -7.568      216.370      141.777      111.298    46815.900    20100.789    12387.196       12.427        3.965      411.345      130.035        0.100      335.928        6.885      850.405
03/26/2014  18:38:00     -338.564     -151.432        0.859      201.861      181.152       88.966    40747.772    32816.164     7915.018       10.950        4.074      370.888       98.326        0.070      335.990        6.989      850.399
03/26/2014  18:39:00     -396.832     -148.818       -8.777      167.128      181.533       77.935    27931.726    32954.101     6073.823       12.332        3.348      423.818       75.038        0.031      336.029        7.053      850.450
03/26/2014  18:40:00     -297.669     -169.120       15.304      194.294      142.570       90.317    37750.268    20326.163     8157.137        9.182        3.312      342.357      108.214        0.100      336.009        7.020      850.436
03/26/2014  18:41:00     -319.924     -231.037       17.896      223.811      149.530      100.130    50091.173    22359.339    10025.941       11.925        4.124      394.626      102.124        0.067      336.048        7.085      850.409
03/26/2014  18:42:00     -368.620     -262.724      -11.374      197.842      155.351       85.462    39141.504    24134.030     7303.814       13.779        3.529      452.664       89.346        0.039      336.043        7.077      850.440
03/26/2014  18:43:00     -292.602     -138.689      -13.350      194.408      127.935       66.569    37794.418    16367.391     4431.465        8.180        2.930      323.806       76.372        0.056      336.154        7.261      850.397
03/26/2014  18:44:00     -189.575      -61.884        3.189      122.441      144.137       64.820    14991.705    20775.351     4201.694        3.987        1.998      199.420       66.365        0.111      336.171        7.291      850.449
03/26/2014  18:45:00     -369.243     -121.354       -7.208      189.393      139.747       82.345    35869.678    19529.235     6780.736       10.664        3.109      388.673       92.747        0.057      336.038        7.069      850.444
03/26/2014  18:46:00     -335.334     -129.922       -6.341      161.007      141.873       78.527    25923.197    20127.821     6166.565        9.078        2.611      359.622       77.978        0.047      336.004        7.010      850.432
03/26/2014  18:47:00     -343.621     -203.586       -0.469      198.498      143.212       88.283    39401.527    20509.785     7793.963       11.360        3.385      399.403       93.376        0.055      336.028        7.052      850.429
03/26/2014  18:48:00     -355.863     -202.447      -11.868      168.216      125.541       74.847    28296.736    15760.575     5602.003       10.870        2.483      409.418       81.648        0.040      336.056        7.100      850.417
03/26/2014  18:49:00     -249.673     -246.346      -12.351      107.285      132.656       66.585    11510.130    17597.529     4433.521        7.835        1.677      350.747       61.527        0.031      336.074        7.129      850.440
03/26/2014  18:50:00     -184.408      -61.083        2.889      131.687      107.627       57.606    17341.354    11583.592     3318.394        3.499        1.612      194.261       46.457        0.057      336.178        7.302      850.423
03/26/2014  18:51:00     -218.460     -172.215        8.589      179.728      148.340       80.183    32302.262    22004.775     6429.296        6.908        3.037      278.178       89.249        0.103      336.108        7.185      850.444
03/26/2014  18:52:00     -141.727     -123.407       17.998      154.591      118.517       76.943    23898.412    14046.190     5920.259        3.974        2.193      187.925       91.404        0.237      336.126        7.215      850.454
03/26/2014  18:53:00     -177.567     -138.346      -11.559      106.851      111.320       66.095    11417.191    12392.222     4368.548        3.949        1.409      225.100       67.454        0.090      336.073        7.127      850.467
03/26/2014  18:54:00     -134.386      -51.155       23.343      120.743       90.361       55.019    14578.927     8165.170     3027.122        2.349        1.289      143.793       57.862        0.162      336.165        7.283      850.441
03/26/2014  18:55:00     -229.090     -100.551       -8.175      182.481       82.981       68.172    33299.290     6885.812     4647.375        5.374        2.242      250.185       87.021        0.121      335.989        6.986      850.460
03/26/2014  18:56:00     -107.935      -85.820       11.727      139.486       70.715       72.484    19456.418     5000.615     5253.940        2.443        1.486      137.895       82.303        0.356      336.038        7.069      850.463
03/26/2014  18:57:00     -155.033     -113.216       13.102      114.306      104.764       56.911    13065.891    10975.571     3238.882        3.215        1.364      191.972       54.290        0.080      335.999        7.005      850.473
03/26/2014  18:58:00     -104.736      -70.256       11.864      137.103       84.005       48.724    18797.137     7056.777     2374.014        2.213        1.411      126.117       61.251        0.236      336.048        7.087      850.481
03/26/2014  18:59:00     -344.207      -29.239       -5.825      148.790      157.580       74.680    22138.500    24831.502     5577.041        8.595        2.627      345.446       67.381        0.038      335.976        6.963      850.464
03/26/2014  19:00:00     -318.309      -74.631       -5.225      164.633      118.058       73.534    27104.160    13937.724     5407.315        7.667        2.322      326.941       71.618        0.048      335.982        6.974      850.468
03/26/2014  19:01:00     -184.212        4.878        8.609      133.073      101.562       60.403    17708.413    10314.829     3648.482        3.285        1.584      184.277       58.243        0.100      336.126        7.216      850.483
03/26/2014  19:02:00      -48.898      -72.532       17.545       87.219       74.134       48.278     7607.159     5495.813     2330.800        1.169        0.772       87.475       46.026        0.277      336.036        7.068      850.461
03/26/2014  19:03:00     -280.381      -28.716      -25.910       82.437       94.385       47.894     6795.902     8908.527     2293.797        4.905        0.900      281.847       36.262        0.017      336.013        7.026      850.452
03/26/2014  19:04:00     -187.909     -102.982       -1.959      118.944       82.938       51.941    14147.723     6878.762     2697.834        3.482        1.186      214.278       41.248        0.037      335.991        6.991      850.460
03/26/2014  19:05:00     -218.129      -45.810       11.652      165.226       96.045       56.658    27299.559     9224.586     3210.115        4.477        1.987      222.887       70.684        0.101      335.989        6.988      850.440
03/26/2014  19:06:00     -156.808      -98.508       -2.815      161.544       93.623       87.606    26096.308     8765.331     7674.725        3.841        2.127      185.183       88.233        0.227      335.931        6.890      850.426
03/26/2014  19:07:00     -356.447     -147.812       -9.677      199.277      193.106       90.034    39711.246    37289.899     8106.093       11.703        4.255      385.879       86.850        0.051      335.865        6.781      850.402
03/26/2014  19:08:00     -397.179     -318.598        0.154      231.634      172.886      105.502    53654.178    29889.531    11130.722       17.695        4.734      509.172      104.643        0.042      335.798        6.669      850.441
03/26/2014  19:09:00     -427.242     -206.682      -13.330      230.018      183.891       98.390    52908.363    33815.815     9680.538       16.090        4.820      474.608      119.838        0.064      335.776        6.630      850.463
03/26/2014  19:10:00     -480.655     -142.535       -5.239      200.226      178.813       85.395    40090.253    31974.106     7292.233       16.535        3.968      501.344       84.675        0.029      335.732        6.558      850.451
03/26/2014  19:11:00     -294.852      -79.561       13.270      172.128      145.960       83.095    29627.960    21304.448     6904.746        7.563        2.892      305.397       88.758        0.084      335.728        6.552      850.441
03/26/2014  19:12:00     -477.101     -179.232      -20.528      186.606      146.453       89.344    34821.685    21448.432     7982.390       16.220        3.213      509.656       92.450        0.033      335.716        6.532      850.458
03/26/2014  19:13:00     -398.966     -112.948       -8.860      175.887      146.794       79.758    30936.151    21548.443     6361.418       11.542        2.942      414.646       80.384        0.038      335.733        6.559      850.493
03/26/2014  19:14:00     -295.755     -239.269       -8.443      175.268      140.387       77.574    30718.726    19708.487     6017.690       10.061        2.822      380.421       97.283        0.065      335.717        6.534      850.516
03/26/2014  19:15:00     -332.314     -270.590       -4.503      181.981      158.165       95.999    33116.988    25016.152     9215.781       12.550        3.367      428.546      106.478        0.062      335.696        6.498      850.504
03/26/2014  19:16:00     -269.211     -246.138        1.656      202.515      170.443       94.862    41012.246    29050.741     8998.805       10.605        3.953      364.772      104.580        0.082      335.703        6.511      850.532
03/26/2014  19:17:00     -351.212     -319.045      -21.910      241.033      183.373      101.947    58097.072    33625.694    10393.123       16.385        5.106      474.488      111.431        0.055      335.652        6.424      850.510
03/26/2014  19:18:00     -261.009      -93.237       15.950      170.496      170.310       79.615    29068.790    29005.331     6338.483        7.073        3.221      277.162       87.284        0.099      335.688        6.486      850.552
03/26/2014  19:19:00     -416.519     -184.981       -1.254      185.659      173.740       86.646    34469.340    30185.463     7507.545       13.992        3.608      455.747       93.012        0.042      335.626        6.382      850.550
03/26/2014  19:20:00     -234.107     -137.409        3.367      162.830      114.166       64.154    26513.621    13033.839     4115.757        5.867        2.183      271.455       74.967        0.076      335.647        6.418      850.562
03/26/2014  19:21:00     -144.220      -36.109       -7.208      109.376       68.549       50.639    11963.016     4699.031     2564.301        2.069        0.961      148.671       48.565        0.107      335.671        6.459      850.565
03/26/2014  19:22:00     -290.120     -124.337        2.314      130.510      135.991       71.332    17032.849    18493.555     5088.310        7.012        2.031      315.641       64.147        0.041      335.676        6.466      850.571
03/26/2014  19:23:00     -342.524     -230.653      -16.642      157.384      142.848       73.379    24769.645    20405.572     5384.478       11.067        2.528      412.945       60.820        0.022      335.681        6.472      850.613
03/26/2014  19:24:00     -122.674      -85.849       19.564      178.121      168.917       91.247    31727.156    28532.787     8326.102        4.568        3.429      149.729      103.433        0.477      335.700        6.506      850.662
03/26/2014  19:25:00     -116.649     -151.541       25.516      121.069      161.690       64.572    14657.787    26143.546     4169.588        4.109        2.249      191.237       58.867        0.095      335.712        6.526      850.680
03/26/2014  19:26:00     -341.634      -52.951      -13.565      156.881      133.523       68.995    24611.603    17828.345     4760.366        8.344        2.360      345.713       74.313        0.046      335.654        6.429      850.684
03/26/2014  19:27:00     -182.351     -206.072       -9.527      115.822      114.632       67.595    13414.778    13140.383     4569.099        5.346        1.556      275.168       69.366        0.064      335.648        6.419      850.682
03/26/2014  19:28:00     -210.502     -142.271       -8.899       99.175       80.361       55.435     9835.646     6457.942     3073.011        4.199        0.968      254.071       46.813        0.034      335.663        6.444      850.718
03/26/2014  19:29:00     -171.979     -172.554        1.450      138.856       86.237       66.406    19280.925     7436.862     4409.768        4.523        1.556      243.622       67.917        0.078      335.656        6.433      850.724
03/26/2014  19:30:00     -117.496     -104.157        6.813       95.666      107.133       41.765     9152.034    11477.501     1744.320        2.353        1.119      157.016       41.111        0.069      335.675        6.464      850.705
03/26/2014  19:31:00      -53.397      -63.033        9.904       86.240       93.374       51.136     7437.377     8718.700     2614.863        1.284        0.939       82.610       49.315        0.356      335.717        6.537      850.671
03/26/2014  19:32:00     -154.816     -101.919       16.260      139.633      108.120       59.662    19497.510    11690.001     3559.497        3.468        1.737      185.352       69.032        0.139      335.718        6.538      850.738
03/26/2014  19:33:00     -223.834      -77.931       14.837      180.971      139.656       71.462    32750.608    19503.900     5106.818        5.687        2.868      237.012       74.997        0.100      335.733        6.561      850.754
03/26/2014  19:34:00     -353.093     -109.008      -12.225      150.610      143.897       78.176    22683.370    20706.299     6111.519        9.309        2.475      369.536       81.614        0.049      335.671        6.459      850.753
03/26/2014  19:35:00     -220.485      -63.230       -5.156      121.649       99.453       53.003    14798.591     9890.864     2809.346        4.006        1.375      229.372       64.955        0.080      335.735        6.564      850.800
03/26/2014  19:36:00     -207.709      -71.530       -0.275      120.089       94.471       44.321    14421.444     8924.758     1964.322        3.678        1.266      219.680       46.006        0.044      335.660        6.440      850.785
03/26/2014  19:37:00     -355.769     -290.363      -27.391      157.833      165.080       75.834    24911.175    27251.387     5750.728       13.476        2.896      459.219       79.561        0.030      335.632        6.392      850.765
03/26/2014  19:38:00     -202.388     -109.381       10.900      152.413      103.141       63.974    23229.735    10638.168     4092.736        4.549        1.898      230.055       71.351        0.096      335.707        6.518      850.786
03/26/2014  19:39:00     -201.602     -100.380        9.974      117.974      110.577       55.033    13917.949    12227.339     3028.681        3.999        1.459      225.210       40.874        0.033      335.685        6.480      850.798
03/26/2014  19:40:00     -106.874     -151.138        7.557      119.070       60.157       41.417    14177.784     3618.867     1715.385        2.691        0.976      185.107       46.393        0.063      335.752        6.593      850.831
03/26/2014  19:41:00     -174.140     -198.717        3.182      146.285      142.648       66.769    21399.321    20348.498     4458.084        5.801        2.310      264.222       66.263        0.063      335.765        6.614      850.874
03/26/2014  19:42:00     -253.625     -200.488       -7.675       97.841       91.594       62.469     9572.865     8389.446     3902.322        6.322        1.093      323.298       54.717        0.029      335.714        6.528      850.894
03/26/2014  19:43:00     -199.042     -111.653        8.687      150.265      111.249       76.344    22579.672    12376.319     5828.476        4.646        2.039      228.219       85.365        0.140      335.738        6.569      850.928
03/26/2014  19:44:00     -198.322     -132.208       -4.192      100.013       87.375       53.236    10002.590     7634.442     2834.028        3.865        1.024      238.350       50.953        0.046      335.741        6.572      850.944
03/26/2014  19:45:00     -306.775     -224.415        0.945      189.915      149.155       80.066    36067.626    22247.214     6410.616       10.459        3.236      380.096       90.399        0.057      335.749        6.587      850.969
03/26/2014  19:46:00     -185.774     -213.674        3.432      126.706      131.303       78.473    16054.441    17240.543     6157.986        5.981        1.973      283.141       66.899        0.056      335.737        6.569      850.985
03/26/2014  19:47:00     -218.903     -171.938        5.625      147.947      140.594       82.583    21888.199    19766.674     6819.876        6.298        2.424      278.354       84.947        0.093      335.714        6.527      850.945
03/26/2014  19:48:00     -202.650     -154.411       -0.085      138.604      141.120       71.488    19211.173    19914.770     5110.505        5.456        2.212      254.774       75.282        0.087      335.699        6.504      850.911
03/26/2014  19:49:00     -169.874     -109.591       -8.033      121.238       85.258       53.771    14698.709     7268.941     2891.284        3.289        1.243      202.157       39.450        0.038      335.738        6.569      850.901
03/26/2014  19:50:00     -157.687      -91.265        7.967      106.319       71.472       42.652    11303.679     5108.284     1819.188        2.574        0.912      182.193       44.491        0.060      335.692        6.492      850.956
03/26/2014  19:51:00      -12.917      -68.299       19.629       88.322       49.367       37.743     7800.821     2437.056     1424.513        0.844        0.583       69.510       39.269        0.319      335.716        6.536      850.931
03/26/2014  19:52:00     -289.931     -142.346        0.717      169.020      106.687       69.244    28567.724    11382.102     4794.723        7.452        2.237      322.990       85.045        0.069      335.658        6.434      850.900
03/26/2014  19:53:00     -239.345     -144.536        8.719      175.392      113.034       73.848    30762.186    12776.715     5453.473        6.361        2.450      279.601       80.953        0.084      335.621        6.373      850.911
03/26/2014  19:54:00     -204.591      -47.976       -0.155      126.490       77.522       53.444    15999.836     6009.715     2856.214        3.451        1.243      210.141       58.575        0.078      335.583        6.312      850.913
03/26/2014  19:55:00     -154.291      -32.869       -1.395      131.741       92.445       44.682    17355.798     8546.147     1996.518        2.639        1.395      157.754       50.739        0.103      335.611        6.358      850.896
03/26/2014  19:56:00     -127.200     -101.946       19.091      137.120      119.413       63.449    18801.966    14259.405     4025.728        3.200        1.854      163.012       62.318        0.146      335.587        6.320      850.887
03/26/2014  19:57:00     -205.586     -178.438      -13.259       67.638       73.947       43.585     4574.859     5468.170     1899.649        4.311        0.597      272.224       24.448        0.008      335.618        6.367      850.898
03/26/2014  19:58:00     -209.720     -229.816        3.251      133.841      166.367       72.363    17913.534    27677.832     5236.371        7.381        2.541      311.124       80.512        0.067      335.534        6.228      850.894
03/26/2014  19:59:00     -463.361     -159.647      -21.212      197.807      207.422       89.671    39127.691    43023.886     8040.949       16.540        4.510      490.093       81.789        0.028      335.481        6.140      850.872
03/26/2014  20:00:00     -276.482     -253.387       -9.542      215.393      204.206       87.202    46394.001    41700.254     7604.110       11.820        4.785      375.030       90.544        0.058      335.452        6.092      850.895
03/26/2014  20:01:00     -437.088     -260.663      -12.205      241.711      200.971      117.293    58424.421    40389.528    13757.548       18.583        5.629      508.912      127.793        0.063      335.423        6.043      850.881
03/26/2014  20:02:00     -431.490     -204.026       17.520      287.212      248.145      133.259    82491.010    61576.083    17757.925       19.494        8.091      477.295      153.601        0.104      335.437        6.067      850.898
03/26/2014  20:03:00     -411.790     -244.444       20.634      294.989      201.093      127.982    87018.603    40438.224    16379.419       18.676        7.192      478.878      156.235        0.106      335.454        6.095      850.908
03/26/2014  20:04:00     -472.148     -293.421      -11.681      231.496      174.842      109.659    53590.429    30569.833    12025.057       20.265        4.809      555.895      119.222        0.046      335.442        6.076      850.937
03/26/2014  20:05:00     -356.246     -218.037        1.364      184.269      148.253       86.761    33955.192    21978.902     7527.532       11.894        3.173      417.674       96.419        0.053      335.447        6.083      850.981
03/26/2014  20:06:00     -347.204     -148.713        1.169      197.570      170.255       89.199    39033.886    28986.820     7956.543       10.931        3.799      377.712       81.689        0.047      335.466        6.114      850.988
03/26/2014  20:07:00     -546.303     -321.569      -18.074      228.133      209.183      124.552    52044.442    43757.433    15513.169       25.673        5.566      633.919      131.778        0.043      335.408        6.019      851.016
03/26/2014  20:08:00     -412.586     -124.785        0.225      240.195      181.269      106.503    57693.420    32858.508    11342.878       14.383        5.095      431.044      119.657        0.077      335.414        6.029      851.059
03/26/2014  20:09:00     -540.479     -359.919      -29.749      268.606      232.168      106.450    72149.372    53901.993    11331.511       27.994        6.869      649.353      110.417        0.029      335.390        5.989      851.057
03/26/2014  20:10:00     -224.398     -175.292        8.025      226.046      152.477       99.342    51096.853    23249.224     9868.757        8.266        4.211      284.748      117.694        0.171      335.410        6.023      851.085
03/26/2014  20:11:00     -300.145     -228.283        2.913      209.202      176.458       97.851    43765.273    31137.600     9574.906       11.333        4.224      377.094      112.787        0.089      335.385        5.981      851.106
03/26/2014  20:12:00     -316.481     -159.322        1.903      205.026      175.093       86.429    42035.758    30657.696     7469.973       10.284        4.008      354.322      101.607        0.082      335.373        5.961      851.138
03/26/2014  20:13:00     -475.166     -134.033      -19.423      183.175      168.394       82.690    33553.095    28356.660     6837.716       15.642        3.437      493.708       81.562        0.027      335.350        5.922      851.168
03/26/2014  20:14:00     -407.806     -210.638      -26.699      147.320      126.886       74.989    21703.248    16099.989     5623.321       12.740        2.171      458.992       59.729        0.017      335.357        5.933      851.184
03/26/2014  20:15:00     -279.545      -90.883        4.102      203.398      140.552       75.557    41370.618    19754.829     5708.872        7.661        3.342      293.947       82.215        0.078      335.374        5.963      851.190
03/26/2014  20:16:00     -412.971     -156.980      -32.466      142.639      146.958       82.285    20345.957    21596.622     6770.796       12.247        2.436      441.800       76.731        0.030      335.334        5.895      851.146
03/26/2014  20:17:00     -292.892      -39.577      -16.888      167.461      123.500       63.736    28043.024    15252.144     4062.290        6.749        2.368      295.554       60.010        0.041      335.371        5.957      851.208
03/26/2014  20:18:00     -227.546     -161.216      -10.290      138.980      127.255       69.815    19315.486    16193.799     4874.088        5.912        2.019      278.869       77.659        0.078      335.361        5.940      851.252
03/26/2014  20:19:00     -236.887      -43.616        6.573      168.542      130.989       79.242    28406.418    17158.224     6279.244        5.494        2.592      240.869       81.836        0.115      335.329        5.887      851.220
03/26/2014  20:20:00     -249.889     -167.440        3.606      244.465      147.754       82.421    59763.137    21831.275     6793.236        8.942        4.419      300.800       85.666        0.081      335.351        5.924      851.215
03/26/2014  20:21:00     -380.509     -288.911       -6.755      256.090      209.141      119.817    65582.206    43739.951    14356.034       17.597        6.184      477.762      124.164        0.068      335.301        5.841      851.238
03/26/2014  20:22:00     -342.692      -78.988      -10.346      236.111      117.764       77.691    55748.445    13868.449     6035.831        9.970        3.783      351.677       94.798        0.073      335.297        5.835      851.228
03/26/2014  20:23:00     -425.434      -81.807      -10.536      245.688      149.488      102.673    60362.475    22346.586    10541.829       14.051        4.663      433.228      103.307        0.057      335.285        5.814      851.221
03/26/2014  20:24:00     -599.021     -235.976      -10.678      389.203      222.067      125.429   151479.094    49313.897    15732.376       31.553       10.826      643.826      142.498        0.049      335.276        5.800      851.215
03/26/2014  20:25:00     -405.200     -208.566       -7.051      205.337      209.483      107.068    42163.371    43883.136    11463.545       15.260        4.876      455.726      113.288        0.062      335.301        5.840      851.284
03/26/2014  20:26:00     -315.628     -257.892       -8.932      200.792      193.648      105.726    40317.435    37499.519    11177.982       12.758        4.450      407.590       96.239        0.056      335.300        5.840      851.310
03/26/2014  20:27:00     -388.649     -220.400       -0.518      234.984      220.378      133.447    55217.497    48566.248    17808.083       16.058        6.080      446.794      145.800        0.106      335.281        5.807      851.283
03/26/2014  20:28:00     -562.516     -288.318      -12.984      299.549      239.058      125.870    89729.638    57148.728    15843.207       28.119        8.136      632.101      148.535        0.055      335.263        5.778      851.308
03/26/2014  20:29:00     -396.256     -185.558        4.435      266.477      180.020      102.241    71009.737    32407.253    10453.307       15.265        5.694      437.551      109.110        0.062      335.259        5.770      851.355
03/26/2014  20:30:00     -424.117     -243.863      -13.635      225.841      177.112       87.481    51004.092    31368.697     7652.860       16.476        4.501      489.229       93.282        0.036      335.241        5.740      851.354
03/26/2014  20:31:00     -420.046     -173.631      -12.524      219.037      244.165      102.099    47977.266    59616.501    10424.252       16.236        5.901      454.518      100.260        0.049      335.240        5.738      851.427
03/26/2014  20:32:00     -355.016     -224.052        0.155      246.863      155.784      102.346    60941.158    24268.782    10474.642       13.594        4.784      419.804      125.444        0.089      335.254        5.763      851.457
03/26/2014  20:33:00     -399.019     -228.071      -25.028      184.754      135.669       67.545    34134.110    18405.953     4562.316       13.447        2.855      459.601       77.151        0.028      335.212        5.693      851.475
03/26/2014  20:34:00     -394.747      -82.644       -8.354      246.646      199.927      108.040    60834.385    39970.853    11672.743       13.758        5.624      403.305      116.825        0.084      335.208        5.686      851.440
03/26/2014  20:35:00     -414.167     -194.585       -7.718      173.481      154.546       86.909    30095.537    23884.324     7553.217       13.548        3.077      457.600       78.433        0.029      335.178        5.636      851.496
03/26/2014  20:36:00     -539.932     -211.073      -29.545      283.551      194.028      101.850    80401.009    37646.714    10373.424       23.266        6.421      579.723      109.601        0.036      335.138        5.572      851.514
03/26/2014  20:37:00     -525.822     -169.940      -33.021      270.763      250.577      103.062    73312.863    62788.626    10621.709       22.656        7.336      552.601      103.750        0.035      335.104        5.515      851.485
03/26/2014  20:38:00     -440.531      -79.029       -8.840      225.489      185.298      107.207    50845.328    34335.300    11493.346       14.851        4.834      447.564      107.992        0.058      335.126        5.552      851.487
03/26/2014  20:39:00     -516.617     -154.566      -14.923      249.126      187.660      111.478    62063.927    35216.180    12427.393       20.033        5.485      539.243      135.557        0.063      335.095        5.500      851.547
03/26/2014  20:40:00     -475.278     -305.779      -26.341      175.624      177.494       95.001    30843.837    31504.178     9025.242       19.571        3.569      565.147       99.510        0.031      335.034        5.399      851.559
03/26/2014  20:41:00     -328.164     -133.361        3.554      164.517      133.504       85.397    27065.785    17823.409     7292.658        8.883        2.609      354.227       91.904        0.067      335.072        5.462      851.515
03/26/2014  20:42:00     -219.302     -124.364       18.792      184.535      133.378       77.693    34053.104    17789.564     6036.211        6.088        2.894      252.111       94.617        0.141      335.085        5.485      851.494
03/26/2014  20:43:00     -383.998     -251.907       -4.115      214.562      162.147       85.805    46036.930    26291.503     7362.505       14.529        3.985      459.251       87.212        0.036      335.045        5.416      851.497
03/26/2014  20:44:00     -276.737     -109.825       -3.513      165.194      161.069       74.653    27289.068    25943.267     5573.057        7.372        2.940      297.732       77.608        0.068      335.079        5.473      851.569
03/26/2014  20:45:00     -251.120     -175.380        1.859      187.074      120.947       73.353    34996.606    14628.206     5380.710        7.440        2.750      306.300       97.339        0.101      335.063        5.446      851.596
03/26/2014  20:46:00     -280.596      -62.238        7.624      166.109      113.589       69.945    27592.295    12902.394     4892.273        6.402        2.269      287.415       75.349        0.069      335.039        5.406      851.567
03/26/2014  20:47:00     -261.500      -87.556      -17.980      124.343      118.518       55.245    15461.107    14046.617     3051.963        5.446        1.628      275.768       66.164        0.058      335.073        5.464      851.557
03/26/2014  20:48:00     -254.909     -141.751       -8.636      176.567      148.687       77.875    31176.031    22107.736     6064.497        7.224        2.967      291.671       88.732        0.093      335.109        5.524      851.625
03/26/2014  20:49:00     -368.265     -182.085      -21.072      182.121      135.606       83.438    33167.950    18388.980     6961.978       11.386        2.926      410.821       78.387        0.036      335.063        5.446      851.698
03/26/2014  20:50:00     -328.761     -124.810      -28.208      181.021      123.746       67.212    32768.561    15313.084     4517.467        8.852        2.630      351.655       57.877        0.027      335.030        5.391      851.748
03/26/2014  20:51:00      -82.564      -80.583       16.700      103.841       95.893       54.889    10783.041     9195.420     3012.750        1.829        1.150      115.371       55.072        0.228      335.067        5.454      851.761
03/26/2014  20:52:00     -371.904      -61.514      -25.509      136.653      127.075       64.774    18674.008    16147.939     4195.629        9.087        1.951      376.957       67.126        0.032      335.009        5.356      851.794
03/26/2014  20:53:00     -153.099      -74.444        8.521      120.539       92.223       54.618    14529.628     8505.158     2983.173        2.753        1.301      170.239       55.068        0.105      335.052        5.429      851.855
03/26/2014  20:54:00     -211.981     -182.775       -0.911      150.064      113.567       59.085    22519.146    12897.485     3491.044        5.862        1.945      279.898       67.096        0.057      335.013        5.364      851.852
03/26/2014  20:55:00     -264.975     -128.728       -9.247      206.379      147.693       82.516    42592.390    21813.221     6808.864        7.903        3.561      294.590       84.132        0.082      335.047        5.421      851.914
03/26/2014  20:56:00     -234.855     -230.212       20.770      214.611      161.845       98.699    46057.733    26193.872     9741.516        9.527        4.100      328.869      105.334        0.103      335.052        5.428      851.932
03/26/2014  20:57:00     -312.693      -91.218      -15.034      154.787      108.123       65.847    23958.956    11690.595     4335.803        7.315        1.999      325.727       76.157        0.055      335.047        5.421      851.963
03/26/2014  20:58:00     -266.320     -120.361       -9.932      206.250      183.554       81.541    42539.171    33691.992     6648.947        8.418        4.144      292.255      103.910        0.126      335.070        5.460      851.959
03/26/2014  20:59:00     -415.922     -138.631      -15.241      172.060      182.163       78.534    29604.660    33183.505     6167.574       13.069        3.448      438.417       71.874        0.027      335.077        5.471      851.972
03/26/2014  21:00:00     -254.294      -85.795        7.964      159.027      122.566       71.311    25289.648    15022.439     5085.280        5.873        2.270      268.377       80.536        0.090      335.090        5.491      851.987
03/26/2014  21:01:00     -336.879     -146.594      -24.417      205.412      120.211       65.268    42193.954    14450.765     4259.909        9.823        3.045      367.393       79.149        0.046      335.118        5.538      851.981
03/26/2014  21:02:00     -155.202     -117.195        2.836      123.664       94.295       71.574    15292.754     8891.478     5122.810        3.356        1.465      194.480       70.198        0.130      335.147        5.587      851.999
03/26/2014  21:03:00     -163.060     -143.715        0.039      127.954      110.708       61.968    16372.285    12256.162     3840.051        3.985        1.623      217.353       61.840        0.081      335.113        5.531      852.023
03/26/2014  21:04:00     -296.421     -106.852        2.970      215.187      179.584       91.761    46305.558    32250.559     8420.124        9.312        4.349      315.092       99.346        0.099      335.040        5.410      852.010
03/26/2014  21:05:00     -328.975     -137.754      -21.971      156.447      163.370       70.341    24475.645    26689.725     4947.907        9.189        2.806      356.652       64.579        0.033      335.013        5.364      852.022
03/26/2014  21:06:00     -151.351      -63.899       -0.374       91.511       86.288       42.902     8374.197     7445.639     1840.577        2.232        0.883      164.287       41.138        0.063      335.062        5.446      852.044
03/26/2014  21:07:00     -250.617      -96.378       -7.073      145.814      113.502       55.991    21261.748    12882.765     3134.945        5.471        1.864      268.510       58.385        0.047      335.021        5.377      852.056
03/26/2014  21:08:00     -195.014     -204.717      -10.839      122.209      109.498       66.441    14934.970    11989.770     4414.470        5.569        1.567      282.736       63.288        0.050      335.018        5.371      852.085
03/26/2014  21:09:00     -192.549     -137.229       -1.978      115.543       99.374       63.100    13350.136     9875.222     3981.572        4.155        1.360      236.447       65.374        0.076      334.977        5.303      852.106
03/26/2014  21:10:00     -224.315     -100.032       -6.100      115.306      107.170       53.228    13295.415    11485.322     2833.185        4.398        1.381      245.609       39.521        0.026      334.966        5.285      852.101
03/26/2014  21:11:00     -205.958        8.042      -10.357      131.421       89.368       57.780    17271.513     7986.657     3338.507        3.559        1.430      206.115       57.303        0.077      334.880        5.142      852.072
03/26/2014  21:12:00     -143.655      -52.489        2.241      114.461       95.746       51.375    13101.252     9167.287     2639.406        2.415        1.245      152.944       46.601        0.093      334.937        5.238      852.080
03/26/2014  21:13:00     -147.888     -117.162       16.018      116.880       97.196       59.111    13661.026     9447.075     3494.160        3.122        1.330      188.674       67.574        0.128      334.869        5.124      852.067
03/26/2014  21:14:00     -210.588     -171.237       -0.241      143.047       95.335       65.702    20462.369     9088.759     4316.808        5.376        1.693      271.421       79.018        0.085      334.845        5.084      852.064
03/26/2014  21:15:00     -272.709     -210.574       -2.224      168.639      126.986       73.597    28439.132    16125.557     5416.474        8.434        2.499      344.545       74.035        0.046      334.795        4.999      852.071
03/26/2014  21:16:00     -195.335      -95.172       14.124      157.485      121.947       56.889    24801.394    14871.100     3236.347        4.515        2.145      217.287       65.748        0.092      334.830        5.059      852.085
03/26/2014  21:17:00     -293.788      -94.184       -2.118      141.014      124.246       52.010    19884.906    15436.957     2704.998        6.660        1.901      308.516       57.925        0.035      334.773        4.964      852.091
03/26/2014  21:18:00     -301.237     -175.858      -15.777      130.465      116.200       68.969    17021.085    13502.358     4756.718        7.859        1.764      348.812       66.565        0.036      334.772        4.960      852.108
03/26/2014  21:19:00     -214.826     -109.984        8.331      132.743       89.851       52.899    17620.579     8073.147     2798.315        4.340        1.425      241.344       67.128        0.077      334.776        4.967      852.140
03/26/2014  21:20:00     -242.502     -119.798        3.796      140.524       99.447       64.050    19747.106     9889.779     4102.409        5.345        1.687      270.479       77.882        0.083      334.739        4.906      852.151
03/26/2014  21:21:00      -52.688      -35.058       18.197       86.152       52.898       41.229     7422.123     2798.196     1699.868        0.813        0.596       63.286       31.137        0.242      334.852        5.098      852.161
03/26/2014  21:22:00     -194.854     -143.682       -4.788      107.089       79.974       43.756    11468.078     6395.847     1914.590        3.920        0.989      242.100       37.396        0.024      334.753        4.929      852.163
03/26/2014  21:23:00     -257.423     -132.126      -14.873      155.715      131.999       69.475    24247.304    17423.723     4826.759        6.521        2.325      289.351       71.049        0.060      334.753        4.929      852.180
03/26/2014  21:24:00     -336.521      -92.032      -16.129      192.056      109.769       71.287    36885.582    12049.184     5081.875        8.799        2.701      348.878       89.225        0.065      334.733        4.897      852.173
03/26/2014  21:25:00     -149.360       -4.296       19.162       97.479       73.608       57.107     9502.165     5418.096     3261.178        2.043        0.909      149.422       55.496        0.138      334.730        4.893      852.185
03/26/2014  21:26:00     -135.378     -121.780       -1.603      101.829       66.564       56.869    10369.226     4430.707     3234.130        2.559        0.902      182.092       47.531        0.068      334.753        4.932      852.187
03/26/2014  21:27:00     -252.120      -80.862      -17.153      108.884       95.692       57.440    11855.661     9156.887     3299.371        4.735        1.216      264.770       42.305        0.026      334.738        4.904      852.225
03/26/2014  21:28:00     -161.068      -52.007      -14.006      122.070      100.064       54.073    14901.029    10012.871     2923.851        2.834        1.392      169.256       59.868        0.125      334.744        4.916      852.220
03/26/2014  21:29:00      -91.123      -21.930       13.727      109.437       82.958       50.587    11976.543     6882.107     2559.049        1.519        1.071       93.724       46.444        0.246      334.798        5.007      852.203
03/26/2014  21:30:00     -135.321     -132.687       11.852      150.479       94.890       59.382    22643.858     9004.198     3526.207        3.561        1.759      189.519       69.609        0.135      334.748        4.923      852.236
03/26/2014  21:31:00     -224.310      -97.603        0.736      197.190      104.524       67.384    38883.847    10925.227     4540.661        5.709        2.717      244.625       86.949        0.126      334.749        4.923      852.255
03/26/2014  21:32:00     -231.948      -91.020        2.484      143.985      120.063       66.550    20731.765    14415.162     4428.849        5.083        1.979      249.168       75.479        0.092      334.638        4.738      852.274
03/26/2014  21:33:00     -247.277     -139.061      -12.109      178.909      125.355       69.696    32008.593    15713.936     4857.524        6.659        2.629      283.697       90.645        0.102      334.694        4.833      852.294
03/26/2014  21:34:00     -218.142      -56.882        8.537      161.056      148.110       65.690    25939.183    21936.529     4315.240        5.153        2.610      225.436       75.896        0.113      334.700        4.841      852.320
03/26/2014  21:35:00     -208.931      -63.306        9.154      127.084      105.268       63.707    16150.295    11081.350     4058.604        3.951        1.565      218.311       55.338        0.064      334.671        4.794      852.339
03/26/2014  21:36:00     -311.216     -111.533       -5.406      157.107       95.820       60.948    24682.602     9181.474     3714.668        7.344        1.879      330.598       72.096        0.048      334.656        4.770      852.337
03/26/2014  21:37:00     -297.416      -61.954       -1.026      150.618      121.797       64.116    22685.793    14834.587     4110.868        6.696        2.082      303.800       73.744        0.059      334.688        4.822      852.356
03/26/2014  21:38:00     -340.343     -155.775       -7.779      174.190       98.813       66.544    30342.238     9763.993     4428.146        9.234        2.227      374.299       69.868        0.035      334.864        5.116      852.378
03/26/2014  21:39:00     -101.618     -234.339       -2.565       85.874      101.896       52.888     7374.351    10382.731     2797.106        4.290        1.028      255.423       35.444        0.019      334.805        5.017      852.408
03/26/2014  21:40:00     -230.168     -166.788      -21.465       65.655       80.839       45.885     4310.515     6535.010     2105.389        4.710        0.648      284.245       34.703        0.015      334.752        4.927      852.439
03/26/2014  21:41:00     -200.271      -65.241       -3.834      109.406       83.534       55.479    11969.676     6977.941     3077.966        3.320        1.101      210.630       47.643        0.051      334.778        4.973      852.424
03/26/2014  21:42:00     -339.843     -107.601      -10.877      162.036      115.041       68.532    26255.762    13234.436     4696.591        8.568        2.209      356.471       73.807        0.043      334.721        4.876      852.467
03/26/2014  21:43:00     -222.154     -146.362        1.441      157.446      119.403       58.695    24789.358    14256.974     3445.124        5.663        2.125      266.034       69.886        0.069      334.733        4.898      852.503
03/26/2014  21:44:00     -286.453      -39.566      -11.055      170.896      105.850       70.638    29205.309    11204.263     4989.706        6.456        2.270      289.173       73.005        0.064      334.710        4.859      852.534
03/26/2014  21:45:00     -364.478      -31.551       -6.798      175.302      144.085       77.133    30730.740    20760.476     5949.473        9.565        2.872      365.841       84.524        0.053      334.615        4.700      852.538
03/26/2014  21:46:00     -468.966      -17.153      -22.440      222.132      134.910       79.584    49342.820    18200.777     6333.588       14.729        3.694      469.279       79.358        0.029      334.517        4.538      852.547
03/26/2014  21:47:00     -425.112      -47.266       -2.490      189.132      149.125       76.381    35771.047    22238.309     5834.097       12.339        3.192      427.731       84.737        0.039      334.437        4.406      852.562
03/26/2014  21:48:00     -240.445      -72.419       -2.264      163.147      116.259       65.432    26616.908    13516.049     4281.335        5.373        2.221      251.114       75.651        0.091      334.494        4.500      852.590
03/26/2014  21:49:00     -499.819     -122.532      -24.006      193.142      138.451       74.681    37303.989    19168.594     5577.273       16.372        3.102      514.620       84.372        0.027      334.360        4.279      852.601
03/26/2014  21:50:00     -310.846     -107.716       -5.791      185.750      165.148       70.581    34503.150    27273.703     4981.668        8.750        3.338      328.980       80.856        0.060      334.418        4.375      852.625
03/26/2014  21:51:00     -257.514      -98.402       -9.742      158.741      141.187       73.009    25198.609    19933.679     5330.355        6.327        2.523      275.674       63.815        0.054      334.381        4.312      852.599
03/26/2014  21:52:00     -402.245     -138.040       -7.654      183.839      158.725       77.253    33796.622    25193.541     5968.047       12.292        3.248      425.272       76.590        0.032      334.311        4.196      852.611
03/26/2014  21:53:00     -275.362     -137.040      -17.857      135.016      115.652       63.391    18229.290    13375.393     4018.371        6.527        1.781      307.578       49.302        0.026      334.300        4.177      852.632
03/26/2014  21:54:00     -327.831      -83.167      -23.850      154.515      129.146       65.705    23874.849    16678.666     4317.166        7.991        2.244      338.215       72.408        0.046      334.304        4.185      852.630
03/26/2014  21:55:00     -228.485      -30.199        5.725      122.445       95.155       59.536    14992.753     9054.410     3544.486        4.037        1.380      230.472       67.303        0.085      334.328        4.225      852.627
03/26/2014  21:56:00     -186.952      -71.296      -11.029      117.788       70.681       42.297    13873.924     4995.801     1789.036        3.040        1.033      200.086       47.088        0.055      334.292        4.166      852.631
03/26/2014  21:57:00     -211.639      -25.650       -4.242      120.316       88.524       53.079    14475.937     7836.557     2817.355        3.529        1.256      213.188       62.554        0.086      334.264        4.119      852.621
03/26/2014  21:58:00     -160.165      -26.061       -9.577       99.297       73.241       48.039     9859.935     5364.285     2307.785        2.197        0.877      162.271       41.131        0.064      334.251        4.098      852.608
03/26/2014  21:59:00     -233.930     -102.126       -6.666      156.200       98.199       63.511    24398.457     9643.104     4033.624        5.163        1.904      255.251       74.575        0.085      334.229        4.059      852.633
03/26/2014  22:00:00     -211.802     -166.200       -1.949      148.060      118.409       87.033    21921.880    14020.605     7574.793        5.799        2.176      269.226       92.393        0.118      334.254        4.103      852.631
03/26/2014  22:01:00     -173.027      -90.629        5.841      126.199       73.142       56.526    15926.108     5349.780     3195.245        3.132        1.224      195.325       68.299        0.122      334.252        4.099      852.667
03/26/2014  22:02:00     -145.741      -23.370        8.989       87.897       67.080       40.003     7725.858     4499.720     1600.211        1.784        0.691      147.603       28.554        0.037      334.222        4.050      852.651
03/26/2014  22:03:00     -190.396      -11.718       -5.903       98.669       89.105       45.265     9735.503     7939.685     2048.911        2.807        0.986      190.756       43.523        0.052      334.220        4.048      852.605
03/26/2014  22:04:00     -303.495      -46.838      -17.320      119.350       90.271       66.183    14244.339     8148.820     4380.182        6.068        1.339      307.088       68.051        0.049      334.172        3.965      852.553
03/26/2014  22:05:00     -182.850      -30.953       10.028      174.791      105.971       67.316    30551.811    11229.786     4531.431        4.039        2.316      185.452       70.218        0.143      334.263        4.117      852.524
03/26/2014  22:06:00     -227.281     -104.706       -6.966      137.983      103.542       63.407    19039.383    10721.023     4020.427        4.822        1.689      250.240       67.564        0.073      334.249        4.093      852.491
03/26/2014  22:07:00     -234.290      -83.587       -0.484      133.483      127.113       64.036    17817.834    16157.689     4100.666        4.997        1.904      248.754       75.418        0.092      334.241        4.080      852.478
03/26/2014  22:08:00     -200.072     -169.188        2.797      168.992      163.538       83.956    28558.256    26744.761     7048.642        6.549        3.118      262.018       86.987        0.110      334.265        4.121      852.477
03/26/2014  22:09:00     -297.325     -187.745       -3.092      148.855      166.514       75.376    22157.759    27726.809     5681.499        8.960        2.778      351.640       83.212        0.056      334.222        4.049      852.518
03/26/2014  22:10:00     -218.157     -133.824        3.212      175.991      111.429       68.334    30972.786    12416.367     4669.523        5.678        2.403      255.932       72.037        0.079      334.227        4.056      852.553
03/26/2014  22:11:00     -168.781     -158.368        3.960      145.227       93.476       57.357    21090.794     8737.832     3289.882        4.334        1.656      231.446       64.611        0.078      334.257        4.107      852.554
03/26/2014  22:12:00     -243.445     -135.752        3.582      126.999      123.078       64.513    16128.872    15148.152     4161.955        5.657        1.772      278.737       72.988        0.069      334.246        4.089      852.576
03/26/2014  22:13:00     -260.772      -77.233      -18.677       94.764       82.545       47.221     8980.204     6813.656     2229.827        4.617        0.901      271.969       39.705        0.021      334.238        4.077      852.591
03/26/2014  22:14:00     -232.470     -181.616        5.300      157.217       96.488       59.521    24717.151     9309.986     3542.755        6.230        1.878      295.003       73.814        0.063      334.250        4.094      852.604
03/26/2014  22:15:00     -199.977     -145.709       -6.528      116.819      104.590       49.888    13646.754    10939.157     2488.862        4.416        1.354      247.430       50.703        0.042      334.253        4.100      852.595
03/26/2014  22:16:00     -241.569     -215.498        8.549      183.499      130.581       84.453    33671.702    17051.417     7132.251        8.135        2.893      323.721       97.242        0.090      334.290        4.162      852.555
03/26/2014  22:17:00     -299.396     -217.999      -15.852      167.007      138.210       88.728    27891.457    19101.869     7872.632        9.613        2.743      370.353       91.016        0.060      334.299        4.177      852.529
03/26/2014  22:18:00     -249.214     -105.019        5.142      131.188      135.657       57.261    17210.283    18402.860     3278.784        5.602        1.945      270.438       56.487        0.044      334.313        4.200      852.585
03/26/2014  22:19:00     -206.547     -140.000       10.220      135.910      112.410       68.791    18471.566    12635.968     4732.244        4.910        1.792      249.523       69.009        0.076      334.320        4.212      852.586
03/26/2014  22:20:00     -286.033     -141.759      -17.225      127.539      133.518       67.638    16266.304    17827.164     4574.845        7.043        1.933      319.234       50.180        0.025      334.326        4.220      852.587
03/26/2014  22:21:00     -226.517     -195.424      -10.323      141.804      114.997       76.162    20108.332    13224.311     5800.712        6.436        1.957      299.167       58.778        0.039      334.350        4.262      852.592
03/26/2014  22:22:00     -170.169      -80.368        9.822      159.946      117.269       75.571    25582.676    13752.040     5711.009        4.027        2.252      188.192       79.172        0.177      334.388        4.326      852.569
03/26/2014  22:23:00     -285.140     -126.375      -10.494      188.157      140.114       75.132    35403.094    19631.870     5644.783        7.902        3.034      311.890       82.995        0.071      334.351        4.263      852.566
03/26/2014  22:24:00     -282.314     -110.664      -23.095      199.544      154.960       67.678    39817.829    24012.740     4580.336        8.043        3.421      303.229       67.721        0.050      334.385        4.320      852.600
03/26/2014  22:25:00     -365.781     -124.853      -17.729      181.818      167.586       72.041    33057.653    28085.224     5189.925       10.800        3.317      386.502       71.945        0.035      334.366        4.289      852.636
03/26/2014  22:26:00     -306.754     -178.817      -12.888      192.832      140.574       86.556    37184.279    19761.083     7491.869        9.533        3.222      355.068      101.990        0.083      334.387        4.323      852.615
03/26/2014  22:27:00     -188.520     -129.842        5.886      137.126       85.126       66.298    18803.408     7246.480     4395.466        4.143        1.522      228.908       68.329        0.089      334.438        4.408      852.642
03/26/2014  22:28:00     -168.819      -74.053        4.810      142.033      134.793       65.460    20173.406    18169.272     4285.048        3.831        2.131      184.347       64.636        0.123      334.434        4.402      852.665
03/26/2014  22:29:00     -452.867      -65.114      -24.747      211.708      136.758       75.034    44820.076    18702.778     5630.132       13.953        3.458      457.524       82.074        0.032      334.398        4.341      852.676
03/26/2014  22:30:00     -395.578     -168.971       -8.240      207.661      155.444       83.694    43123.063    24162.883     7004.676       12.968        3.715      430.155       95.544        0.049      334.446        4.421      852.725
03/26/2014  22:31:00     -230.870      -40.465       -1.718      189.804      125.876       67.655    36025.692    15844.822     4577.158        5.568        2.822      234.389       69.972        0.089      334.477        4.474      852.749
03/26/2014  22:32:00     -239.371     -148.882        7.337      214.529      169.217       80.991    46022.611    28634.420     6559.570        8.035        4.061      281.894      108.359        0.148      334.599        4.674      852.708
03/26/2014  22:33:00     -302.025     -143.298       -0.403      163.127      152.953       81.758    26610.386    23394.702     6684.318        8.421        2.834      334.296       78.336        0.055      334.534        4.566      852.712
03/26/2014  22:34:00     -311.647     -130.117       -8.124      244.837      136.318       79.646    59945.388    18582.686     6343.561        9.948        4.244      337.719      101.674        0.091      334.582        4.648      852.709
03/26/2014  22:35:00     -261.695     -133.586       -9.963      234.132      179.550       72.995    54817.636    32238.214     5328.282        8.939        4.619      293.819      100.893        0.118      334.682        4.814      852.705
03/26/2014  22:36:00     -508.434     -187.764      -13.731      204.973      169.913       88.918    42014.128    28870.278     7906.346       18.635        3.940      541.997       87.888        0.026      334.687        4.820      852.704
03/26/2014  22:37:00     -131.412     -235.296       10.900      154.976      167.583       71.998    24017.704    28083.975     5183.682        6.501        2.864      269.506       71.276        0.070      334.785        4.983      852.767
03/26/2014  22:38:00      -53.414     -162.948        6.180       70.051      115.579       43.717     4907.082    13358.473     1911.135        2.481        1.009      171.479       34.422        0.040      334.769        4.959      852.788
03/26/2014  22:39:00     -156.944     -123.218       27.693      177.977       93.541       55.052    31675.712     8749.948     3030.728        4.201        2.173      199.534       85.473        0.183      334.744        4.916      852.793
03/26/2014  22:40:00     -287.867      -49.706        0.445      175.474      103.645       58.990    30791.063    10742.326     3479.816        6.517        2.251      292.126       53.067        0.033      334.615        4.700      852.752
03/26/2014  22:41:00     -208.298      -52.585       -0.744      140.121      111.933       63.352    19633.803    12528.919     4013.517        4.116        1.809      214.833       69.566        0.105      334.568        4.622      852.700
03/26/2014  22:42:00     -326.744     -150.065        3.269      201.029      175.894       76.736    40412.545    30938.678     5888.456       10.325        3.862      359.556       95.927        0.071      334.574        4.633      852.688
03/26/2014  22:43:00     -311.314     -142.523       -2.222      132.164      113.435       74.830    17467.391    12867.504     5599.477        7.658        1.797      342.388       73.901        0.047      334.570        4.625      852.690
03/26/2014  22:44:00     -339.777     -222.437       14.318      213.020      136.924       92.765    45377.694    18748.055     8605.320       11.892        3.637      406.112      105.857        0.068      334.610        4.692      852.694
03/26/2014  22:45:00     -241.760     -106.172       -5.532      127.368      123.126       63.972    16222.683    15159.955     4092.475        5.261        1.774      264.046       50.768        0.037      334.677        4.804      852.710
03/26/2014  22:46:00     -186.331      -96.157      -11.985      100.049       79.060       49.666    10009.902     6250.555     2466.721        3.141        0.936      209.679       52.147        0.062      334.680        4.808      852.751
03/26/2014  22:47:00     -264.418     -183.517       -9.215      145.886       93.059       58.520    21282.769     8659.977     3424.625        6.852        1.668      321.863       45.280        0.020      334.626        4.719      852.760
03/26/2014  22:48:00     -250.384     -209.144       -4.639      119.308      102.945       62.610    14234.285    10597.663     3920.045        6.760        1.438      326.242       68.582        0.044      334.606        4.685      852.726
03/26/2014  22:49:00     -246.307     -185.910      -10.275       93.999      120.440       57.820     8835.724    14505.702     3343.119        6.100        1.334      308.593       57.191        0.034      334.624        4.716      852.666
03/26/2014  22:50:00     -140.631     -287.684      -16.276      112.238      117.757       57.527    12597.466    13866.755     3309.301        6.628        1.489      320.218       26.529        0.007      334.690        4.824      852.773
03/26/2014  22:51:00     -148.476     -102.687       10.630      109.906       82.868       47.709    12079.342     6867.056     2276.172        2.696        1.061      180.526       51.635        0.082      334.654        4.764      852.796
03/26/2014  22:52:00      -83.815      -28.363      -15.362       60.607       48.098       36.704     3673.156     2313.386     1347.191        0.770        0.367       88.484       23.324        0.069      334.642        4.748      852.684
03/26/2014  22:53:00      -86.066      -95.554       -7.296       53.475       48.590       34.007     2859.531     2360.976     1156.444        1.148        0.319      128.600       24.540        0.036      334.653        4.767      852.650
03/26/2014  22:54:00      -71.872      -67.463       11.445       61.931       77.753       35.168     3835.443     6045.527     1236.786        1.048        0.556       98.575       35.138        0.127      334.726        4.888      852.674
03/26/2014  22:55:00       -8.566        3.535       28.015       35.178       29.289       23.110     1237.475      857.867      534.066        0.175        0.131        9.266       21.938        5.605      334.755        4.937      852.618
03/26/2014  22:56:00      -46.435      -24.288        1.962       70.632       38.685       45.915     4988.856     1496.510     2108.213        0.567        0.430       52.404       47.553        0.823      334.825        5.052      852.637
03/26/2014  22:57:00     -247.833     -218.132        0.150      152.786      146.417       76.303    23343.643    21437.810     5822.203        7.979        2.530      330.156       80.102        0.059      334.917        5.204      852.637
03/26/2014  22:58:00     -171.813      -84.256       12.528      124.504      114.647       67.485    15501.198    13143.995     4554.164        3.498        1.660      191.361       71.346        0.139      334.953        5.264      852.581
03/26/2014  22:59:00     -169.556     -199.461       14.048      141.898      147.392       67.764    20134.971    21724.480     4592.009        5.758        2.323      261.790       58.776        0.050      334.954        5.263      852.595
03/26/2014  23:00:00     -198.654      -78.024       26.389      174.330      120.065       73.512    30391.086    14415.722     5404.083        4.822        2.511      213.427       77.763        0.133      334.885        5.151      852.586
03/26/2014  23:01:00     -170.511     -210.034       -6.635      125.588      107.082       57.481    15772.319    11466.635     3304.062        5.188        1.527      270.533       49.925        0.034      334.948        5.255      852.626
03/26/2014  23:02:00     -175.875     -131.811       31.676      196.980      136.450       81.447    38800.940    18618.565     6633.632        5.667        3.203      219.787       78.084        0.126      334.909        5.190      852.645
03/26/2014  23:03:00       27.957       59.672       47.209       42.731       50.360       32.721     1825.903     2536.094     1070.659        0.600        0.272       65.896       30.239        0.211      334.815        5.036      852.711
03/26/2014  23:04:00       42.318       36.735       26.752       45.672       37.760       36.279     2085.969     1425.836     1316.150        0.434        0.241       56.039       23.386        0.174      334.782        4.982      852.672
03/26/2014  23:05:00      -74.352      -61.404       -8.376       75.250       58.209       33.559     5662.624     3388.264     1126.212        0.977        0.509       96.430       29.144        0.091      334.888        5.157      852.724
03/26/2014  23:06:00      -34.460      -87.712       17.130       66.067      127.017       41.969     4364.912    16133.251     1761.392        1.571        1.113       94.238       38.348        0.166      334.864        5.118      852.706
03/26/2014  23:07:00     -240.957        9.153      -11.943      162.296      106.073       62.504    26340.040    11251.445     3906.758        4.988        2.075      241.131       71.735        0.089      334.738        4.907      852.684
03/26/2014  23:08:00     -174.289      -90.359       20.989      164.708      101.509       66.642    27128.651    10304.020     4441.166        4.042        2.094      196.320       70.838        0.130      334.647        4.755      852.674
03/26/2014  23:09:00     -165.978     -199.254       -0.040      195.749      114.885       76.452    38317.549    13198.636     5844.947        6.229        2.868      259.328       69.139        0.071      334.752        4.927      852.701
03/26/2014  23:10:00     -175.151     -147.741        2.329      135.667      154.490       78.278    18405.576    23867.275     6127.416        5.045        2.420      229.140       52.028        0.052      334.664        4.783      852.671
03/26/2014  23:11:00     -279.429     -119.235       -2.733      152.618      178.550       81.084    23292.331    31880.204     6574.580        7.701        3.087      303.805       84.582        0.078      334.589        4.656      852.641
03/26/2014  23:12:00     -246.572     -150.292        1.316      140.303      139.440       63.755    19685.011    19443.503     4064.761        6.328        2.160      288.765       68.611        0.056      334.585        4.650      852.607
03/26/2014  23:13:00     -178.851     -160.909        3.452      194.549      150.144       70.461    37849.251    22543.337     4964.769        6.161        3.268      240.581       73.363        0.093      334.576        4.637      852.626
03/26/2014  23:14:00     -172.271     -118.561      -12.886       95.970       87.474       42.153     9210.186     7651.695     1776.863        3.127        0.932      209.127       34.467        0.027      334.547        4.587      852.631
03/26/2014  23:15:00     -161.984     -194.156      -11.460      112.344       90.634       50.284    12621.134     8214.490     2528.530        4.371        1.168      252.854       46.107        0.033      334.557        4.602      852.595
03/26/2014  23:16:00     -180.038     -208.417       -1.826      131.027      159.991       67.606    17168.095    25597.146     4570.554        6.159        2.367      275.411       49.437        0.032      334.495        4.501      852.601
03/26/2014  23:17:00     -218.511     -259.855      -18.758      127.052      159.269       61.978    16142.275    25366.643     3841.220        8.048        2.268      339.517       52.588        0.024      334.501        4.514      852.617
03/26/2014  23:18:00     -433.696     -249.674       -6.915      200.876      140.405       93.554    40351.211    19713.477     8752.321       15.963        3.441      500.429      108.851        0.047      334.460        4.443      852.616
03/26/2014  23:19:00     -276.492     -188.292       -5.286      175.008      112.125       63.700    30627.860    12571.968     4057.648        7.958        2.363      334.517       64.401        0.037      334.467        4.456      852.619
03/26/2014  23:20:00     -191.019      -98.126       19.411      166.420      100.202       74.306    27695.545    10040.360     5521.340        4.487        2.163      214.748       57.739        0.072      334.495        4.503      852.664
03/26/2014  23:21:00     -197.985     -110.018        6.829      122.307      116.716       55.259    14958.913    13622.545     3053.594        4.149        1.582      226.500       62.575        0.076      334.500        4.510      852.669
03/26/2014  23:22:00     -170.234     -180.958       -8.080      111.960       79.172       53.187    12535.005     6268.130     2828.837        4.171        1.082      248.446       56.951        0.053      334.560        4.609      852.700
03/26/2014  23:23:00     -110.970     -122.095       12.197      126.806       83.385       48.659    16079.816     6953.080     2367.653        2.638        1.270      164.990       52.506        0.101      334.604        4.683      852.746
03/26/2014  23:24:00      -31.495     -171.189        0.922       88.146      128.120       66.013     7769.756    16414.765     4357.665        2.941        1.427      174.062       69.977        0.162      334.688        4.823      852.727
03/26/2014  23:25:00      -72.386     -210.750      -15.347      112.821      137.330       65.734    12728.615    18859.549     4321.011        4.289        1.795      222.835       38.445        0.030      334.705        4.850      852.744
03/26/2014  23:26:00       50.371     -191.504      -26.420      109.187      112.601       69.059    11921.769    12679.039     4769.111        3.463        1.468      198.018       65.757        0.110      334.860        5.108      852.769
03/26/2014  23:27:00      -47.613      -24.333       16.998       44.206       59.691       36.993     1954.127     3563.014     1368.453        0.502        0.344       53.470       18.771        0.123      334.722        4.883      852.786
03/26/2014  23:28:00      -50.207       -2.915       -4.087       43.742       32.012       24.022     1913.386     1024.780      577.076        0.303        0.176       50.292       21.447        0.182      334.720        4.878      852.829
03/26/2014  23:29:00     -136.778     -119.804        0.425      163.642      109.966       64.056    26778.802    12092.597     4103.225        3.801        2.149      181.828       70.092        0.149      334.681        4.812      852.836
03/26/2014  23:30:00     -179.432     -115.071      -13.023      111.431       88.652       45.188    12416.820     7859.146     2041.954        3.396        1.116      213.160       45.499        0.046      334.713        4.863      852.823
03/26/2014  23:31:00      -28.080        7.926       24.772       61.467       43.214       36.225     3778.249     1867.442     1312.264        0.421        0.348       29.177       31.780        1.186      334.792        4.998      852.798
03/26/2014  23:32:00      -72.371       25.942       55.212      160.797      105.599      101.072    25855.673    11151.104    10215.597        2.808        2.361       76.880      113.748        2.189      334.819        5.040      852.790
03/26/2014  23:33:00      -83.606      -95.551       44.754      106.647      185.964       97.424    11373.643    34582.681     9491.425        3.677        2.772      126.965      117.705        0.859      334.856        5.103      852.797
03/26/2014  23:34:00     -266.652     -146.822      -10.684      138.226       91.084       67.291    19106.324     8296.215     4528.039        6.235        1.597      304.401       75.273        0.061      334.830        5.059      852.813
03/26/2014  23:35:00     -113.247     -184.665       11.908      120.526      101.610       59.048    14526.553    10324.657     3486.616        3.770        1.417      216.624       62.745        0.084      334.827        5.055      852.903
03/26/2014  23:36:00     -145.308     -193.218       12.581      186.102      133.246       86.874    34634.056    17754.533     7547.043        5.926        2.997      241.760       70.840        0.086      334.850        5.093      852.859
03/26/2014  23:37:00     -149.561     -192.281       -2.702      119.960      131.092       69.236    14390.472    17185.152     4793.651        4.785        1.818      243.599       47.124        0.037      334.912        5.195      852.870
03/26/2014  23:38:00      -78.952     -163.870        4.369       70.852       80.965       47.142     5020.006     6555.273     2222.404        2.345        0.690      181.898       33.362        0.034      334.891        5.161      852.878
03/26/2014  23:39:00       29.120      -97.820      -20.286       94.363       94.152       46.162     8904.461     8864.640     2130.948        1.536        0.995      102.062       61.699        0.365      334.993        5.331      852.880
03/26/2014  23:40:00        3.782      -64.227       32.095       83.557      112.268       60.787     6981.793    12604.070     3695.110        1.422        1.164       64.339       65.176        1.026      335.031        5.394      852.825
03/26/2014  23:41:00       12.511     -260.877       -8.497      129.580      160.052       64.557    16791.022    25616.483     4167.568        5.742        2.329      261.177       59.352        0.052      335.034        5.399      852.918
03/26/2014  23:42:00       70.655      -74.325       23.014       68.800      112.912       67.027     4733.372    12749.011     4492.619        1.651        1.099      102.549       70.122        0.468      334.910        5.194      852.852
03/26/2014  23:43:00      -62.601      -43.547        3.571       63.092       56.109       34.897     3980.616     3148.245     1217.799        0.709        0.417       76.258       25.858        0.115      335.073        5.466      852.901
03/26/2014  23:44:00      -71.568       33.296       11.038       49.220       79.937       40.140     2422.561     6389.957     1611.188        0.839        0.521       78.934       33.863        0.184      334.916        5.204      852.918
03/26/2014  23:45:00      -51.957      -23.554       21.971       93.315       67.450       52.296     8707.626     4549.518     2734.835        0.986        0.800       57.046       17.327        0.092      334.847        5.090      852.873
03/26/2014  23:46:00      -53.460     -190.499       -9.112      100.353       91.138       50.635    10070.792     8306.071     2563.950        3.008        1.047      197.859       30.130        0.023      334.949        5.258      852.925
03/26/2014  23:47:00       -2.445      -42.203        7.229       73.325       76.158       40.795     5376.498     5800.065     1664.272        0.734        0.642       42.274       37.269        0.777      334.970        5.294      852.914
03/26/2014  23:48:00        2.104     -124.858      -11.606      109.094       67.778       43.974    11901.486     4593.876     1933.733        1.708        0.921      124.875       43.524        0.121      335.028        5.391      853.004
03/26/2014  23:49:00       16.923       -3.960       63.473       66.820       75.221       46.211     4464.909     5658.251     2135.495        0.829        0.613       17.380       34.776        4.003      335.046        5.421      853.016
03/26/2014  23:50:00       -2.804      113.617      127.515       41.352       65.540       44.742     1709.995     4295.438     2001.855        1.859        0.400      113.651       35.706        0.099      334.944        5.250      852.957
03/26/2014  23:51:00       34.620       75.429       82.673       65.566       47.838       40.175     4298.843     2288.447     1614.043        1.096        0.410       82.994       38.326        0.213      334.964        5.284      852.947
03/26/2014  23:52:00       44.091       68.970       76.050       51.173       56.592       51.910     2618.630     3202.673     2694.677        1.050        0.426       81.859       50.724        0.384      334.938        5.241      852.968
03/26/2014  23:53:00       83.966       31.268       39.603       49.582       51.429       41.412     2458.417     2644.976     1714.949        0.821        0.341       89.599       33.491        0.140      334.923        5.216      852.991
03/26/2014  23:54:00       71.836      -49.233       18.187       46.144       51.441       40.106     2129.226     2646.143     1608.495        0.715        0.319       87.088       31.426        0.130      334.970        5.293      853.008
03/26/2014  23:55:00       91.374      -41.191       20.836       73.102       80.129       55.081     5343.847     6420.722     3033.904        1.264        0.740      100.229       59.846        0.357      334.995        5.337      853.000
03/26/2014  23:56:00       60.308      -83.086       23.000       76.534      100.871       62.218     5857.525    10174.934     3871.109        1.548        0.995      102.666       67.905        0.437      335.044        5.416      852.975
03/26/2014  23:57:00      138.858     -154.735      -34.425      103.396      117.277       68.720    10690.683    13753.910     4722.500        3.678        1.458      207.905       52.385        0.063      335.049        5.423      852.917
03/26/2014  23:58:00      109.382      -50.506       64.186       91.303      113.566       76.640     8336.267    12897.242     5873.761        2.287        1.355      120.479       90.227        0.561      335.005        5.350      852.858
03/26/2014  23:59:00       30.628       14.605       98.013       58.234       76.718       51.184     3391.151     5885.707     2619.843        1.132        0.595       33.932       44.183        1.695      335.002        5.348      852.864
